[[[{"header":{"parameterUnit":"kt","parameterCategory":2,"dx":1,"dy":1,"la1":29.285339999999998,"la2":30.599998999999997,"lo1":-89.70041500000002,"lo2":-87.6738589999976,"nx":112,"ny":82,"refTime":"2022-10-21T00:00:00:Z","depth":0,"parameterNumber":1,"parameterNumberName":"U-component_of_WINDS"},"data":[-13.5919,-13.5521,0.0,-12.806,-12.1711,0.0,-11.1613,0.0,0.0,0.0,0.0,0.0,0.0,0.0,0.0,0.0,0.0,0.0,0.0,0.0,0.0,0.0,0.0,0.0,0.0,0.0,0.0,0.0,0.0,0.0,0.0,0.0,-13.1451,-13.1977,-14.1381,-14.6641,-14.7167,-14.7167,-14.7167,-14.7167,-14.7167,-14.7167,-14.7167,-14.7167,-14.7167,-14.7167,-14.7167,-14.5786,-14.3616,-14.309,-14.1512,-13.9342,-13.8816,-13.8619,-13.8619,-13.8619,-13.8619,-13.8619,-13.8619,-13.8619,-13.8619,-13.8619,-13.8619,-13.8619,-13.8727,-13.8987,-13.9047,-13.8689,-13.9276,-13.9946,-13.9498,-13.9782,-14.0265,-14.0516,-13.8479,-13.6503,-13.6597,-13.4411,-13.2344,-13.2344,-13.2344,-13.2344,-13.2344,-13.2344,-13.2344,-13.2344,-13.2344,-13.1266,-12.8284,-12.735,-12.5693,-12.2687,-12.1707,-12.1289,-12.1289,-12.1289,-12.1289,-12.1289,-12.0894,-11.9604,-11.7331,-11.6778,-11.5488,-11.3427,-11.3366,-11.3366,-11.3366,-11.3366,-11.3366,-11.3366,-11.3366,-11.3366,0.0,0.0,-12.1709,-11.6991,0.0,0.0,0.0,0.0,0.0,0.0,0.0,0.0,0.0,0.0,0.0,0.0,0.0,0.0,0.0,0.0,0.0,0.0,0.0,0.0,0.0,0.0,0.0,0.0,0.0,0.0,0.0,-12.7769,-13.6383,-13.6383,-14.3419,-14.7167,-14.7167,-14.7167,-14.7167,-14.7167,-14.7167,-14.7167,-14.7167,-14.7167,-14.7167,-14.7167,-14.7167,-14.6049,-14.4208,-14.3222,-14.1709,-13.9934,-13.9013,-13.8619,-13.8619,-13.8619,-13.8619,-13.8619,-13.8619,-13.8619,-13.8619,-13.8619,-13.8619,-13.8619,-13.8727,-13.8987,-13.918,-13.918,-13.9437,-13.9673,-13.9673,-13.9673,-13.9626,-13.9432,-13.7751,-13.6129,-13.5768,-13.3931,-13.2344,-13.2344,-13.2344,-13.2344,-13.2344,-13.2344,-13.2344,-13.2344,-13.2344,-13.1266,-12.82,-12.735,-12.5693,-12.2593,-12.1707,-12.1289,-12.1289,-12.1289,-12.1289,-12.1289,-12.1289,-12.0341,-11.8006,-11.7454,-11.6164,-11.4013,-11.3612,-11.3366,-11.3366,-11.3366,-11.3366,-11.3366,-11.3366,-11.3366,0.0,0.0,0.0,-10.1034,0.0,0.0,0.0,0.0,-8.1572,0.0,0.0,0.0,0.0,0.0,0.0,0.0,0.0,0.0,0.0,0.0,0.0,0.0,0.0,0.0,0.0,0.0,0.0,0.0,0.0,0.0,-12.9873,-13.9408,-14.4931,-14.4931,-14.6378,-14.7167,-14.7167,-14.7167,-14.7167,-14.7167,-14.7167,-14.7167,-14.7167,-14.7167,-14.7167,-14.7167,-14.7167,-14.7102,-14.6838,-14.4077,-14.2893,-14.2498,-13.9737,-13.8684,-13.8684,-13.8619,-13.8619,-13.8619,-13.8619,-13.8619,-13.8619,-13.8619,-13.8619,-13.8706,-13.9008,-13.918,-13.918,-13.918,-13.918,-13.918,-13.918,-13.918,-13.8849,-13.7395,-13.6674,-13.57,-13.3847,-13.2871,-13.2344,-13.2344,-13.2344,-13.2344,-13.2344,-13.2344,-13.2344,-13.2344,-13.2344,-13.1658,-12.9839,-12.8031,-12.6222,-12.4291,-12.2405,-12.1289,-12.1289,-12.1289,-12.1289,-12.1289,-12.1289,-12.0771,-11.9419,-11.7945,-11.6594,-11.5303,-11.3952,-11.3366,-11.3366,-11.3366,-11.3366,-11.3366,-11.3366,-11.3366,-10.271,0.0,0.0,0.0,0.0,0.0,0.0,0.0,0.0,0.0,0.0,0.0,0.0,0.0,0.0,0.0,0.0,0.0,0.0,0.0,0.0,0.0,0.0,0.0,0.0,0.0,0.0,0.0,0.0,0.0,-12.8295,-13.7895,-14.3419,-14.3419,-14.5852,-14.7167,-14.7167,-14.7167,-14.7167,-14.7167,-14.7167,-14.7167,-14.7167,-14.7167,-14.7167,-14.7167,-14.7167,-14.6575,-14.5523,-14.48,-14.3222,-14.1249,-14.046,-14.0131,-14.0,-13.9013,-13.8619,-13.8619,-13.8619,-13.8619,-13.8619,-13.8619,-13.8619,-13.8619,-13.8706,-13.8727,-13.8727,-13.8727,-13.8727,-13.8727,-13.8727,-13.8727,-13.8571,-13.7733,-13.6607,-13.5391,-13.4565,-13.3328,-13.2344,-13.2344,-13.2344,-13.2344,-13.2344,-13.2344,-13.2344,-13.2344,-13.2344,-13.1266,-12.8116,-12.7264,-12.5693,-12.2405,-12.1611,-12.1289,-12.1289,-12.1289,-12.1289,-12.1289,-12.1289,-12.0771,-11.9419,-11.7945,-11.6594,-11.5303,-11.3952,-11.3366,-11.3366,-11.3366,-11.3366,-11.3366,-11.3366,-11.3366,0.0,0.0,0.0,0.0,0.0,0.0,-8.7961,0.0,-8.0633,0.0,0.0,0.0,0.0,0.0,0.0,0.0,0.0,0.0,0.0,0.0,0.0,0.0,0.0,0.0,0.0,0.0,0.0,0.0,0.0,-13.4673,-13.4081,-14.0197,-14.4011,-14.4603,-14.6247,-14.7167,-14.7167,-14.7167,-14.7167,-14.7167,-14.7167,-14.7167,-14.7167,-14.7167,-14.7167,-14.7167,-14.7167,-14.6707,-14.5852,-14.526,-14.4077,-14.2564,-14.2564,-14.217,-14.1446,-14.0,-13.9474,-13.9408,-13.8816,-13.8619,-13.8619,-13.8619,-13.8619,-13.8619,-13.8619,-13.8619,-13.8619,-13.8619,-13.8619,-13.8619,-13.8619,-13.8619,-13.818,-13.6668,-13.5812,-13.5029,-13.3526,-13.2782,-13.2344,-13.2344,-13.2344,-13.2344,-13.2344,-13.2344,-13.2344,-13.2344,-13.1658,-13.0163,-12.7264,-12.6286,-12.4592,-12.1611,-12.1289,-12.1289,-12.1289,-12.1289,-12.1289,-12.1289,-12.1289,-12.1016,-12.0218,-11.8866,-11.7454,-11.6102,-11.4812,-11.3829,-11.3366,-11.3366,-11.3366,-11.3366,-11.3366,-11.3366,0.0,0.0,0.0,0.0,-8.07,0.0,0.0,0.0,0.0,0.0,0.0,0.0,0.0,0.0,0.0,0.0,0.0,0.0,0.0,0.0,0.0,0.0,0.0,0.0,0.0,0.0,-13.3546,-14.046,-14.3353,-14.4208,-14.2893,-14.4274,-14.5589,-14.6838,-14.7102,-14.7167,-14.7167,-14.7167,-14.7167,-14.7167,-14.7167,-14.7167,-14.7167,-14.7167,-14.7167,-14.7167,-14.7167,-14.7167,-14.7036,-14.5786,-14.5195,-14.5063,-14.5063,-14.4274,-14.2893,-14.1315,-14.0723,-14.0526,-13.9145,-13.8619,-13.8619,-13.8619,-13.8619,-13.8619,-13.8619,-13.8619,-13.8619,-13.8619,-13.8619,-13.8619,-13.8619,-13.8619,-13.7895,-13.5087,-13.495,-13.4666,-13.1905,-13.1791,-13.2267,-13.2344,-13.2344,-13.2344,-13.2344,-13.2344,-13.2344,-13.2344,-13.0804,-12.8952,-12.7178,-12.5312,-12.3464,-12.1516,-12.1289,-12.1289,-12.1289,-12.1289,-12.1289,-12.1289,-12.1289,-12.1289,-12.1289,-12.0218,-11.8928,-11.7454,-11.6041,-11.4689,-11.3522,-11.3427,-11.3366,-11.3366,-11.3366,-11.3276,0.0,0.0,0.0,0.0,0.0,-8.1639,0.0,0.0,0.0,0.0,0.0,0.0,0.0,0.0,0.0,0.0,0.0,0.0,0.0,0.0,0.0,0.0,0.0,0.0,0.0,-13.7043,-13.9648,-14.2235,-14.2959,-14.3156,-14.2827,-14.4274,-14.5195,-14.5458,-14.6575,-14.7167,-14.7167,-14.7167,-14.7167,-14.7167,-14.7167,-14.7167,-14.7167,-14.7167,-14.7167,-14.7167,-14.7167,-14.7167,-14.7102,-14.6838,-14.6049,-14.5063,-14.5063,-14.4866,-14.4274,-14.1709,-14.0723,-14.0526,-13.9145,-13.8619,-13.8619,-13.8619,-13.8619,-13.8619,-13.8619,-13.8619,-13.8619,-13.8619,-13.8619,-13.8619,-13.8619,-13.8619,-13.7982,-13.5359,-13.495,-13.4338,-13.2222,-13.1791,-13.2025,-13.2267,-13.2344,-13.2344,-13.2344,-13.2344,-13.2344,-13.2344,-13.0804,-12.8952,-12.7178,-12.5312,-12.3464,-12.1516,-12.1289,-12.1289,-12.1289,-12.1289,-12.1289,-12.1289,-12.1289,-12.1289,-12.1289,-12.1139,-12.0341,-11.8989,-11.6532,-11.5181,-11.4873,-11.3768,-11.3366,-11.3366,-11.3366,-11.2916,0.0,0.0,0.0,-8.1639,0.0,0.0,0.0,0.0,0.0,0.0,0.0,0.0,0.0,0.0,0.0,0.0,0.0,0.0,0.0,0.0,0.0,0.0,0.0,0.0,0.0,-14.1686,-14.2104,-14.2761,-14.3551,-14.4274,-14.4931,-14.5721,-14.6115,-14.6115,-14.6773,-14.7167,-14.7167,-14.7167,-14.7167,-14.7167,-14.7167,-14.7167,-14.7167,-14.7167,-14.7167,-14.7167,-14.7167,-14.7167,-14.7167,-14.7167,-14.6707,-14.6115,-14.6115,-14.6115,-14.5852,-14.3682,-14.2433,-14.1578,-14.0197,-13.9211,-13.8619,-13.8619,-13.8619,-13.8619,-13.8619,-13.8619,-13.8619,-13.8619,-13.8619,-13.8619,-13.8619,-13.8619,-13.7895,-13.5256,-13.495,-13.4503,-13.2064,-13.1791,-13.2179,-13.2344,-13.2344,-13.2344,-13.2344,-13.2344,-13.2035,-13.1187,-12.9512,-12.7607,-12.5846,-12.3925,-12.2311,-12.142,-12.1289,-12.1289,-12.1289,-12.1289,-12.1289,-12.1289,-12.1289,-12.1289,-12.1289,-12.1289,-12.1016,-12.0341,-11.7638,-11.5611,-11.4259,-11.3583,-11.3366,-11.3366,-11.3366,-11.2765,0.0,0.0,0.0,0.0,0.0,0.0,-8.6603,-8.9018,0.0,0.0,0.0,0.0,0.0,0.0,0.0,0.0,0.0,0.0,0.0,0.0,0.0,0.0,0.0,0.0,0.0,-14.2827,-14.2959,-14.3222,-14.4603,-14.6049,-14.7496,-14.7299,-14.7167,-14.7167,-14.7167,-14.7167,-14.7167,-14.7167,-14.7167,-14.7167,-14.7167,-14.7167,-14.7167,-14.7167,-14.7167,-14.7167,-14.7167,-14.7167,-14.7167,-14.7167,-14.7167,-14.7167,-14.7167,-14.7167,-14.6904,-14.526,-14.3879,-14.2564,-14.092,-13.9605,-13.8619,-13.8619,-13.8619,-13.8619,-13.8619,-13.8619,-13.8619,-13.8619,-13.8619,-13.8619,-13.8619,-13.8619,-13.7961,-13.5331,-13.5065,-13.4651,-13.2158,-13.1991,-13.2267,-13.2344,-13.2344,-13.2344,-13.2344,-13.2344,-13.188,-13.0404,-12.8284,-12.6398,-12.4863,-12.2781,-12.1289,-12.1289,-12.1289,-12.1289,-12.1289,-12.1289,-12.1289,-12.1289,-12.1289,-12.1289,-12.1289,-12.1289,-12.1289,-12.1289,-11.8928,-11.6286,-11.3645,-11.3645,-11.3612,-11.3366,-11.3366,-11.2674,0.0,0.0,0.0,0.0,0.0,0.0,-8.9436,-9.9224,0.0,0.0,0.0,0.0,0.0,0.0,0.0,0.0,0.0,0.0,0.0,0.0,0.0,0.0,0.0,0.0,-14.2761,-14.2827,-14.3353,-14.4668,-14.6115,-14.7562,-14.914,-14.7891,-14.7167,-14.7167,-14.7167,-14.7167,-14.7167,-14.7167,-14.7167,-14.7167,-14.7167,-14.7167,-14.7167,-14.7167,-14.7167,-14.7167,-14.7167,-14.7167,-14.7167,-14.7167,-14.7167,-14.7167,-14.7167,-14.7167,-14.6838,-14.4077,-14.2959,-14.2433,-13.9802,-13.875,-13.8619,-13.8619,-13.8619,-13.8619,-13.8619,-13.8619,-13.8619,-13.8619,-13.8619,-13.8619,-13.8619,-13.8619,-13.8224,-13.658,-13.5539,-13.4653,-13.3405,-13.2489,-13.1947,-13.2334,-13.2344,-13.2344,-13.2344,-13.2344,-13.2267,-13.2113,-12.9117,-12.6833,-12.6659,-12.3557,-12.1289,-12.1289,-12.1289,-12.1289,-12.1289,-12.1289,-12.1289,-12.1289,-12.1289,-12.1289,-12.1289,-12.1289,-12.1289,-12.1289,-11.9849,-11.7761,-11.5058,-11.5058,-11.4443,-11.3366,-11.3366,-11.2311,0.0,0.0,0.0,0.0,0.0,0.0,0.0,-9.8218,0.0,0.0,0.0,0.0,0.0,0.0,0.0,0.0,0.0,0.0,0.0,0.0,0.0,0.0,0.0,0.0,0.0,-14.4142,-14.4734,-14.6181,-14.3748,-14.4668,-15.0389,-14.9337,-14.8482,-14.8482,-14.7628,-14.7167,-14.7167,-14.7167,-14.7167,-14.7167,-14.7167,-14.7167,-14.7167,-14.7167,-14.7167,-14.7167,-14.7167,-14.7167,-14.7167,-14.7167,-14.7167,-14.7167,-14.7167,-14.7167,-14.6904,-14.4866,-14.3551,-14.2564,-14.0526,-13.9342,-13.8619,-13.8619,-13.8619,-13.8619,-13.8619,-13.8619,-13.8619,-13.8619,-13.8619,-13.8619,-13.8619,-13.8619,-13.8224,-13.6777,-13.5839,-13.49,-13.3619,-13.2713,-13.2179,-13.2344,-13.2344,-13.2344,-13.2344,-13.2344,-13.1658,-12.9528,-12.7862,-12.6135,-12.3954,-12.2311,-12.1289,-12.1289,-12.1289,-12.1289,-12.1289,-12.1289,-12.1289,-12.1289,-12.1289,-12.1289,-12.1289,-12.1289,-12.1289,-12.1289,-12.0034,-11.8375,-11.6409,-11.5672,-11.4996,-11.4443,-11.3041,-11.167,-8.2645,0.0,0.0,0.0,0.0,0.0,0.0,0.0,0.0,0.0,0.0,0.0,0.0,0.0,0.0,0.0,0.0,0.0,0.0,0.0,0.0,0.0,0.0,0.0,0.0,0.0,0.0,0.0,-14.4471,-14.5392,-15.131,-15.0981,-15.0324,-14.9535,-14.8417,-14.7562,-14.7167,-14.7167,-14.7167,-14.7167,-14.7167,-14.7167,-14.7167,-14.7167,-14.7167,-14.7167,-14.7167,-14.7167,-14.7167,-14.7167,-14.7167,-14.7167,-14.7167,-14.7167,-14.697,-14.5523,-14.4077,-14.263,-14.1249,-13.9802,-13.8619,-13.8619,-13.8619,-13.8619,-13.8619,-13.8619,-13.8619,-13.8619,-13.8619,-13.8619,-13.8619,-13.8619,-13.8356,-13.7304,-13.6272,-13.5131,-13.415,-13.3059,-13.2344,-13.2344,-13.2344,-13.2344,-13.2344,-13.2344,-13.1344,-12.82,-12.7264,-12.5782,-12.2499,-12.1611,-12.1289,-12.1289,-12.1289,-12.1289,-12.1289,-12.1289,-12.1289,-12.1289,-12.1289,-12.1289,-12.1289,-12.1289,-12.1105,-12.0832,-11.9849,-11.8621,-11.7208,-11.6655,-11.6041,-11.5242,-11.3194,-11.1417,0.0,0.0,0.0,0.0,0.0,0.0,-9.2332,0.0,0.0,0.0,0.0,0.0,0.0,0.0,0.0,0.0,0.0,0.0,0.0,0.0,0.0,0.0,0.0,0.0,0.0,0.0,0.0,0.0,-15.0981,-15.2823,-15.1639,-15.2888,-15.2362,-14.96,-14.9469,-14.868,-14.7167,-14.7167,-14.7167,-14.7167,-14.7167,-14.7167,-14.7167,-14.7167,-14.7167,-14.7167,-14.7167,-14.7167,-14.7167,-14.7167,-14.7167,-14.7167,-14.7167,-14.7167,-14.697,-14.5523,-14.4077,-14.263,-14.1249,-13.9802,-13.8619,-13.8619,-13.8619,-13.8619,-13.8619,-13.8619,-13.8619,-13.8619,-13.8619,-13.8619,-13.8619,-13.8619,-13.8619,-13.8553,-13.6999,-13.5463,-13.5396,-13.3793,-13.2344,-13.2344,-13.2344,-13.2344,-13.2344,-13.2344,-13.1736,-12.9839,-12.8031,-12.6222,-12.4383,-12.2499,-12.1289,-12.1289,-12.1289,-12.1289,-12.1289,-12.1289,-12.1289,-12.1289,-12.1289,-12.1289,-12.1289,-12.1289,-12.0709,-11.9419,-11.9358,-11.8621,-11.7208,-11.8559,-11.7884,-11.5303,-11.4168,-11.1945,-9.1849,-9.0576,-9.0173,0.0,-9.7146,-9.3257,-10.3582,0.0,0.0,0.0,0.0,0.0,0.0,0.0,0.0,0.0,0.0,0.0,0.0,0.0,0.0,0.0,0.0,0.0,0.0,0.0,0.0,0.0,0.0,0.0,-15.4072,-14.9403,-14.8285,-15.2231,-15.1376,-14.9666,-14.7167,-14.7167,-14.7167,-14.7167,-14.7167,-14.7167,-14.7167,-14.7167,-14.7167,-14.7167,-14.7167,-14.7167,-14.7167,-14.7167,-14.7167,-14.7167,-14.7167,-14.7167,-14.697,-14.5523,-14.4077,-14.263,-14.1249,-13.9802,-13.8619,-13.8619,-13.8619,-13.8619,-13.8619,-13.8619,-13.8619,-13.8619,-13.8619,-13.8619,-13.8619,-13.8619,-13.8443,-13.7714,-13.6506,-13.5279,-13.4606,-13.3428,-13.2344,-13.2344,-13.2344,-13.2344,-13.2344,-13.2344,-13.1344,-12.8284,-12.735,-12.5782,-12.2687,-12.1707,-12.1289,-12.1289,-12.1289,-12.1289,-12.1289,-12.1289,-12.1289,-12.1289,-12.1289,-12.1289,-12.1289,-12.1289,-12.1043,-12.0709,-12.0648,-11.9972,-11.8621,-11.8448,-11.7334,-11.5602,-11.3562,-11.1282,-9.5202,-9.4799,-9.5012,-10.6666,-10.2375,-9.8353,-10.9951,-11.4108,0.0,0.0,0.0,0.0,0.0,0.0,0.0,0.0,0.0,0.0,0.0,0.0,0.0,0.0,0.0,0.0,0.0,0.0,0.0,0.0,0.0,-14.7299,-15.4729,-15.0258,-14.9666,-15.4401,-15.2625,-15.0652,-14.8745,-14.7693,-14.7167,-14.7167,-14.7167,-14.7167,-14.7167,-14.7167,-14.7167,-14.7167,-14.7167,-14.7167,-14.7167,-14.7167,-14.7167,-14.7167,-14.7167,-14.7167,-14.7036,-14.6115,-14.4866,-14.3419,-14.1972,-14.0591,-13.9276,-13.8816,-13.8619,-13.8619,-13.8619,-13.8619,-13.8619,-13.8619,-13.8619,-13.8619,-13.8619,-13.8619,-13.8443,-13.778,-13.7215,-13.6326,-13.4527,-13.325,-13.2344,-13.2344,-13.2344,-13.219,-13.1501,-13.1423,-13.0163,-12.6485,-12.6022,-12.4863,-12.1707,-12.1289,-12.1289,-12.1289,-12.1289,-12.1289,-12.1289,-12.1289,-12.1289,-12.1289,-12.1289,-12.1289,-12.1289,-12.1289,-12.1043,-12.0648,-12.1139,-12.0955,-12.0095,-11.8979,-11.7523,-11.5799,-11.352,-11.1087,-9.5604,-9.8554,-10.0967,-10.7605,-10.6733,-10.5928,0.0,0.0,0.0,0.0,0.0,0.0,0.0,0.0,0.0,0.0,0.0,0.0,0.0,0.0,0.0,0.0,0.0,0.0,0.0,0.0,0.0,0.0,-15.1113,-15.3612,-15.3809,-15.5058,-15.5847,-15.5913,-15.3086,-15.1573,-15.1573,-14.8614,-14.7167,-14.7167,-14.7167,-14.7167,-14.7167,-14.7167,-14.7167,-14.7167,-14.7167,-14.7167,-14.7167,-14.7167,-14.7167,-14.7167,-14.7167,-14.7167,-14.7167,-14.7102,-14.6115,-14.4734,-14.3222,-14.1841,-14.0394,-13.9079,-13.8619,-13.8619,-13.8619,-13.8619,-13.8619,-13.8619,-13.8619,-13.8619,-13.8619,-13.8619,-13.8619,-13.8619,-13.8835,-13.8348,-13.538,-13.3617,-13.2545,-13.2411,-13.2344,-13.188,-13.0082,-12.9757,-12.8452,-12.4926,-12.4291,-12.3527,-12.1516,-12.1289,-12.1289,-12.1289,-12.1289,-12.1289,-12.1289,-12.1289,-12.1289,-12.1289,-12.1289,-12.1289,-12.1289,-12.1289,-12.0771,-11.9481,-12.0709,-12.1289,-12.1289,-12.0257,-11.8372,-11.5764,-11.3736,-11.1233,-10.1504,-10.2442,-10.3448,-12.0343,-11.7393,-11.3303,0.0,0.0,-12.4087,0.0,0.0,0.0,0.0,0.0,0.0,0.0,0.0,0.0,0.0,0.0,0.0,0.0,0.0,0.0,0.0,0.0,0.0,0.0,-14.9272,-15.1507,-15.3677,-15.4138,-15.4795,-15.5847,-15.3086,-15.1573,-15.1573,-14.8614,-14.7167,-14.7167,-14.7167,-14.7167,-14.7167,-14.7167,-14.7167,-14.7167,-14.7167,-14.7167,-14.7167,-14.7167,-14.7167,-14.7167,-14.7167,-14.7167,-14.7036,-14.5984,-14.4668,-14.3222,-14.1775,-14.0328,-13.9079,-13.875,-13.8619,-13.8619,-13.8619,-13.8619,-13.8619,-13.8619,-13.8619,-13.8619,-13.8619,-13.8619,-13.8619,-13.8619,-13.8301,-13.752,-13.5723,-13.5488,-13.5025,-13.2813,-13.2344,-13.219,-13.1802,-13.0565,-12.8869,-12.6572,-12.5043,-12.3527,-12.1516,-12.1289,-12.1289,-12.1289,-12.1289,-12.1289,-12.1289,-12.1289,-12.1289,-12.1289,-12.1289,-12.1289,-12.1289,-12.1289,-12.1105,-12.0832,-12.1105,-12.1289,-12.1289,-12.0257,-11.8079,-11.4649,-11.3343,-11.0898,-10.0498,-10.3783,-10.7806,-12.2689,-11.9873,-11.6991,-13.0332,-12.849,-12.5969,-13.3021,0.0,0.0,0.0,0.0,0.0,0.0,0.0,0.0,0.0,0.0,0.0,0.0,0.0,0.0,0.0,0.0,0.0,0.0,-14.8219,-15.0455,-15.2691,-15.3414,-15.4138,-15.4927,-15.2757,-15.131,-15.0652,-14.8351,-14.7167,-14.7167,-14.7167,-14.7167,-14.7167,-14.7167,-14.7167,-14.7167,-14.7167,-14.7167,-14.7167,-14.7167,-14.7167,-14.7102,-14.6444,-14.6247,-14.6049,-14.4603,-14.3945,-14.3485,-14.1446,-14.0591,-14.0263,-13.9013,-13.8619,-13.8619,-13.8619,-13.8619,-13.8619,-13.8619,-13.8619,-13.8619,-13.8619,-13.8619,-13.8619,-13.8814,-13.8756,-13.8135,-13.6256,-13.6356,-13.5897,-13.2947,-13.2344,-13.188,-13.0243,-12.9117,-12.7607,-12.4863,-12.3557,-12.2499,-12.142,-12.1289,-12.1289,-12.1289,-12.1289,-12.1289,-12.1289,-12.1289,-12.1289,-12.1289,-12.1289,-12.1289,-12.1289,-12.1289,-12.1289,-12.1289,-12.1289,-12.1289,-12.1289,-11.9258,-11.6889,-11.4262,-11.2158,-10.9776,-9.6408,-10.3381,-11.1627,-11.927,-11.9069,-11.9871,-13.085,0.0,-12.7078,0.0,-13.3537,0.0,0.0,0.0,0.0,0.0,0.0,0.0,0.0,0.0,0.0,0.0,0.0,0.0,0.0,0.0,0.0,0.0,-14.743,-14.96,-15.1244,-15.2691,-15.3612,-15.3809,-15.2362,-15.0981,-14.9798,-14.8022,-14.7167,-14.7167,-14.7167,-14.7167,-14.7167,-14.7167,-14.7167,-14.7167,-14.7167,-14.7167,-14.7167,-14.7167,-14.7167,-14.7036,-14.5589,-14.5063,-14.4866,-14.3156,-14.3485,-14.434,-14.1446,-14.1381,-14.2104,-13.9474,-13.8619,-13.8619,-13.8619,-13.8619,-13.8619,-13.8619,-13.8619,-13.8619,-13.8619,-13.8619,-13.8706,-13.9094,-13.9522,-13.9299,-13.6848,-13.6664,-13.5897,-13.2947,-13.2344,-13.1344,-12.82,-12.7264,-12.5693,-12.2216,-12.142,-12.1289,-12.1289,-12.1289,-12.1289,-12.1289,-12.1289,-12.1289,-12.1289,-12.1289,-12.1289,-12.1289,-12.1289,-12.1289,-12.1289,-12.1289,-12.1289,-12.1289,-12.1289,-12.1166,-12.0982,-11.8079,-11.5716,-11.3962,-11.1036,-10.872,-9.6408,-10.1839,-10.8811,-11.7393,-12.4499,-12.8766,-12.6609,-12.9103,-13.2337,-13.4251,-13.4379,-13.4195,0.0,0.0,0.0,0.0,0.0,0.0,0.0,0.0,0.0,0.0,0.0,0.0,0.0,0.0,0.0,0.0,0.0,-14.697,-14.9666,-15.1179,-15.2559,-15.3743,-15.2362,-15.1507,-15.1244,-14.8548,-14.7167,-14.7167,-14.7167,-14.7167,-14.7167,-14.7167,-14.7167,-14.7167,-14.7167,-14.7167,-14.7167,-14.7167,-14.7167,-14.7036,-14.5589,-14.5063,-14.4734,-14.2104,-14.2038,-14.2827,-14.0,-13.9934,-14.0854,-13.9145,-13.8619,-13.8619,-13.8619,-13.8619,-13.8619,-13.8619,-13.8619,-13.8619,-13.8619,-13.8619,-13.8706,-13.9094,-13.9522,-13.9383,-13.7266,-13.6835,-13.5897,-13.2947,-13.2344,-13.219,-13.1501,-12.8952,-12.6135,-12.4017,-12.2311,-12.1289,-12.1289,-12.1289,-12.1289,-12.1289,-12.1289,-12.1289,-12.1289,-12.1289,-12.1289,-12.1289,-12.1289,-12.1289,-12.1289,-12.1289,-12.1289,-12.1289,-12.1289,-12.0832,-11.9665,-11.904,-11.6744,-11.2705,-11.2082,-10.9656,-10.0096,-10.1571,-10.2576,-10.7605,-11.3169,-11.953,-12.7254,-12.9029,-12.9955,-13.2883,-13.0608,-12.9006,-13.2254,0.0,0.0,0.0,0.0,0.0,0.0,0.0,0.0,0.0,0.0,0.0,0.0,0.0,0.0,0.0,0.0,-14.6312,-14.9337,-15.085,-15.1573,-15.1507,-15.1573,-15.085,-14.9272,-14.7891,-14.7167,-14.7167,-14.7167,-14.7167,-14.7167,-14.7167,-14.7167,-14.7167,-14.7167,-14.7167,-14.7167,-14.7167,-14.7167,-14.7036,-14.5589,-14.4603,-14.3616,-14.1512,-14.1183,-14.1446,-13.9342,-13.9539,-14.0526,-13.9079,-13.8619,-13.8619,-13.8619,-13.8619,-13.8619,-13.8619,-13.8619,-13.8619,-13.8619,-13.8619,-13.8793,-13.9417,-13.9161,-13.8368,-13.6891,-13.6074,-13.5025,-13.2813,-13.2344,-13.2035,-13.0737,-12.8303,-12.5605,-12.2719,-12.1707,-12.1289,-12.1289,-12.1289,-12.1289,-12.1289,-12.1289,-12.1289,-12.1289,-12.1289,-12.1289,-12.1289,-12.1289,-12.1289,-12.1289,-12.1289,-12.1289,-12.1289,-12.1289,-12.0709,-11.9358,-11.7517,-11.5227,-11.225,-10.9826,-10.7472,-10.1235,-10.023,-9.8084,-10.1772,-10.2979,-10.7889,-12.5308,-12.5835,-12.4408,-13.0435,-12.7882,-12.591,-13.0503,-13.0791,-13.0202,0.0,0.0,0.0,0.0,0.0,0.0,0.0,0.0,0.0,0.0,0.0,0.0,0.0,0.0,0.0,-14.8351,-15.0192,-15.0652,-14.9535,-15.0587,-14.9995,-14.7693,-14.7299,-14.7167,-14.7167,-14.7167,-14.7167,-14.7167,-14.7167,-14.7167,-14.7167,-14.7167,-14.7167,-14.7167,-14.7167,-14.697,-14.6575,-14.5129,-14.3682,-14.2235,-14.0789,-14.046,-14.0526,-13.9145,-13.9539,-14.0526,-13.9079,-13.8619,-13.8619,-13.8619,-13.8619,-13.8619,-13.8619,-13.8619,-13.8619,-13.8619,-13.8619,-13.8727,-13.9191,-13.8449,-13.7288,-13.6048,-13.5179,-13.4221,-13.2679,-13.2344,-13.1736,-12.995,-12.7647,-12.5185,-12.2281,-12.155,-12.1289,-12.1289,-12.1289,-12.1289,-12.1289,-12.1289,-12.1289,-12.1289,-12.1289,-12.1289,-12.1289,-12.1289,-12.1289,-12.1289,-12.1289,-12.1289,-12.1289,-12.1289,-12.0429,-11.8583,-11.5962,-11.34,-11.1127,-10.7429,-10.5241,-9.3672,-9.5537,-9.976,-11.0621,-10.747,-10.4227,-11.3839,-11.5186,-11.7378,-12.808,0.0,-13.169,-13.1419,-13.1578,-13.1385,0.0,0.0,0.0,0.0,0.0,0.0,0.0,0.0,0.0,0.0,0.0,0.0,0.0,0.0,0.0,0.0,-14.8154,-14.96,-14.9469,-14.96,-14.9535,-14.9272,-14.7891,-14.7167,-14.7167,-14.7167,-14.7167,-14.7167,-14.7167,-14.7167,-14.7167,-14.7167,-14.7167,-14.7167,-14.7167,-14.6378,-14.5063,-14.3616,-14.217,-14.0789,-13.9342,-13.9605,-14.0526,-13.9145,-13.9539,-14.0526,-13.9079,-13.8619,-13.8619,-13.8619,-13.8619,-13.8619,-13.8619,-13.8619,-13.8619,-13.8619,-13.8619,-13.8377,-13.7509,-13.7468,-13.6956,-13.4647,-13.4455,-13.4221,-13.2679,-13.2344,-13.2267,-13.2113,-12.8804,-12.6246,-12.631,-12.3464,-12.1289,-12.1289,-12.1289,-12.1289,-12.1289,-12.1289,-12.1289,-12.1289,-12.1289,-12.1289,-12.1289,-12.1289,-12.1289,-12.1289,-12.1289,-12.1289,-12.1289,-12.1289,-11.9617,-11.6137,-11.592,-11.2882,-10.741,-10.6985,-10.5007,-9.1782,-9.2265,-9.3538,-10.0909,-10.12,-10.0849,-10.5076,-10.8413,-11.3286,0.0,-12.4786,-12.4358,-12.0755,-12.5914,0.0,0.0,0.0,0.0,0.0,0.0,0.0,0.0,0.0,0.0,0.0,0.0,0.0,0.0,0.0,0.0,0.0,-14.7891,-14.9074,-14.8088,-14.9009,-14.9009,-14.8088,-14.743,-14.7167,-14.7167,-14.7167,-14.7167,-14.7167,-14.7167,-14.7167,-14.7167,-14.7167,-14.7167,-14.7102,-14.6247,-14.5523,-14.4866,-14.3419,-14.1972,-14.0657,-14.0131,-13.9737,-13.9408,-13.8816,-13.9013,-13.9342,-13.8816,-13.8619,-13.8619,-13.8619,-13.8619,-13.8619,-13.8619,-13.8619,-13.8619,-13.8619,-13.8619,-13.8027,-13.5981,-13.5249,-13.4829,-13.3794,-13.3417,-13.3081,-13.2478,-13.2344,-13.158,-12.9052,-12.7221,-12.5452,-12.3339,-12.1774,-12.0938,-12.1289,-12.1289,-12.1289,-12.1289,-12.1289,-12.1289,-12.1289,-12.1289,-12.1289,-12.1289,-12.1289,-12.1289,-12.1289,-12.1289,-12.1289,-12.1289,-12.1289,-11.9495,-11.5859,-11.4441,-11.1412,-10.6807,-10.4654,-10.2806,-8.8296,-8.8229,-8.8296,-9.3538,-9.5079,-9.6952,-10.322,-10.4812,-10.755,-11.6586,-12.0971,-12.1596,-11.6122,0.0,0.0,0.0,0.0,0.0,0.0,0.0,0.0,0.0,0.0,0.0,0.0,0.0,0.0,0.0,0.0,0.0,0.0,-14.6378,-14.7233,-14.651,-14.7562,-14.7628,-14.651,-14.6904,-14.7167,-14.7167,-14.7167,-14.7167,-14.7167,-14.7167,-14.7167,-14.7167,-14.7167,-14.7167,-14.7102,-14.6049,-14.5195,-14.4274,-14.2761,-14.1381,-14.0131,-14.0131,-13.9474,-13.8619,-13.8619,-13.8619,-13.8619,-13.8619,-13.8619,-13.8619,-13.8619,-13.8619,-13.8619,-13.8619,-13.829,-13.7961,-13.7961,-13.7632,-13.6712,-13.4382,-13.3578,-13.3301,-13.2916,-13.2615,-13.2344,-13.2344,-13.2344,-13.1266,-12.7562,-12.6531,-12.5095,-12.187,-12.0877,-12.0744,-12.1227,-12.1289,-12.1289,-12.1289,-12.1289,-12.1289,-12.1289,-12.1289,-12.1289,-12.1289,-12.1289,-12.1289,-12.1289,-12.1289,-12.1289,-12.1289,-12.1289,-11.9303,-11.5322,-11.3327,-11.0126,-10.5841,-10.2864,-10.1268,-8.1726,-8.2846,-8.5798,-9.3056,-9.1153,-9.2286,-11.0273,-10.4589,-9.9301,-11.2446,-12.2637,-12.7529,-12.2168,-12.2442,0.0,0.0,0.0,0.0,0.0,0.0,0.0,0.0,0.0,0.0,0.0,0.0,0.0,0.0,0.0,0.0,0.0,-14.2893,-14.3551,-14.4997,-14.5063,-14.5063,-14.5063,-14.6444,-14.7167,-14.7167,-14.7167,-14.7167,-14.7167,-14.7167,-14.7167,-14.7167,-14.7167,-14.7167,-14.7167,-14.7102,-14.5458,-14.2761,-14.1315,-13.9868,-13.8619,-13.8619,-13.8619,-13.8619,-13.8619,-13.8619,-13.8619,-13.8619,-13.8619,-13.8619,-13.8619,-13.8619,-13.8619,-13.8619,-13.7567,-13.6449,-13.6449,-13.5397,-13.4034,-13.3017,-13.3029,-13.3115,-13.2046,-13.2102,-13.2344,-13.2344,-13.2344,-13.1658,-12.9299,-12.7392,-12.5541,-12.3679,-12.1774,-12.0744,-12.1227,-12.1289,-12.1289,-12.1289,-12.1289,-12.1289,-12.1289,-12.1289,-12.1289,-12.1289,-12.1289,-12.1289,-12.1289,-12.1289,-12.1289,-12.1289,-12.1289,-11.9014,-11.4359,-11.304,-10.9305,-10.3457,-10.2083,-10.0803,-8.1639,-8.2779,-8.6519,-9.7327,-9.2683,-9.008,-10.8129,-10.3665,-10.0348,-11.6534,-11.3788,-10.867,-10.9353,0.0,0.0,0.0,-12.5204,0.0,-13.0202,-13.1385,0.0,0.0,0.0,0.0,0.0,0.0,0.0,0.0,0.0,0.0,0.0,-14.2301,-14.309,-14.3551,-14.3551,-14.4011,-14.5063,-14.5458,-14.6181,-14.7102,-14.6181,-14.6181,-14.7167,-14.7167,-14.7167,-14.7167,-14.7167,-14.7167,-14.7102,-14.6115,-14.4603,-14.263,-14.0197,-13.9013,-13.8619,-13.8619,-13.8619,-13.8619,-13.8619,-13.8619,-13.8619,-13.8619,-13.7961,-13.7106,-13.7106,-13.6449,-13.566,-13.566,-13.5331,-13.4739,-13.3687,-13.2372,-13.1271,-13.13,-13.1572,-13.1918,-13.178,-13.2102,-13.2344,-13.2344,-13.1042,-12.9381,-12.7392,-12.5477,-12.3553,-12.1679,-12.1227,-12.1131,-12.1227,-12.1289,-12.1289,-12.1289,-12.1289,-12.1289,-12.1289,-12.1289,-12.1289,-12.1289,-12.1289,-12.1289,-12.1289,-12.1289,-12.1289,-12.1289,-11.9481,-11.7125,-11.4262,-11.019,-10.66,-10.3304,-10.1152,-9.993,-8.1458,-8.2377,-8.5666,-9.6503,-9.1286,-8.8362,-10.6784,-10.0609,-9.6205,-11.4431,-10.9309,-10.2783,0.0,0.0,-11.8365,-12.2048,-12.4875,-12.7374,-12.9544,-13.0662,-13.1714,-13.3226,0.0,0.0,0.0,0.0,0.0,0.0,0.0,0.0,-14.0723,-14.1052,-14.1512,-14.2038,-14.2038,-14.2498,-14.3419,-14.3945,-14.4668,-14.5523,-14.4603,-14.4668,-14.5523,-14.6115,-14.6312,-14.6378,-14.6904,-14.6838,-14.6247,-14.5392,-14.3879,-14.1841,-14.0131,-13.9079,-13.8619,-13.8619,-13.829,-13.7764,-13.7764,-13.7435,-13.6975,-13.6975,-13.6383,-13.5594,-13.5594,-13.5002,-13.4344,-13.4344,-13.3884,-13.3095,-13.1583,-13.0613,-13.0265,-13.0749,-13.1149,-13.1556,-13.1947,-13.219,-13.2344,-13.2344,-13.0644,-12.8554,-12.6531,-12.4736,-12.2937,-12.078,-12.0938,-12.1289,-12.1289,-12.1289,-12.1289,-12.1289,-12.1289,-12.1289,-12.1289,-12.1289,-12.1289,-12.1289,-12.1289,-12.1289,-12.1289,-12.1289,-12.1139,-12.0586,-11.8375,-11.6028,-11.3543,-10.9231,-10.5796,-10.3304,-10.1268,-9.9989,-8.1438,-8.1773,-8.3676,-9.2276,-8.8326,-8.7379,-10.6242,-9.6401,-8.8732,-10.8008,-10.782,-10.6192,0.0,-11.1658,-11.2052,-11.9417,-12.1456,-12.3757,-12.8558,0.0,-12.9873,-13.1188,-13.2766,0.0,0.0,0.0,0.0,0.0,0.0,0.0,-14.0526,-13.9342,-13.9211,-14.0526,-14.0591,-14.0657,-14.0723,-14.2038,-14.2367,-14.1775,-14.2367,-14.2498,-14.2104,-14.4011,-14.4866,-14.4931,-14.5721,-14.5523,-14.4668,-14.4011,-14.2433,-14.0394,-14.0328,-13.9474,-13.829,-13.829,-13.7435,-13.6251,-13.6251,-13.5397,-13.4344,-13.4344,-13.4279,-13.4147,-13.4147,-13.4081,-13.4016,-13.4016,-13.2963,-13.1517,-13.0202,-13.0265,-13.0749,-13.1149,-13.1478,-13.1947,-13.2334,-13.2344,-13.2344,-13.2344,-13.0724,-12.8703,-12.6444,-12.489,-12.3186,-12.078,-12.0938,-12.1289,-12.1289,-12.1289,-12.1289,-12.1289,-12.1289,-12.1289,-12.1289,-12.1289,-12.1289,-12.1289,-12.1289,-12.1289,-12.1289,-12.1166,-12.0648,-11.9358,-11.7638,-11.5358,-11.2405,-10.9378,-10.6389,-10.3362,-10.2083,-10.0803,-8.2712,-8.2578,-8.4847,-9.8033,-9.2638,-8.8849,-10.6572,-9.6723,-8.9139,-10.8077,-10.0882,-9.4632,0.0,-10.4819,0.0,-11.3236,-12.2968,-12.8032,0.0,0.0,0.0,0.0,-12.6716,-12.8163,-12.961,0.0,0.0,0.0,0.0,0.0,-13.9079,-13.8816,-13.875,-13.9079,-13.9145,-13.9671,-14.0723,-14.1052,-13.7895,-13.132,-13.8027,-13.8882,-13.4739,-14.0657,-14.3353,-14.309,-13.783,-13.7895,-14.1249,-13.4476,-13.4016,-13.7304,-13.6251,-13.566,-13.5331,-13.5331,-13.5133,-13.4805,-13.4805,-13.4607,-13.4344,-13.4344,-13.349,-13.2503,-13.2503,-13.178,-13.0925,-13.0925,-13.0662,-13.0267,-12.9939,-13.0265,-13.0749,-13.1149,-13.1478,-13.1947,-13.2334,-13.2344,-13.2344,-13.2344,-12.9446,-12.6617,-12.5743,-12.3247,-12.107,-12.0001,-12.0744,-12.1289,-12.1289,-12.1289,-12.1289,-12.1289,-12.1289,-12.1289,-12.1289,-12.1289,-12.1289,-12.1289,-12.1289,-12.1289,-12.1289,-12.0341,-11.9665,-11.9358,-11.4935,-11.2463,-11.231,-10.7583,-10.467,-10.3362,-10.2083,-10.0803,-8.2444,-8.3316,-8.5983,-9.5344,-9.0146,-8.6,-9.8281,-9.1706,-8.7604,-10.3897,-10.0549,-9.6796,0.0,0.0,-10.9685,-10.6989,0.0,-12.1719,-11.7773,-12.0272,0.0,0.0,0.0,-12.8032,-12.6848,-13.3358,-13.7895,0.0,0.0,-13.8619,-13.8619,-13.8619,-13.8619,-13.8619,-13.7961,-13.7961,-13.875,-13.9408,-13.5725,-12.7769,-13.5923,-13.6317,-13.0267,-13.8224,-14.1841,-14.1644,0.0,-13.7435,-13.9342,-13.395,-13.3161,-13.5397,-13.4607,-13.4344,-13.4344,-13.4344,-13.4344,-13.4213,-13.349,-13.2832,-13.2306,-13.2306,-13.1714,-13.0991,-13.0991,-13.0465,-12.9873,-12.9873,-12.9873,-12.9873,-13.0118,-13.0588,-13.0989,-13.1399,-13.1791,-13.2179,-13.2334,-13.2344,-13.2344,-13.2344,-12.8969,-12.6094,-12.6071,-12.2968,-12.055,-12.0452,-12.0938,-12.1289,-12.1289,-12.1289,-12.1289,-12.1289,-12.1289,-12.1289,-12.1289,-12.1289,-12.1289,-12.1289,-12.1289,-12.0982,-12.0464,-11.925,-11.7776,-11.5882,-11.1946,-10.9548,-10.89,-10.5954,-10.3857,-10.249,-10.2373,-10.1326,-8.1974,-8.3853,-8.6568,-8.9929,-8.5779,-8.2522,-8.8821,-8.6072,-8.574,-9.8115,-10.1728,-10.2649,-10.2649,-11.1724,-11.4748,-10.1399,-10.5608,-11.1,0.0,0.0,0.0,-11.317,0.0,-12.8558,-12.5862,-13.2372,-13.7304,-13.8553,-13.8619,-13.8619,-13.8619,-13.8619,-13.8619,-13.8619,-13.7435,-13.6646,-13.6449,-13.7632,-13.4607,-12.744,-13.5002,-13.4805,-12.7966,-13.6514,-14.0394,-14.0328,0.0,-13.8553,-13.8093,-13.5528,-13.4279,-13.395,-13.3753,-13.3621,-13.3621,-13.3621,-13.3621,-13.3424,-13.2109,-13.0859,-12.9873,-12.9873,-12.9873,-12.9873,-12.9873,-12.9873,-12.9873,-12.9873,-12.9873,-13.0036,-13.0508,-13.0989,-13.1399,-13.1713,-13.2035,-13.2344,-13.2344,-13.2344,-13.2267,-13.2035,-12.8804,-12.6246,-12.6398,-12.3124,-12.0647,-12.1131,-12.1227,-12.1289,-12.1289,-12.1289,-12.1289,-12.1289,-12.1289,-12.1289,-12.1289,-12.1289,-12.1289,-12.1289,-12.1289,-12.0771,-11.9419,-11.8344,-11.5946,-11.1941,-10.9301,-10.7063,-10.5214,-10.4978,-10.3715,-10.1792,-10.2897,-10.2199,-8.3249,-8.4065,-8.5448,-8.9441,-8.6665,-8.4556,-9.0737,-8.7856,-8.6352,-9.4561,-9.6402,-9.6599,-9.6599,-9.8243,-9.9164,-9.7914,-9.9887,-10.4096,-11.146,-11.4354,-11.4946,-11.2776,0.0,0.0,-12.5138,-13.3292,-13.8356,-13.8619,-13.8619,-13.8619,-13.8619,-13.8619,-13.8619,-13.8619,-13.8421,-13.7698,-13.6449,-13.6646,-13.3095,-12.5993,-13.4542,-13.4805,-12.7966,-13.5462,-13.8947,-13.8619,0.0,0.0,-13.6186,-12.8558,-12.8163,-13.224,-13.1056,-13.053,-13.053,-13.053,-13.053,-13.053,-13.0267,-13.007,-12.9873,-12.9873,-12.9873,-12.9873,-12.9873,-12.9873,-12.9873,-12.9873,-13.0118,-13.0508,-13.0588,-13.1228,-13.1713,-13.1791,-13.2035,-13.2344,-13.2344,-13.2344,-13.1958,-13.0324,-12.7966,-12.5718,-12.4165,-12.2059,-12.055,-12.0647,-12.1034,-12.1289,-12.1289,-12.1289,-12.1289,-12.1289,-12.1289,-12.1289,-12.1289,-12.1289,-12.1289,-12.1289,-12.1289,-12.0771,-11.9419,-11.8344,-11.5987,-11.2356,-10.8513,-10.6646,-10.6571,-10.5391,-10.4185,-10.3071,-10.3304,-10.3188,-8.3377,-8.4309,-8.5381,-8.6165,-8.4696,-8.3571,-8.6144,-8.5478,-8.6221,-9.2785,-9.4692,-9.5284,-9.5284,-9.7848,-9.9427,-9.7651,-10.1268,-10.5937,-11.0737,0.0,-11.6853,-11.2973,0.0,0.0,0.0,0.0,-13.5725,-13.7304,-13.7435,-13.7764,-13.8619,-13.8619,-13.8619,-13.8619,-13.783,-13.7501,-13.7632,-13.7632,-13.395,-12.6782,-13.4805,-13.27,-12.2179,-13.349,-13.6449,-13.27,-13.2503,-13.395,-13.5988,-13.0399,-12.961,-13.1846,-13.0465,-12.9873,-12.9873,-12.9873,-12.9873,-12.9873,-12.9873,-12.9873,-12.9873,-12.9873,-12.9873,-12.9873,-12.9873,-12.9873,-12.9873,-12.9873,-13.0265,-13.0669,-13.0909,-13.132,-13.1869,-13.2102,-13.219,-13.2344,-13.2344,-13.2344,-13.1736,-12.9691,-12.7306,-12.5274,-12.3771,-12.1584,-12.0355,-12.0841,-12.1131,-12.1289,-12.1289,-12.1289,-12.1289,-12.1289,-12.1289,-12.1289,-12.1289,-12.1289,-12.1289,-12.1289,-12.0072,-11.9207,-11.8536,-11.6179,-11.3796,-11.154,-10.7055,-10.417,-10.2851,-10.3612,-10.3483,-10.2373,-10.3769,-10.406,-8.5242,0.0,-8.9317,-8.7278,-8.6019,-8.5081,0.0,-8.4733,-8.6209,-9.0681,-9.3574,-9.4824,-9.3443,-9.798,-10.0413,-9.5613,-10.2123,-10.7778,-10.7844,-11.4157,0.0,-11.3499,0.0,0.0,0.0,-13.0004,-13.349,-13.5791,-13.6251,-13.6909,-13.8027,-13.8421,-13.8619,-13.8619,-13.7501,-13.7501,-13.8619,-13.8619,-13.5791,-13.0333,-13.5923,-13.1846,-11.9812,-13.2766,-13.4607,-12.8032,-13.4279,-13.6975,-13.6712,-13.3753,-13.2503,-13.2372,-13.0596,-12.9873,-12.9873,-12.9873,-12.9873,-12.9873,-12.9873,-12.9873,-12.9873,-12.9873,-12.9873,-12.9873,-12.9873,-12.9873,-12.9873,-12.9955,-13.0427,-13.0829,-13.1241,-13.1635,-13.2025,-13.2267,-13.2344,-13.2344,-13.2344,-13.2344,-13.158,-12.8738,-12.6704,-12.4826,-12.303,-12.1105,-12.0099,-12.1131,-12.1289,-12.1289,-12.1289,-12.1289,-12.1289,-12.1289,-12.1289,-12.1289,-12.1289,-12.1289,-12.1008,-12.0509,-11.8796,-11.7462,-11.6567,-11.3616,-11.1458,-11.0386,-10.6384,-10.3013,-10.0454,-10.2432,-10.2897,-10.1966,-10.4293,-10.4991,0.0,-9.6691,-10.0306,-9.8432,-9.5523,-9.2958,-9.2449,-8.93,0.0,-8.7119,-9.147,-9.364,-8.8303,-9.1996,-9.4035,-8.8369,-9.8046,-10.4885,0.0,-10.6594,0.0,0.0,0.0,0.0,0.0,-13.3884,-13.4279,-13.4476,-13.566,-13.6449,-13.658,-13.7895,-13.8619,-13.8619,-13.8553,-13.8553,-13.8619,-13.8619,-13.8356,-13.783,-13.8356,-13.4476,-12.7177,-13.5068,-13.4607,0.0,-13.5331,-13.8487,-13.8224,-13.5331,-13.4147,-13.3884,-13.0991,-12.9873,-12.9873,-12.9873,-12.9873,-12.9873,-12.9873,-12.9873,-12.9873,-12.9873,-12.9873,-12.9873,-12.9873,-12.9873,-12.9955,-13.0427,-13.0829,-13.1241,-13.1635,-13.2102,-13.2344,-13.2344,-13.2344,-13.2344,-13.2344,-13.2344,-13.1187,-12.7135,-12.5831,-12.4375,-12.1201,-12.0196,-12.0099,-12.1131,-12.1289,-12.1289,-12.1289,-12.1289,-12.1289,-12.1289,-12.1289,-12.1289,-12.1289,-12.1289,-12.0387,-11.8141,-11.7862,-11.6229,-11.286,-11.1502,-11.0268,-10.8873,-10.7573,-10.5747,-10.313,-10.3304,-10.3304,-10.3304,-10.47,-10.598,-9.5448,-9.9694,-10.3518,-10.2829,-10.1387,-9.9149,-9.5344,-9.318,-9.101,-8.7448,-8.8435,-8.9234,-8.7119,-8.8501,-9.0352,-9.1799,-9.7651,-10.3964,0.0,0.0,0.0,0.0,0.0,0.0,0.0,0.0,-12.8032,-13.2503,-13.007,-13.0728,-13.612,-13.6975,-13.7238,-13.7238,-13.8158,-13.8619,-13.8619,-13.8619,-13.8619,-13.8619,-13.8619,-13.4805,-12.7966,-13.5265,-13.4147,-12.6848,-13.5068,-13.5528,0.0,-13.3292,-13.1648,-12.7703,-12.9281,-12.9873,-12.9873,-12.9873,-12.9873,-12.9873,-12.9873,-12.9873,-12.9873,-12.9873,-12.9873,-12.9873,-12.9873,-13.0102,-13.0427,-13.0909,-13.1241,-13.1635,-13.1791,-13.2102,-13.2344,-13.2344,-13.2344,-13.2344,-13.2344,-13.1501,-12.9773,-12.6704,-12.5095,-12.3339,-12.0973,-12.0355,-12.0452,-12.1131,-12.1289,-12.1289,-12.1289,-12.1289,-12.1289,-12.1289,-12.1289,-12.1289,-12.1289,-12.0744,-11.9551,-11.7923,-11.5813,-11.3676,-11.1502,-10.9604,-10.8314,-10.7846,-10.6698,-10.5224,-10.3362,-10.2548,-10.2606,-10.342,-10.5573,-10.6387,-10.271,-10.6838,-11.0439,-11.0632,-10.8642,-10.5213,-9.9361,0.0,-9.364,-8.7908,-8.6724,-8.6724,-8.6724,-8.6724,-8.8632,-9.4298,-9.7257,0.0,0.0,0.0,0.0,0.0,0.0,0.0,0.0,0.0,-12.6059,-13.0925,-12.8097,-12.8755,-13.4739,-13.5923,-13.6251,-13.5791,-13.6712,-13.7501,-13.7961,-13.7961,-13.7961,-13.7961,-13.8421,-13.4344,-12.6585,-13.441,-13.3424,-12.5993,-13.3884,-13.3095,-12.6585,-13.1583,-12.961,-12.3889,-12.8229,-12.9873,-12.9873,-12.9873,-12.9873,-12.9873,-12.9873,-12.9873,-12.9873,-12.9873,-12.9873,-12.9873,-13.0036,-13.0427,-13.0829,-13.1149,-13.1478,-13.1791,-13.1947,-13.1724,-13.1501,-13.1501,-13.1108,-13.0644,-13.0644,-12.9676,-12.8051,-12.5477,-12.4165,-12.2751,-12.0586,-12.0452,-12.0647,-12.1227,-12.1289,-12.1289,-12.1289,-12.1289,-12.1289,-12.1289,-12.1289,-12.1289,-12.1289,-11.9928,-11.8396,-11.6773,-11.3855,-11.1371,-10.9781,-10.8118,-10.7259,-10.7259,-10.6445,-10.5107,-10.3362,-10.249,-10.2315,-10.2839,-10.5049,-10.5379,-11.4376,-11.9224,-12.2637,-12.3254,-11.8036,-11.1132,0.0,0.0,-9.3706,-8.7908,-8.6724,-8.6724,-8.6724,-8.6724,-8.8632,-9.4363,0.0,0.0,-10.7318,0.0,0.0,0.0,0.0,0.0,0.0,0.0,-12.9807,-12.9807,-13.1056,0.0,-13.1977,-13.4805,-13.5725,-13.4344,-13.4344,-13.5002,-13.6383,-13.6383,-13.6383,-13.6449,-13.7895,-13.3292,-12.3889,-13.2503,-13.2503,-12.5993,-13.178,-13.1714,0.0,-13.0728,-12.8558,-12.3757,-12.8163,-12.9873,-12.9873,-12.9873,-12.9873,-12.9873,-12.9873,-12.9873,-12.9873,-12.9873,-12.9873,-12.9955,-13.0508,-13.0909,-13.1162,-13.1228,-13.1478,-13.1869,-13.2267,-13.1029,-12.9676,-12.9676,-12.8284,-12.6919,-12.6919,-12.6919,-12.5983,-12.2999,-12.2968,-12.2657,-12.0196,-12.0159,-12.0744,-12.1227,-12.1289,-12.1289,-12.1289,-12.1289,-12.1289,-12.1289,-12.1289,-12.1289,-12.1227,-11.9075,-11.6773,-11.4419,-11.2096,-10.9781,-10.7416,-10.7259,-10.7259,-10.7259,-10.7259,-10.598,-10.3362,-10.3362,-10.2722,-10.1501,-10.2781,-10.2639,-11.0309,-11.6986,-12.4463,-12.3626,-12.185,-11.7379,0.0,0.0,-9.8638,-8.8764,-8.6724,-8.7053,-8.7985,-8.7327,-8.8895,0.0,0.0,-10.2517,-11.2841,0.0,0.0,0.0,0.0,0.0,0.0,0.0,0.0,-12.3823,-12.4218,-12.6651,-13.1714,-13.2832,-13.3095,-13.27,-13.3753,-13.4542,-13.4936,-13.4936,-13.4936,-13.4936,-13.5397,-13.4016,-13.1188,-13.3753,-13.3161,-13.0267,-13.3095,-12.7769,0.0,-12.7834,-12.5599,-11.6721,-12.619,-12.9873,-12.9873,-12.9873,-12.9873,-12.9873,-12.9873,-12.9873,-12.9873,-12.9873,-13.0102,-13.0508,-13.1241,-13.1556,-13.1713,-13.1947,-13.2179,-13.219,-13.2344,-13.1029,-12.9282,-12.8031,-12.735,-12.6919,-12.6919,-12.5934,-12.4592,-12.3277,-12.2375,-12.155,-12.055,-12.0744,-12.1131,-12.1227,-12.1289,-12.1289,-12.1289,-12.1289,-12.1289,-12.1289,-12.1289,-12.0955,-12.0034,-11.7911,-11.5633,-11.3064,-11.084,-10.8994,-10.7318,-10.7259,-10.7259,-10.7259,-10.6387,-10.5107,-10.3362,-10.249,-10.185,-10.1501,-10.076,-10.0628,-11.509,-12.0072,-12.5335,-12.4546,-12.3889,-12.0667,-10.9882,0.0,0.0,-9.1996,-8.8303,-8.759,-9.0812,-9.0681,-9.2456,0.0,0.0,0.0,0.0,0.0,0.0,0.0,0.0,0.0,0.0,0.0,0.0,-12.4546,-12.4678,-12.6585,-13.0925,-13.1122,-13.1122,-13.1122,-13.2275,-13.2999,-13.3358,-13.3759,-13.3759,-13.3424,-13.4184,-13.3855,-13.2569,-13.3161,-13.2898,-13.2043,-13.2538,-12.6823,0.0,-12.7655,-12.5686,-11.743,-12.6809,-13.0361,-13.0361,-13.0199,-13.0199,-13.0361,-13.0265,-13.0199,-13.0361,-13.0361,-13.0683,-13.1162,-13.1635,-13.1947,-13.2035,-13.2334,-13.2344,-13.2344,-13.2344,-13.158,-13.0082,-12.7521,-12.5782,-12.4682,-12.4682,-12.3833,-12.2813,-12.2281,-12.1741,-12.1131,-12.0647,-12.0938,-12.1289,-12.1289,-12.1289,-12.1289,-12.1289,-12.1289,-12.1289,-12.1289,-12.0894,-12.0027,-11.8788,-11.6217,-11.3888,-11.1889,-10.9702,-10.8074,-10.7318,-10.7259,-10.7259,-10.7259,-10.6038,-10.47,-10.3362,-10.152,-10.022,-9.9759,-9.8704,-9.8652,-12.433,-12.5818,-12.5796,-12.5796,-12.4678,-12.1587,-11.3696,0.0,0.0,-9.5744,-9.0286,-8.8369,-9.3706,-9.4692,0.0,0.0,0.0,-10.3043,0.0,0.0,0.0,0.0,0.0,0.0,0.0,0.0,0.0,0.0,-12.9084,-12.9281,-12.9873,-12.9873,-12.9873,-12.9873,-13.0346,-13.1021,-13.1945,-13.2749,-13.2683,-13.1863,-13.3727,-13.2935,-13.002,-13.1271,-13.1945,-13.188,-13.1036,-12.809,0.0,-12.9145,-12.7785,-12.3001,-12.8904,-13.1228,-13.1228,-13.0829,-13.0909,-13.1082,-13.0829,-13.0909,-13.1228,-13.1228,-13.1478,-13.1869,-13.1869,-13.2102,-13.2344,-13.2344,-13.2344,-13.2344,-13.219,-13.2035,-13.1029,-12.7521,-12.3862,-12.1289,-12.1289,-12.1289,-12.1131,-12.0647,-12.0938,-12.1131,-12.0647,-12.0938,-12.1289,-12.1289,-12.1289,-12.1289,-12.1289,-12.1289,-12.1227,-12.1105,-12.0,-11.8761,-11.7498,-11.4205,-11.177,-11.0682,-10.849,-10.7259,-10.7259,-10.7259,-10.7259,-10.7259,-10.5669,-10.4296,-10.3173,-10.021,-9.8042,-9.6964,-9.6559,-9.6374,-11.989,-12.2991,-12.7242,-12.7242,-12.619,-12.2048,-11.0211,-10.5674,0.0,0.0,0.0,-8.7448,-8.976,0.0,-9.41,0.0,0.0,0.0,0.0,0.0,0.0,0.0,0.0,0.0,0.0,0.0,0.0,0.0,-12.31,-12.5072,-12.961,-12.9873,-13.0036,-13.0427,-13.0588,-13.0882,-13.1387,-13.1547,-13.1613,-13.1387,-13.1799,-13.1666,-13.0989,-13.1254,-13.1387,-13.1387,-13.1202,-12.7963,-12.3184,-12.8904,-12.7785,-12.3001,-12.8904,-13.1228,-13.1162,-13.1149,-13.1082,-13.1162,-13.1149,-13.1082,-13.1228,-13.1228,-13.1713,-13.2257,-13.2257,-13.2334,-13.2344,-13.2344,-13.2344,-13.2035,-13.0565,-12.9117,-12.7521,-12.5312,-12.3062,-12.1289,-12.1289,-12.1289,-12.1131,-12.0647,-12.0938,-12.1131,-12.0647,-12.0938,-12.1289,-12.1289,-12.1289,-12.1289,-12.1289,-12.1289,-12.0955,-11.9911,-11.8814,-11.7204,-11.4794,-11.2513,-11.0581,-10.9227,-10.7963,-10.7259,-10.7259,-10.7259,-10.7259,-10.7259,-10.3478,-10.1422,-10.1582,-9.7323,-9.5224,-9.5386,-9.4111,-9.3095,-11.7476,-12.1127,-12.6519,-12.5796,-12.5138,-12.2574,-11.5077,0.0,0.0,0.0,0.0,-9.101,-9.1799,0.0,0.0,0.0,0.0,0.0,0.0,0.0,0.0,0.0,0.0,0.0,0.0,0.0,0.0,0.0,-12.5401,-12.6796,-13.0067,-12.9955,-13.0036,-13.0588,-13.0989,-13.1228,-13.1228,-13.1556,-13.1556,-13.1228,-13.1399,-13.1399,-13.1228,-13.1228,-13.1228,-13.1228,-13.1399,-12.9747,-12.716,-13.0446,-12.9923,-12.7529,-13.059,-13.1791,-13.1713,-13.1556,-13.1635,-13.1713,-13.1556,-13.1635,-13.1791,-13.1791,-13.2102,-13.219,-13.1344,-13.1108,-13.0883,-13.0001,-12.9757,-12.9528,-12.8619,-12.7607,-12.6485,-12.4655,-12.3372,-12.2405,-12.1516,-12.1289,-12.1227,-12.0938,-12.1131,-12.1289,-12.0938,-12.1131,-12.1289,-12.1289,-12.1289,-12.1289,-12.1289,-12.029,-11.9181,-11.7837,-11.625,-11.4421,-11.2465,-11.079,-10.9269,-10.8138,-10.7553,-10.6866,-10.5658,-10.5658,-10.5156,-10.4088,-10.0801,-9.9269,-9.9468,-9.5385,-9.3543,-9.3739,-9.1772,-9.0709,-11.7336,-12.0667,-12.5007,-12.4086,-12.3626,-12.2902,-12.0667,-11.6195,0.0,0.0,0.0,-9.6599,-9.6073,-9.6928,-10.015,-10.7515,0.0,0.0,0.0,0.0,-11.9483,0.0,0.0,0.0,0.0,0.0,0.0,0.0,0.0,-12.7957,-12.842,-12.8037,-12.8551,-13.0272,-13.1066,-13.1368,-13.1399,-13.2102,-13.2102,-13.1399,-13.1713,-13.1713,-13.1399,-13.1399,-13.0867,-12.9935,-13.1324,0.0,-13.0477,-13.1788,-13.2344,-13.2344,-13.2344,-13.2344,-13.2344,-13.2025,-13.2102,-13.2334,-13.2025,-13.2102,-13.2344,-13.2035,-13.1958,-13.158,-12.9757,-12.92,-12.8869,-12.735,-12.6919,-12.6833,-12.6485,-12.6398,-12.6022,-12.42,-12.3461,-12.3029,-12.155,-12.1105,-12.0982,-12.1227,-12.1139,-12.0982,-12.1227,-12.1289,-12.1289,-12.1289,-12.1289,-12.1166,-12.1016,-11.8928,-11.6952,-11.5617,-11.3387,-11.1614,-11.0505,-10.9151,-10.8079,-10.7358,-10.6964,-10.58,-10.3647,-10.3183,-10.2149,-10.0056,-9.8024,-9.7131,-9.7232,-9.3794,-9.2266,-9.2212,-8.9843,-8.9036,-12.0772,-12.3034,-12.402,-12.5072,-12.4349,-12.2113,-11.6787,-11.4025,-11.1263,-10.6726,0.0,0.0,-9.943,0.0,-10.1662,-10.8962,0.0,-11.3828,-11.8365,-12.0272,-12.0995,-12.0206,-12.0798,-12.356,-12.9281,-12.9215,-12.9246,-13.0442,-12.3735,-11.9654,-11.9654,-11.9654,-12.2504,-12.888,-12.9691,-13.0678,-13.219,-13.2267,-13.2267,-13.219,-13.2334,-13.2334,-13.219,-13.219,-12.9444,-12.489,-13.0056,-12.9385,-12.5097,-13.0265,-13.2344,-13.2344,-13.2344,-13.2344,-13.2344,-13.2267,-13.2334,-13.2344,-13.2267,-13.2344,-13.2113,-13.0485,-13.0001,-12.9676,-12.7862,-12.7264,-12.7264,-12.7006,-12.6919,-12.6572,-12.4953,-12.4564,-12.4109,-12.2183,-12.0783,-12.0195,-12.1078,-12.0402,-11.9972,-12.1043,-12.0402,-11.9972,-12.1043,-12.1289,-12.1289,-12.1289,-12.1289,-12.0955,-11.9788,-11.7525,-11.5556,-11.4127,-11.2178,-11.0425,-10.905,-10.8002,-10.7456,-10.7259,-10.5458,-10.3781,-10.2505,-10.0876,-9.9512,-9.8362,-9.557,-9.4411,-9.4918,-9.1496,-9.0147,-9.0709,-8.9242,-8.8139,-11.2329,-11.7313,-12.2376,-12.3034,-12.2705,-12.1587,-11.8957,-11.7905,-11.5932,-11.0803,-10.666,0.0,0.0,0.0,0.0,0.0,0.0,0.0,-12.0009,-11.8431,-11.7576,0.0,-12.1258,0.0,-12.9281,-12.9312,-12.7707,0.0,-12.4218,-12.4264,-12.4554,-12.3533,-12.4454,-12.7883,-12.8169,-12.8883,-12.993,-13.0734,-13.1137,-13.1204,-13.2008,-13.2344,-13.2344,-13.2344,-13.0936,-12.8656,0.0,-13.0936,-12.8723,-13.1271,-13.2344,-13.2344,-13.2344,-13.2344,-13.2344,-13.2344,-13.2344,-13.2344,-13.2344,-13.2344,-13.2267,-13.1423,-13.0485,-12.9282,-12.7521,-12.6222,-12.5222,-12.4046,-12.3771,-12.3649,-12.2781,-12.2593,-12.2125,-12.0593,-11.9788,-11.9481,-12.0095,-11.9788,-11.9631,-12.0693,-11.974,-11.8951,-11.8956,-11.9051,-11.9051,-11.9051,-11.9051,-11.8559,-11.7208,-11.5226,-11.3372,-11.1893,-10.9967,-10.798,-10.6098,-10.56,-10.4797,-10.3577,-10.2491,-10.1002,-9.8961,-9.8073,-9.6694,-9.4572,-9.3091,-9.2404,-9.2611,-9.0882,-9.0097,-9.0302,-8.8508,-8.7717,-10.5939,-11.2325,-11.9492,-12.1082,-12.1411,-12.1487,-12.1563,-12.1487,-12.0292,-11.6275,-11.1728,-10.7252,0.0,0.0,0.0,-11.146,-11.0474,0.0,-12.2048,-11.968,0.0,-12.0404,0.0,-12.1719,-12.4152,-12.5386,0.0,0.0,-12.3848,-12.656,-12.7003,-12.5236,-12.5228,-12.7471,-12.7137,-12.7286,-12.8053,-12.9125,-12.9662,-12.9662,-13.0734,-13.1271,-13.1271,-13.1271,-13.0466,-12.9058,-13.06,-13.0399,-12.9125,-13.107,-13.1807,-13.1874,-13.2209,-13.2344,-13.2344,-13.2344,-13.2344,-13.2276,-13.1539,-13.0975,-13.0513,-13.0057,-12.8719,-12.6843,-12.5047,-12.3518,-12.2187,-12.0659,-12.0279,-12.0279,-12.0279,-12.0279,-12.0034,-11.9051,-11.8559,-11.8375,-11.8744,-11.8559,-11.8527,-11.9128,-11.8665,-11.7937,-11.6869,-11.6962,-11.7208,-11.7208,-11.7208,-11.6594,-11.4996,-11.2998,-11.1162,-10.9614,-10.7632,-10.5458,-10.3213,-10.3008,-10.2228,-10.0553,-9.9751,-9.8358,-9.5798,-9.5213,-9.3781,-9.1355,-9.1102,-9.0997,-9.0997,-9.0571,-9.0196,-8.988,-8.7823,-8.719,-10.7655,-11.1945,-11.4432,-12.0328,-12.179,-12.194,-12.2313,-12.209,-12.212,-12.3253,-12.1826,-11.9943,0.0,0.0,-11.6655,-12.0141,-12.0535,-12.2508,-12.8558,-12.9149,-12.6585,0.0,0.0,0.0,0.0,0.0,0.0,-12.0125,0.0,-11.967,-11.967,-11.8263,-12.0742,-12.7852,-12.6645,-12.6578,-12.8053,-12.812,-12.8187,-12.8187,-12.8254,-12.8254,-12.8254,-12.8254,-12.5237,-12.0142,-12.584,-12.5103,-12.041,-12.7449,-13.0332,-13.0466,-13.1807,-13.2344,-13.2344,-13.2344,-13.2344,-13.2008,-12.926,-12.7207,-12.5454,-12.3693,-12.1996,-12.0234,-11.8315,-11.7671,-11.7578,-11.7392,-11.7392,-11.7392,-11.7392,-11.7392,-11.7392,-11.7331,-11.6409,-11.5795,-11.7024,-11.6348,-11.5488,-11.5458,-11.6532,-11.6901,-11.5611,-11.6409,-11.7208,-11.7208,-11.7208,-11.6286,-11.3706,-11.1639,-10.946,-10.7301,-10.5286,-10.311,-10.0869,-10.0713,-10.0553,-10.0447,-9.7985,-9.5904,-9.4574,-9.2518,-9.0841,-8.9536,-9.01,-9.0407,-9.0407,-9.0354,-8.9774,-8.8666,-8.7453,-8.6293,-9.9628,-10.5672,-11.2077,-11.4331,-11.8581,-12.2239,-12.209,-12.2164,-12.2297,-12.2601,-11.9148,-11.6163,-11.6559,-11.2988,-11.1789,-11.751,-11.534,-11.6663,-12.7298,-12.1411,-11.872,-12.6051,-11.9148,-11.6091,0.0,0.0,0.0,-11.3971,-12.1467,-12.6243,-12.6243,-12.4902,-12.5304,-12.7986,-12.6578,-12.6041,-12.6578,-12.5639,-12.5639,-12.6578,-12.7583,-12.8053,-12.8053,-12.8053,-12.6913,-12.5036,-12.7114,-12.6846,-12.5103,-12.7718,-12.8857,-12.8857,-12.9394,-12.9595,-12.9595,-12.9595,-12.9595,-12.9168,-12.5888,-12.5019,-12.5098,-12.3334,-12.1634,-11.9957,-11.9245,-11.8159,-11.7208,-11.7208,-11.7208,-11.7208,-11.7208,-11.7022,-11.6558,-11.5701,-11.4873,-11.4597,-11.5303,-11.509,-11.5028,-11.5853,-11.5948,-11.5764,-11.4845,-11.4752,-11.4689,-11.4689,-11.3221,-11.1773,-11.087,-10.8038,-10.5685,-10.4368,-10.2998,-10.108,-9.8415,-9.8199,-9.7709,-9.6225,-9.4903,-9.354,-9.2452,-9.1305,-9.0162,-8.8967,-8.9482,-8.9585,-8.9276,-8.8954,-8.8277,-8.7451,-8.5922,-8.5018,0.0,0.0,-10.673,-11.0373,-11.5087,-11.9202,-12.1112,-12.151,-12.1642,-12.2024,-11.8832,-11.6512,-11.79,-11.4916,-11.3773,-11.8891,-11.659,-11.7189,-12.6112,-12.0244,-11.7952,-12.5686,-11.9183,0.0,0.0,0.0,0.0,-11.758,-12.5828,-13.0936,-13.0936,-12.9595,-12.879,-12.879,-12.7315,-12.631,-12.5773,-12.4835,-12.4566,-12.5036,-12.6108,-12.6578,-12.6578,-12.6578,-12.6578,-12.6578,-12.6578,-12.6578,-12.6645,-12.7114,-12.7315,-12.7315,-12.7852,-12.7688,-12.7169,-12.7169,-12.6191,-12.4497,-12.2153,-12.1746,-12.1991,-12.0838,-11.9291,-11.7843,-11.7843,-11.6948,-11.5918,-11.5918,-11.5918,-11.5856,-11.5672,-11.5457,-11.5027,-11.4019,-11.3652,-11.362,-11.4019,-11.4111,-11.4417,-11.5181,-11.4967,-11.4537,-11.4111,-11.3648,-11.3366,-11.3366,-11.1733,-11.0036,-10.846,-10.5983,-10.3771,-10.2117,-10.1025,-9.9169,-9.6172,-9.5892,-9.5069,-9.3244,-9.262,-9.1824,-9.0644,-9.0099,-8.9433,-8.8656,-8.8654,-8.8343,-8.8034,-8.7555,-8.6873,-8.6004,-8.5085,-8.4441,0.0,0.0,-9.8591,-10.9242,-11.1772,-11.3297,-11.9504,-12.0337,-12.0302,-12.1989,-12.2032,-12.2195,-12.3649,-12.3715,-12.4024,-12.5283,-12.5335,-12.5335,-12.5467,-12.7114,-12.5698,-11.8839,-11.9329,-11.483,0.0,-11.4176,-12.6029,-13.1135,-13.2046,-13.2344,-13.2344,-13.107,-13.0265,-13.0265,-12.8857,-12.7382,-12.584,-12.5773,-12.5036,-12.3628,-12.3628,-12.3628,-12.3628,-12.3628,-12.3628,-12.3628,-12.3556,-12.3556,-12.3623,-12.4957,-12.5493,-12.5694,-12.7167,-12.6732,-12.5138,-12.5125,-12.2181,-11.8258,-11.8258,-11.7193,-11.5891,-11.5742,-11.4658,-11.3366,-11.3276,-11.3276,-11.3276,-11.3276,-11.3276,-11.3186,-11.2674,-11.2493,-11.2493,-11.2493,-11.2493,-11.2584,-11.3186,-11.3276,-11.3276,-11.3366,-11.3366,-11.3366,-11.3366,-11.3366,-11.3276,-11.3186,-11.3186,-11.1365,-10.6714,-10.5643,-10.4031,-10.0498,-9.9222,-9.7272,-9.3928,-9.3588,-9.3131,-9.1902,-9.1393,-9.0593,-8.9409,-8.886,-8.8552,-8.8449,-8.7413,-8.6792,-8.6792,-8.6304,-8.5405,-8.4308,-8.4835,-8.4447,-9.9768,0.0,0.0,-10.9704,-11.4644,-11.9056,-12.0581,-12.0986,-12.0714,-11.9479,-11.913,-11.9521,-12.1053,-11.7582,-11.6302,-12.1978,-12.0411,-11.989,-12.3892,-12.6129,-12.7111,-12.6418,-12.303,-11.9313,-11.5514,-12.4159,-12.8455,-12.4623,-12.9318,-13.2344,-13.2344,-13.2008,-13.1807,-13.1807,-13.0399,-12.8924,-12.7449,-12.631,-12.5036,-12.3628,-12.3628,-12.3628,-12.3628,-12.3628,-12.3628,-12.3556,-12.2329,-12.1742,-12.1733,-12.0774,-12.0436,-12.0501,-12.0892,-12.0706,-12.0146,-11.8922,-11.7643,-11.6337,-11.5118,-11.5204,-11.5634,-11.4396,-11.3662,-11.3276,-11.2916,-11.2765,-11.2674,-11.2311,-11.222,-11.2128,-11.2037,-11.1762,-11.1578,-11.1946,-11.167,-11.167,-11.2584,-11.2765,-11.2916,-11.3276,-11.3366,-11.3366,-11.3366,-11.3366,-11.2674,-11.0656,-10.9376,-10.7554,-10.4279,-10.3054,-10.0869,-9.6666,-9.6719,-9.5853,-9.2633,-9.247,-9.2013,-9.0895,-8.9502,-8.8381,-8.7652,-8.6335,-8.5513,-8.4953,-8.5154,-8.5202,-8.5049,-8.4565,-8.4088,-8.3822,-8.3471,-8.3558,-9.9152,0.0,0.0,0.0,-10.8631,-11.3641,-11.3574,-11.6844,-11.9179,-11.61,-11.6962,-11.8288,-11.8482,-11.5552,-11.448,0.0,-11.7262,-11.7405,-12.1759,-12.4587,-12.6827,-12.8588,-12.5333,-12.3278,-12.4164,-12.8589,-12.993,-12.631,-12.9997,-13.2344,-13.2344,-13.2344,-13.2344,-13.2344,-13.1539,-13.0131,-12.812,-12.7181,-12.5639,-12.3628,-12.3628,-12.3628,-12.3628,-12.3628,-12.3201,-12.2477,-12.0689,-11.9993,-11.9915,-11.8821,-11.8419,-11.8419,-11.8419,-11.7933,-11.711,-11.5463,-11.4833,-11.4658,-11.3662,-11.4017,-11.4658,-11.3662,-11.3366,-11.3276,-11.2674,-11.2493,-11.2493,-11.222,-11.2128,-11.2128,-11.2128,-11.1762,-11.1425,-11.1946,-11.167,-11.1578,-11.2584,-11.2916,-11.2945,-11.3276,-11.3366,-11.2945,-11.1824,-11.1885,-11.081,-10.7203,-10.5884,-10.4437,-10.2083,-10.0662,-9.9008,-9.6661,-9.6108,-9.5137,-9.2893,-9.266,-9.1791,-8.9768,-8.834,-8.69,-8.5561,-8.4851,-8.4337,-8.3933,-8.4075,-8.4275,-8.4687,-8.3731,-8.2966,-8.2496,-8.2319,-8.2124,-9.8667,0.0,0.0,-9.39,-9.8658,-10.2463,0.0,0.0,-11.5027,-11.144,-11.384,-11.6103,-11.4697,-11.4435,-11.4569,-11.4873,-11.515,-11.6356,-11.9473,-12.2897,-12.5526,-12.6928,-12.6156,-12.6176,-12.7919,-12.9058,-13.0332,-13.1807,-13.2008,-13.2142,-13.2142,-13.2276,-13.2008,-13.1204,-13.1941,-13.06,-12.6846,-12.765,-12.6578,-12.3628,-12.3628,-12.3628,-12.3628,-12.3417,-12.2477,-12.1061,-11.914,-11.8258,-11.8095,-11.7851,-11.7769,-11.7769,-11.7769,-11.6924,-11.5377,-11.3928,-11.3366,-11.3276,-11.3276,-11.3276,-11.3276,-11.3186,-11.3186,-11.3096,-11.2493,-11.1975,-11.1487,-11.1548,-11.1121,-11.0755,-11.1365,-11.1125,-11.1126,-11.2189,-11.2128,-11.2128,-11.3096,-11.3366,-11.3366,-11.3366,-11.3186,-11.2159,-10.9754,-10.9625,-10.8193,-10.3372,-10.2754,-10.2083,-10.0188,-9.9007,-9.8412,-9.8845,-9.6881,-9.5025,-9.3776,-9.3083,-9.1468,-8.8397,-8.7104,-8.5512,-8.3578,-8.3777,-8.4027,-8.4127,-8.3348,-8.3545,-8.4474,-8.2804,-8.1416,-8.0654,-8.0903,-7.9953,0.0,0.0,0.0,0.0,0.0,0.0,0.0,0.0,-10.3793,-10.2866,-10.3398,-10.4325,-10.5445,-10.3775,-10.4441,-11.1506,-11.1972,-11.304,-11.7818,-12.1581,-12.4092,-12.436,-12.4231,-12.5103,-12.7785,-12.7181,-12.7248,-12.879,-12.9997,-13.06,-13.06,-13.174,-12.9662,-12.3762,-12.926,-12.812,-11.927,-12.5103,-12.6578,-12.3628,-12.3628,-12.3628,-12.3628,-12.2255,-12.1441,-12.1061,-11.914,-11.7605,-11.6252,-11.4858,-11.4308,-11.4308,-11.4308,-11.4105,-11.3751,-11.3456,-11.3366,-11.3276,-11.2855,-11.2674,-11.2584,-11.222,-11.2037,-11.1946,-11.1486,-10.8551,-10.5334,-10.49,-10.1989,-9.9855,-10.3813,-10.4987,-10.6278,-11.0822,-11.2128,-11.2584,-11.3186,-11.3366,-11.3366,-11.3366,-11.1946,-11.0683,-11.0062,-10.8674,-10.5983,-10.1194,-10.0877,-10.0983,-10.0559,-9.9492,-9.8845,-9.8953,-9.6829,-9.4974,-9.3834,-9.0346,-8.7464,-8.5862,-8.4027,-8.2911,-8.2957,-8.2133,-8.1913,-8.2345,-8.0534,-7.9797,-8.0443,-7.8461,-7.7567,-7.7813,-7.7913,-7.6224,0.0,0.0,0.0,0.0,0.0,0.0,0.0,0.0,0.0,0.0,0.0,-9.9604,0.0,0.0,-10.3564,-10.7905,-11.023,-11.2904,-11.691,-11.9798,-12.0812,-11.9337,-11.9873,-12.1214,-12.3427,-12.3628,-12.4499,-12.6712,-12.7583,-12.8321,-12.9125,-12.698,-12.4097,-12.041,-12.3829,-12.2957,-11.7058,-12.3628,-12.584,-12.3628,-12.3628,-12.3628,-12.3628,-12.2764,-12.1441,-11.9693,-11.8741,-11.7007,-11.4571,-11.3662,-11.3366,-11.3276,-11.3096,-11.2765,-11.2278,-10.9766,-11.044,-11.2127,-10.9441,-11.0056,-11.2128,-11.1854,-11.1762,-11.167,-11.1148,-10.9278,-10.7315,-10.7404,-10.5618,-10.4424,-10.7356,-10.8113,-10.8871,-11.1882,-11.2493,-11.2674,-11.3186,-11.3366,-11.3006,-11.1946,-11.0963,-10.94,-10.7027,-10.5042,-10.3064,-10.0665,-10.0453,-10.0665,-10.0665,-9.9706,-9.8953,-9.8953,-9.5209,-9.3196,-9.4415,-8.9688,-8.6853,-8.7504,-8.5229,-8.3271,-8.2261,-8.1353,-8.0563,-7.9786,-7.846,-7.8113,-7.9006,-7.7414,-7.6408,-7.6122,-7.447,-7.2906,0.0,0.0,0.0,0.0,0.0,0.0,0.0,0.0,0.0,0.0,0.0,0.0,0.0,0.0,0.0,-10.3965,-10.809,-11.2499,-11.6052,-11.7594,-11.7527,-11.5382,-11.5985,-11.7259,-11.9002,-12.0008,-12.1684,-12.4298,-12.4768,-12.5505,-12.6712,-12.2488,-11.9337,-11.7929,-11.9538,-11.9069,-11.6186,-12.2555,-12.5036,-12.3628,0.0,0.0,-12.3128,-12.2477,-12.0023,-11.6393,-11.7076,-11.5261,-11.1891,-11.2936,-11.3366,-11.3215,-11.243,-11.1945,-11.1034,-10.7227,-10.8417,-11.1247,-10.7052,-10.8301,-11.167,-11.1578,-11.1486,-11.1394,-11.1023,-11.0208,0.0,-11.0095,-10.9548,-10.918,-11.1168,-11.1324,-11.148,-11.2851,-11.3006,-11.2674,-11.2674,-11.1969,-11.1002,-10.9788,-10.8474,-10.6635,-10.3658,-10.0996,-9.8972,-9.8044,-9.788,-9.788,-9.788,-9.7647,-9.734,-9.6913,-9.3243,-9.1761,-9.3973,-8.8836,-8.6591,-8.9145,-8.5687,-8.2602,-8.0354,-7.9828,-7.8567,-7.6233,-7.531,-7.5552,-7.6718,-7.5487,-7.4713,-7.4192,-7.0135,-6.858,0.0,0.0,0.0,0.0,0.0,0.0,0.0,0.0,0.0,0.0,0.0,0.0,0.0,0.0,0.0,0.0,-10.3602,-10.861,-11.4175,-11.5113,-11.5583,-11.6655,-11.5717,-11.6052,-11.8868,-11.8197,-11.8197,-11.9806,-12.1147,-12.2019,-12.222,0.0,0.0,0.0,0.0,-12.1147,-11.3169,-12.1482,-12.5036,-12.3628,-12.2106,-12.1365,-12.1289,-11.8095,-11.3865,-10.9033,-11.2456,-11.0948,-10.6458,-11.1337,-11.3366,-11.3153,-11.139,-11.0633,-11.0605,-11.0791,-11.1308,-11.1641,-11.0576,0.0,0.0,-11.071,-11.0617,-11.0523,-11.0523,-10.7408,-10.4035,-10.4408,-10.1437,-9.927,-10.4131,-10.569,-10.7086,-11.1574,-11.3006,-11.2765,-11.0963,-10.7198,-10.4769,-10.6869,-10.2352,-9.9311,-10.3037,-9.848,-9.2909,-8.8594,-8.7939,-8.7939,-8.7939,-9.0683,-9.1723,-8.9665,0.0,0.0,-8.995,-8.5188,-8.361,-8.6699,-8.0428,-7.6263,-7.5437,-7.5345,-7.375,-7.0466,-6.8339,-6.8181,-6.9769,-6.8114,-6.8436,-7.0213,-6.301,-6.1606,0.0,0.0,0.0,0.0,0.0,0.0,0.0,0.0,0.0,0.0,0.0,0.0,0.0,0.0,0.0,0.0,-10.1074,-10.6614,-10.9023,-11.0225,-11.2031,-11.5113,-11.498,-11.5046,-11.5909,-11.5782,-11.6253,-11.7521,-11.8395,-11.927,-12.0075,-11.746,-11.451,-11.1426,-11.4912,-11.5046,-11.1359,-11.8331,-12.1617,-12.1013,-11.9375,-11.8637,-11.8562,-11.5893,-11.2851,-10.9774,-11.1404,-11.0134,-10.7344,-10.9872,-11.0942,0.0,0.0,0.0,0.0,0.0,-10.9397,-10.8973,-10.588,-10.6614,-10.9036,-10.8916,-10.8825,-10.8825,-10.8825,-10.7347,-10.58,-10.6297,-10.4998,-10.3947,-10.6548,-10.7945,-10.9135,-11.129,-11.2573,-11.2826,-11.0683,-10.8665,-10.6786,-10.5382,-10.2834,0.0,-10.0014,-9.7507,-9.493,-9.2909,-9.2326,-9.1929,-9.1929,-9.2835,-9.3165,-9.2229,-9.1065,-9.0463,-9.0424,-8.4856,0.0,0.0,0.0,-7.9407,-7.9127,-7.8281,0.0,0.0,0.0,0.0,0.0,0.0,0.0,0.0,-6.0776,-5.9156,0.0,0.0,0.0,0.0,0.0,0.0,0.0,0.0,0.0,0.0,0.0,0.0,0.0,0.0,0.0,0.0,0.0,-10.195,-10.1763,-10.5013,-10.8822,-11.264,-11.4043,-11.4444,-11.3901,-11.4241,-11.4643,-11.5039,-11.5779,-11.6584,-11.7792,-11.3774,-11.1497,-11.156,-11.2029,-11.2231,-11.2231,-11.6856,-11.9136,-11.9136,-11.7087,-11.6129,-11.6054,-11.3621,-11.1018,-10.8536,-10.9949,-10.9068,-10.656,-10.8522,-10.9222,-10.9161,-10.8272,-10.7732,-10.734,-10.7633,-10.7671,-10.7214,-10.3526,-10.4657,-10.7671,-10.7671,-10.7671,-10.7671,-10.7671,-10.7671,-10.7848,-10.8289,-10.8464,-10.8552,-10.9135,-10.9959,-11.0459,-11.0018,-11.0662,-11.0701,-10.8048,-10.6453,-10.4769,-10.2429,-10.1395,-9.9539,-9.5154,-9.4737,-9.4463,-9.3342,-9.2601,0.0,-9.2242,-9.2306,-9.2029,-9.1171,-8.8952,-8.7979,-8.8852,-8.3131,-8.0838,-8.4102,-8.135,-8.0303,-8.1709,-7.9356,-7.6379,-7.3072,-6.7927,-6.55,0.0,0.0,0.0,0.0,0.0,0.0,0.0,0.0,0.0,0.0,0.0,0.0,0.0,0.0,0.0,0.0,0.0,0.0,0.0,0.0,0.0,0.0,0.0,0.0,-9.2412,-10.0035,-10.676,-10.9833,-11.264,-11.4241,-11.4241,-11.3969,-11.3233,-11.177,-11.3033,-11.3968,-11.4441,-11.4309,-11.431,-11.4577,-11.6052,-11.6789,-11.6789,-11.8398,-11.9136,-11.9067,-11.5914,-11.4389,-11.4234,-11.097,-10.6503,-10.1685,-10.7034,-10.6296,-10.1728,-10.701,-10.9222,-10.9099,-10.7294,-10.5693,-10.4778,-10.6877,-10.7671,-10.7611,-10.7578,-10.7578,-10.7671,-10.7671,-10.7671,-10.7671,-10.7671,-10.7671,-10.7848,-10.8289,-10.8464,-10.8552,-10.9135,-10.9222,-10.8788,-10.6897,-10.6507,-10.5446,-10.1485,-9.6907,-9.4424,-9.6902,-9.5468,-9.2448,-8.8145,-8.8401,-8.7666,-8.3521,-8.2828,0.0,-8.2828,-8.4829,-8.4986,-8.1789,-8.4916,-8.6054,-8.292,-7.819,-7.7623,-8.297,-7.6564,-7.4942,-7.9925,-7.5285,-7.2036,-7.0825,-6.4922,-6.3468,-6.6976,0.0,0.0,0.0,0.0,0.0,0.0,0.0,0.0,0.0,0.0,0.0,0.0,0.0,0.0,0.0,0.0,0.0,0.0,0.0,0.0,0.0,0.0,0.0,0.0,0.0,-10.1067,-10.5664,-10.7383,-10.8315,-10.878,-10.9114,-10.9047,-10.8451,-11.1702,-11.3764,-11.3901,-11.3901,-11.3571,-11.2906,-11.4377,-11.4846,-11.4041,-11.5516,-11.6186,-11.6119,-11.4042,-11.3031,-11.2958,-11.0338,-10.7234,-10.3828,-10.6485,-10.5027,-10.1017,-10.4961,-10.6519,-10.6458,-10.5859,-10.5285,-10.4978,-10.5728,-10.601,-10.601,-10.601,-10.601,-10.601,-10.601,-10.601,-10.601,-10.601,-10.601,-10.6095,-10.6265,-10.6265,-10.635,-10.6519,-10.5608,-10.4598,-10.3898,-10.2804,-10.1179,-9.8479,-9.6606,-9.5269,-9.4781,-9.1489,-8.8267,-8.681,-8.9114,-8.9613,-8.5029,-8.6163,-8.7075,-8.577,-8.586,-8.5101,-8.272,-8.373,-8.4074,-8.3045,-8.02,-7.9191,-8.0987,-7.727,-7.5747,-7.7518,-7.5212,-7.3559,-7.2881,-7.0136,-6.6675,-6.2491,0.0,0.0,0.0,0.0,0.0,0.0,0.0,0.0,0.0,0.0,0.0,0.0,0.0,0.0,0.0,0.0,0.0,0.0,0.0,0.0,0.0,0.0,0.0,0.0,0.0,0.0,-10.3689,-10.6066,0.0,-10.495,-10.5541,-10.4813,-10.2044,-10.5143,-10.7855,-10.9578,-10.9644,-11.0309,-11.1773,-11.2772,-11.324,-11.2973,-11.3842,-11.4309,-11.4309,-11.2239,-11.1304,-11.1232,-10.8704,-10.6603,-10.4875,-10.5519,-10.4309,-10.2116,-10.4265,-10.4943,-10.4555,-10.3488,-10.32,-10.3239,-10.1839,-10.2129,-10.3181,-10.3343,-10.3796,-10.4492,-10.4492,-10.3304,-10.1618,-9.9964,-9.9551,-9.9629,-9.9472,-10.0438,-10.1543,-10.1543,-10.1768,-10.165,-10.0304,-9.9196,-9.7683,-9.48,-9.3323,-9.2168,-9.1175,-8.7631,-8.4832,-8.4655,-8.7319,-8.7922,-8.3678,-8.5885,-8.7397,-8.5627,-8.5681,-8.4948,-8.2331,-8.2141,-8.176,-8.109,-7.9786,-7.9002,-7.9002,-7.7367,-7.6368,-7.608,-7.5155,-7.4233,-7.3314,-7.1471,-6.7352,0.0,0.0,0.0,0.0,0.0,0.0,0.0,0.0,0.0,0.0,0.0,0.0,0.0,0.0,0.0,0.0,0.0,0.0,0.0,0.0,0.0,0.0,0.0,0.0,0.0,0.0,0.0,-10.2763,-10.7458,0.0,0.0,0.0,0.0,-9.3245,-9.4291,-9.711,-10.1639,-10.1903,-10.4611,-11.0508,-11.0973,-11.177,-11.31,-11.3364,-11.3563,-11.3425,-11.0792,-10.952,-10.9292,-10.626,-10.4749,-10.4604,-10.4182,-10.4121,-10.4459,-10.4716,-10.4268,-10.3209,-10.0576,-9.9695,-9.9394,-9.5632,-9.6261,-9.9077,-9.9462,-10.0992,-10.2833,-10.2915,-9.974,-9.511,-9.0639,-8.9503,0.0,0.0,-9.1726,-9.4738,-9.497,-9.7702,-9.9554,-9.603,-9.551,-9.4634,-9.0681,-8.7266,-8.514,0.0,-8.3719,-8.1688,-8.116,0.0,-8.255,-7.8905,-8.1605,-8.3451,-8.1779,-8.3765,-8.3929,-8.0318,-7.993,-7.9199,-7.7365,-7.7165,-7.7165,-7.7165,-7.6565,-7.608,-7.5505,-7.4917,-7.3704,-7.1943,-6.8916,0.0,0.0,0.0,0.0,0.0,0.0,0.0,0.0,0.0,0.0,0.0,0.0,0.0,0.0,0.0,0.0,0.0,0.0,0.0,0.0,0.0,0.0,0.0,0.0,0.0,0.0,-8.6216,-9.0334,-9.263,-9.4805,-9.4219,0.0,0.0,0.0,0.0,0.0,0.0,-9.5805,-9.699,-9.7911,-9.8487,-10.2551,-10.4537,-10.4308,-10.9511,-11.1489,-11.024,-11.0856,-11.0505,-10.9316,-10.8845,-10.7407,-10.5346,-10.6186,-10.4857,-10.1892,-10.0732,-9.9671,-9.886,-9.911,-9.6734,-9.3114,-9.212,-9.2294,-9.2959,-9.2606,-9.48,-9.787,-9.796,-9.6423,-9.4326,-9.3699,0.0,0.0,0.0,0.0,-9.0226,-9.3039,-9.268,-9.1774,-9.2034,-9.0712,-8.899,-8.7595,-8.4655,-8.2257,0.0,-7.887,-7.5834,-7.3729,0.0,0.0,0.0,0.0,-8.1757,-7.8611,-8.1085,-8.1856,-7.8263,-7.7915,-7.7716,-7.7265,-7.7165,-7.7065,-7.6614,-7.5638,-7.4522,-7.3216,-7.3363,-7.1047,-6.5772,0.0,0.0,0.0,0.0,0.0,0.0,0.0,0.0,0.0,0.0,0.0,0.0,0.0,0.0,0.0,0.0,0.0,0.0,0.0,0.0,0.0,0.0,0.0,0.0,0.0,0.0,0.0,-8.0707,-8.5608,-8.8124,-8.9713,-8.8588,0.0,0.0,0.0,0.0,0.0,0.0,0.0,0.0,0.0,-9.3199,-9.6288,-9.8333,-9.9219,-10.479,-10.7061,-10.6194,-10.8325,-10.8694,-10.7223,-10.6833,-10.561,-10.3768,-10.2412,-10.1245,-10.0097,-9.8586,-9.8404,-9.8778,0.0,0.0,0.0,0.0,-8.517,-8.6365,-8.6172,-8.8288,-9.1012,-9.1087,0.0,0.0,0.0,0.0,0.0,0.0,0.0,0.0,0.0,0.0,-9.0361,-8.9313,-8.6843,-8.4898,-8.5184,-7.9918,-7.5435,0.0,-7.3924,-7.0995,-6.9111,0.0,0.0,0.0,0.0,-7.5924,-7.319,-7.7245,-7.952,-7.7416,-7.7165,-7.7165,-7.7165,-7.7165,-7.687,-7.6083,-7.4719,-7.2593,-6.9606,-7.0953,-6.8342,0.0,0.0,0.0,0.0,0.0,0.0,0.0,0.0,0.0,0.0,0.0,0.0,0.0,0.0,0.0,0.0,0.0,0.0,0.0,0.0,0.0,0.0,0.0,0.0,0.0,0.0,0.0,0.0,0.0,-8.0713,-8.5849,0.0,0.0,0.0,0.0,0.0,0.0,0.0,0.0,0.0,0.0,0.0,0.0,0.0,-9.2129,-9.479,-9.9005,-10.0965,-10.0845,-10.3494,-10.4195,-10.3036,-10.1552,-10.0701,-10.0191,-9.6907,0.0,-9.8174,-9.7249,0.0,0.0,0.0,0.0,0.0,0.0,0.0,0.0,0.0,0.0,0.0,0.0,0.0,0.0,0.0,0.0,0.0,0.0,0.0,0.0,0.0,0.0,-8.9599,-8.5755,-8.2714,-8.0954,0.0,-7.3799,-6.7181,-6.9934,-6.8439,0.0,0.0,0.0,0.0,0.0,0.0,0.0,-6.7722,-7.3477,-7.7607,-7.7119,-7.7165,-7.7165,-7.7165,-7.7019,-7.653,-7.5603,-7.3413,-7.0169,-6.5719,-6.7934,0.0,0.0,0.0,0.0,0.0,0.0,0.0,0.0,0.0,0.0,0.0,0.0,0.0,0.0,0.0,0.0,0.0,0.0,0.0,0.0,0.0,0.0,0.0,0.0,0.0,0.0,0.0,0.0,0.0,0.0,0.0,0.0,0.0,0.0,0.0,0.0,0.0,0.0,0.0,0.0,0.0,0.0,0.0,0.0,0.0,0.0,0.0,0.0,0.0,0.0,-9.5319,-9.6007,-9.4519,-9.398,-9.3706,-9.3837,-9.776,-9.7161,-9.342,-9.4376,0.0,0.0,0.0,0.0,0.0,0.0,0.0,0.0,0.0,0.0,0.0,0.0,0.0,0.0,0.0,0.0,0.0,0.0,0.0,0.0,0.0,0.0,0.0,0.0,-7.4978,-7.4083,-7.2171,0.0,0.0,0.0,0.0,0.0,0.0,0.0,0.0,0.0,0.0,0.0,-6.722,-7.3295,-7.7413,-7.6617,-7.6964,-7.7165,-7.7165,-7.6335,-7.5552,-7.4866,-6.9965,-6.6168,0.0,0.0,0.0,0.0,0.0,0.0,0.0,0.0,0.0,0.0,0.0,0.0,0.0,0.0,0.0,0.0,0.0,0.0,0.0,0.0,0.0,0.0,0.0,0.0,0.0,0.0,0.0,0.0,0.0,0.0,0.0,0.0,0.0,0.0,0.0,0.0,0.0,0.0,0.0,0.0,0.0,0.0,0.0,0.0,0.0,0.0,0.0,0.0,0.0,0.0,0.0,0.0,0.0,0.0,0.0,0.0,0.0,0.0,0.0,-8.8788,0.0,0.0,0.0,0.0,0.0,0.0,0.0,0.0,0.0,0.0,0.0,0.0,0.0,0.0,0.0,0.0,0.0,0.0,0.0,0.0,0.0,0.0,0.0,0.0,0.0,0.0,0.0,0.0,0.0,0.0,0.0,0.0,0.0,0.0,0.0,0.0,0.0,0.0,0.0,0.0,-6.4815,-7.1193,-7.5795,-7.599,-7.6723,-7.6921,-7.6384,-7.5847,-7.4334,-7.1361,-6.7355,0.0,0.0,0.0,0.0,0.0,0.0,0.0,0.0,0.0,0.0,0.0,0.0,0.0,0.0,0.0,0.0,0.0,0.0,0.0,0.0,0.0,0.0,0.0,0.0,0.0,0.0,0.0,0.0,0.0,0.0,0.0,0.0,0.0,0.0,0.0,0.0,0.0,0.0,0.0,0.0,0.0,0.0,0.0,0.0,0.0,0.0,0.0,0.0,0.0,0.0,0.0,0.0,0.0,0.0,0.0,0.0,0.0,0.0,0.0,-8.5791,0.0,0.0,0.0,0.0,0.0,0.0,0.0,0.0,0.0,0.0,0.0,0.0,0.0,0.0,0.0,0.0,0.0,0.0,0.0,0.0,0.0,0.0,0.0,0.0,0.0,0.0,0.0,0.0,0.0,0.0,0.0,0.0,0.0,0.0,0.0,0.0,0.0,0.0,0.0,0.0,0.0,-6.2555,-6.9119,-7.4285,-7.531,-7.653,-7.6726,-7.575,-7.5359,-7.3059,-6.8064,-6.4893,0.0,0.0,0.0,0.0,0.0,0.0,0.0,0.0,0.0,0.0,0.0,0.0,0.0,0.0,0.0,0.0,0.0,0.0,0.0,0.0,0.0,0.0,0.0,0.0,0.0,0.0,0.0,0.0,0.0,0.0,0.0,0.0,0.0,0.0,0.0,0.0,0.0,0.0,0.0,0.0,0.0,0.0,0.0,0.0,0.0,0.0,0.0,0.0,0.0,0.0,0.0,0.0,0.0,0.0,0.0,0.0,0.0,0.0,0.0,0.0,0.0,0.0,0.0,0.0,0.0,0.0,0.0,0.0,0.0,0.0,0.0,0.0,0.0,0.0,0.0,0.0,0.0,0.0,0.0,0.0,0.0,0.0,0.0,0.0,0.0,0.0,0.0,0.0,0.0,0.0,0.0,0.0,0.0,0.0,0.0,0.0,0.0,0.0,0.0,0.0,0.0,-6.1807,-6.8849,-7.4092,-7.4671,-7.6183,-7.6726,-7.575,-7.4627,-7.2027,-6.7287,0.0,0.0,0.0,0.0,0.0,0.0,0.0,0.0,0.0,0.0,0.0,0.0,0.0,0.0,0.0,0.0,0.0,0.0,0.0,0.0,0.0,0.0,0.0,0.0,0.0,0.0,0.0,0.0,0.0,0.0,0.0,0.0,0.0,0.0,0.0,0.0,0.0,0.0,0.0,0.0,0.0,0.0,0.0,0.0,0.0,0.0,0.0,0.0,0.0,0.0,0.0,0.0,0.0,0.0,0.0,0.0,0.0,0.0,0.0,0.0,0.0,0.0,0.0,0.0,0.0,0.0,0.0,0.0,0.0,0.0,0.0,0.0,0.0,0.0,0.0,0.0,0.0,0.0,0.0,0.0,0.0,0.0,0.0,0.0,0.0,0.0,0.0,0.0,0.0,0.0,0.0,0.0,0.0,0.0,0.0,0.0,0.0,0.0,0.0,0.0,0.0,0.0,-6.1418,-6.8144,-7.3214,-7.4092,-7.4822,-7.5017,-7.4578,-7.384,-7.0272,-6.2896,0.0,0.0,0.0,0.0,0.0,0.0,0.0,0.0,0.0,0.0,0.0,0.0,0.0,0.0,0.0,0.0,0.0,0.0,0.0,0.0,0.0,0.0,0.0,0.0,0.0,0.0,0.0,0.0,0.0,0.0,0.0,0.0,0.0,0.0,0.0,0.0,0.0,0.0,0.0,0.0,0.0,0.0,0.0,0.0,0.0,0.0,0.0,0.0,0.0,0.0,0.0,0.0,0.0,0.0,0.0,0.0,0.0,0.0,0.0,0.0,0.0,0.0,0.0,0.0,0.0,0.0,0.0,0.0,0.0,0.0,0.0,0.0,0.0,0.0,0.0,0.0,0.0,0.0,0.0,0.0,0.0,0.0,0.0,0.0,0.0,0.0,0.0,0.0,0.0,0.0,0.0,0.0,0.0,0.0,0.0,0.0,0.0,0.0,0.0,0.0,0.0,0.0,-6.1287,-6.7704,-7.2856,-7.4188,-7.4379,-7.4426,-7.4816,-7.367,-6.9131,-6.0089,0.0,0.0,0.0,0.0,0.0,0.0,0.0,0.0,0.0,0.0,0.0,0.0,0.0,0.0,0.0,0.0,0.0,0.0,0.0,0.0,0.0,0.0,0.0,0.0,0.0,0.0,0.0,0.0,0.0,0.0,0.0,0.0,0.0,0.0,0.0,0.0,0.0,0.0,0.0,0.0,0.0,0.0,0.0,0.0,0.0,0.0,0.0,0.0,0.0,0.0,0.0,0.0,0.0,0.0,0.0,0.0,0.0,0.0,0.0,0.0,0.0,0.0,0.0,0.0,0.0,0.0,0.0,0.0,0.0,0.0,0.0,0.0,0.0,0.0,0.0,0.0,0.0,0.0,0.0,0.0,0.0,0.0,0.0,0.0,0.0,0.0,0.0,0.0,0.0,0.0,0.0,0.0,0.0,0.0,0.0,0.0,0.0,0.0,0.0,0.0,0.0,0.0,-6.156,-6.7877,-7.2966,-7.5359,-7.5447,-7.5823,-7.6818,-7.4346,-6.8999,0.0,0.0,0.0,0.0,0.0,0.0,0.0,0.0,0.0,0.0,0.0,0.0,0.0,0.0,0.0,0.0,0.0,0.0,0.0,0.0,0.0,0.0,0.0,0.0,0.0,0.0,0.0,0.0,0.0,0.0,0.0,0.0,0.0,0.0,0.0,0.0,0.0,0.0,0.0,0.0,0.0,0.0,0.0,0.0,0.0,0.0,0.0,0.0,0.0,0.0,0.0,0.0,0.0,0.0,0.0,0.0,0.0,0.0,0.0,0.0,0.0,0.0,0.0,0.0,0.0,0.0,0.0,0.0,0.0,0.0,0.0,0.0,0.0,0.0,0.0,0.0,0.0,0.0,0.0,0.0,0.0,0.0,0.0,0.0,0.0,0.0,0.0,0.0,0.0,0.0,0.0,0.0,0.0,0.0,0.0,0.0,0.0,0.0,0.0,0.0,0.0,0.0,0.0,-6.2976,-6.8359,-7.2793,0.0,-7.4657,-7.4496,-7.5749,-7.3836,-6.8576,-5.9363,0.0,0.0,0.0,0.0,0.0,0.0,0.0,0.0,0.0,0.0,0.0,0.0,0.0,0.0,0.0,0.0,0.0,0.0,0.0,0.0,0.0,0.0,0.0,0.0,0.0,0.0,0.0,0.0,0.0,0.0,0.0,0.0,0.0,0.0,0.0,0.0,0.0,0.0,0.0,0.0,0.0,0.0,0.0,0.0,0.0,0.0,0.0,0.0,0.0,0.0,0.0,0.0,0.0,0.0,0.0,0.0,0.0,0.0,0.0,0.0,0.0,0.0,0.0,0.0,0.0,0.0,0.0,0.0,0.0,0.0,0.0,0.0,0.0,0.0,0.0,0.0,0.0,0.0,0.0,0.0,0.0,0.0,0.0,0.0,0.0,0.0,0.0,0.0,0.0,0.0,0.0,0.0,0.0,0.0,0.0,0.0,0.0,0.0,0.0,0.0,0.0,0.0,0.0,-6.7582,-7.1593,0.0,-7.45,-7.4653,-7.587,-7.386,-6.8727,-5.9536,0.0,0.0,0.0,0.0,0.0,0.0,0.0,0.0,0.0,0.0,0.0,0.0,0.0,0.0,0.0,0.0,0.0,0.0,0.0,0.0,0.0,0.0,0.0,0.0,0.0,0.0,0.0,0.0,0.0,0.0,0.0,0.0,0.0,0.0,0.0,0.0,0.0,0.0,0.0,0.0,0.0,0.0,0.0,0.0,0.0,0.0,0.0,0.0,0.0,0.0,0.0,0.0,0.0,0.0,0.0,0.0,0.0,0.0,0.0,0.0,0.0,0.0,0.0,0.0,0.0,0.0,0.0,0.0,0.0,0.0,0.0,0.0,0.0,0.0,0.0,0.0,0.0,0.0,0.0,0.0,0.0,0.0,0.0,0.0,0.0,0.0,0.0,0.0,0.0,0.0,0.0,0.0,0.0,0.0,0.0,0.0,0.0,0.0,0.0,0.0,0.0,0.0,0.0,-6.6207,-7.0232,-7.4524,-7.5022,-7.5523,-7.6917,-7.4371,-6.912,-6.0605,-6.02,0.0,0.0,0.0,0.0,0.0,0.0,0.0,0.0,0.0,0.0,0.0,0.0,0.0,0.0,0.0,0.0,0.0,0.0,0.0,0.0,0.0,0.0,0.0,0.0,0.0,0.0,0.0,0.0,0.0,0.0,0.0,0.0,0.0,0.0,0.0,0.0,0.0,0.0,0.0,0.0,0.0,0.0,0.0,0.0,0.0,0.0,0.0,0.0,0.0,0.0,0.0,0.0,0.0,0.0,0.0,0.0,0.0,0.0,0.0,0.0,0.0,0.0,0.0,0.0,0.0,0.0,0.0,0.0,0.0,0.0,0.0,0.0,0.0,0.0,0.0,0.0,0.0,0.0,0.0,0.0,0.0,0.0,0.0,0.0,0.0,0.0,0.0,0.0,0.0,0.0,0.0,0.0,0.0,0.0,0.0,0.0,0.0,0.0,0.0,0.0,0.0,0.0,-6.8229,-7.2587,-7.4586,-7.4757,-7.5046,-7.565,-7.3898,-6.9173,-6.0605,-6.0473,0.0,0.0,0.0,0.0,0.0,0.0,0.0,0.0,0.0,0.0,0.0,0.0,0.0,0.0,0.0,0.0,0.0,0.0,0.0,0.0,0.0,0.0,0.0,0.0,0.0,0.0,0.0,0.0,0.0,0.0,0.0,0.0,0.0,0.0,0.0,0.0,0.0,0.0,0.0,0.0,0.0,0.0,0.0,0.0,0.0,0.0,0.0,0.0,0.0,0.0,0.0,0.0,0.0,0.0,0.0,0.0,0.0,0.0,0.0,0.0,0.0,0.0,0.0,0.0,0.0,0.0,0.0,0.0,0.0,0.0,0.0,0.0,0.0,0.0,0.0,0.0,0.0,0.0,0.0,0.0,0.0,0.0,0.0,0.0,0.0,0.0,0.0,0.0,0.0,0.0,0.0,0.0,0.0,0.0,0.0,0.0,0.0,0.0,0.0,0.0,0.0,0.0,-6.3776,-6.9123,-7.3423,-7.3814,-7.4064,-7.4728,-7.3282,-6.8898,-6.0684,-6.026,0.0,0.0,0.0,0.0,0.0,0.0,0.0,0.0,0.0,0.0,0.0,0.0,0.0,0.0,0.0,0.0,0.0,0.0,0.0,0.0,0.0,0.0,0.0,0.0,0.0,0.0,0.0,0.0,0.0,0.0,0.0,0.0,0.0,0.0,0.0,0.0,0.0,0.0,0.0,0.0,0.0,0.0,0.0,0.0,0.0,0.0,0.0,0.0,0.0,0.0,0.0,0.0,0.0,0.0,0.0,0.0,0.0,0.0,0.0,0.0,0.0,0.0,0.0,0.0,0.0,0.0,0.0,0.0,0.0,0.0,0.0,0.0,0.0,0.0,0.0,0.0,0.0,0.0,0.0,0.0,0.0,0.0,0.0,0.0,0.0,0.0,0.0,0.0,0.0,0.0,0.0,0.0,0.0,0.0,0.0,0.0,0.0,0.0,0.0,0.0,0.0,0.0,0.0,-6.3493,-7.1313,-7.2391,-7.3012,-7.3987,-7.2461,-6.8221,-6.0696,0.0,0.0,0.0,0.0,0.0,0.0,0.0,0.0,0.0,0.0,0.0,0.0,0.0,0.0,0.0,0.0,0.0,0.0,0.0,0.0,0.0,0.0,0.0,0.0,0.0,0.0,0.0,0.0,0.0,0.0,0.0,0.0,0.0,0.0,0.0,0.0,0.0,0.0,0.0,0.0,0.0,0.0,0.0,0.0,0.0,0.0,0.0,0.0,0.0,0.0,0.0,0.0,0.0,0.0,0.0,0.0,0.0,0.0,0.0,0.0,0.0,0.0,0.0,0.0,0.0,0.0,0.0,0.0,0.0,0.0,0.0,0.0,0.0,0.0,0.0,0.0,0.0,0.0,0.0,0.0,0.0,0.0,0.0,0.0,0.0,0.0,0.0,0.0,0.0,0.0,0.0,0.0,0.0,0.0,0.0,0.0,0.0,0.0,0.0,0.0,0.0,0.0,0.0,0.0,0.0,-6.7673,-7.0258,-7.1901,-7.3148,-7.139,-6.7367,-6.0642,0.0,0.0,0.0,0.0,0.0,0.0,0.0,0.0,0.0,0.0,0.0,0.0,0.0,0.0]}],[{"header":{"parameterUnit":"kt","parameterCategory":2,"dx":1,"dy":1,"la1":29.285339999999998,"la2":30.599998999999997,"lo1":-89.70041500000002,"lo2":-87.6738589999976,"nx":112,"ny":82,"refTime":"2022-10-21T00:00:00:Z","depth":0,"parameterNumber":2,"parameterNumberName":"V-component_of_WINDS"},"data":[6.9254,6.8865,0.0,6.5778,6.2517,0.0,5.8567,0.0,0.0,0.0,0.0,0.0,0.0,0.0,0.0,0.0,0.0,0.0,0.0,0.0,0.0,0.0,0.0,0.0,0.0,0.0,0.0,0.0,0.0,0.0,0.0,0.0,7.5893,7.6197,8.1626,8.4663,8.4967,8.4967,8.4967,8.4967,8.4967,8.4967,8.4967,8.4967,8.4967,8.4967,8.4967,8.417,8.2917,8.2613,8.1702,8.0449,8.0145,8.0032,8.0032,8.0032,8.0032,8.0032,8.0032,8.0032,8.0032,8.0032,8.0032,8.0032,7.9691,7.9237,7.8669,7.8068,7.7799,7.7374,7.6928,7.6885,7.6952,7.6493,7.4993,7.3538,7.3204,7.1656,7.0368,7.0368,7.0368,7.0368,7.0368,7.0368,7.0368,7.0368,7.0368,7.2201,7.7081,7.8615,8.1237,8.6106,8.7617,8.8324,8.8324,8.8324,8.8324,8.8324,8.7834,8.6897,8.5246,8.4844,8.3907,8.2221,8.2176,8.2176,8.2176,8.2176,8.2176,8.2176,8.2176,8.2176,0.0,0.0,6.2852,6.1064,0.0,0.0,0.0,0.0,0.0,0.0,0.0,0.0,0.0,0.0,0.0,0.0,0.0,0.0,0.0,0.0,0.0,0.0,0.0,0.0,0.0,0.0,0.0,0.0,0.0,0.0,0.0,7.3767,7.8741,7.8741,8.2803,8.4967,8.4967,8.4967,8.4967,8.4967,8.4967,8.4967,8.4967,8.4967,8.4967,8.4967,8.4967,8.4322,8.3259,8.2689,8.1816,8.0791,8.0259,8.0032,8.0032,8.0032,8.0032,8.0032,8.0032,8.0032,8.0032,8.0032,8.0032,8.0032,7.9691,7.9237,7.8744,7.8744,7.8288,7.8021,7.8021,7.8021,7.7794,7.6891,7.5377,7.3912,7.3142,7.1587,7.0368,7.0368,7.0368,7.0368,7.0368,7.0368,7.0368,7.0368,7.0368,7.2201,7.7221,7.8615,8.1237,8.624,8.7617,8.8324,8.8324,8.8324,8.8324,8.8324,8.8324,8.7433,8.5737,8.5335,8.4398,8.2836,8.2355,8.2176,8.2176,8.2176,8.2176,8.2176,8.2176,8.2176,0.0,0.0,0.0,5.3721,0.0,0.0,0.0,0.0,4.3258,0.0,0.0,0.0,0.0,0.0,0.0,0.0,0.0,0.0,0.0,0.0,0.0,0.0,0.0,0.0,0.0,0.0,0.0,0.0,0.0,0.0,7.4982,8.0487,8.3676,8.3676,8.4511,8.4967,8.4967,8.4967,8.4967,8.4967,8.4967,8.4967,8.4967,8.4967,8.4967,8.4967,8.4967,8.4929,8.4777,8.3183,8.2499,8.2272,8.0677,8.007,8.007,8.0032,8.0032,8.0032,8.0032,8.0032,8.0032,8.0032,8.0032,7.988,7.9048,7.8744,7.8744,7.8744,7.8744,7.8744,7.8744,7.8744,7.8557,7.7735,7.576,7.4063,7.3811,7.1955,7.0368,7.0368,7.0368,7.0368,7.0368,7.0368,7.0368,7.0368,7.0368,7.1484,7.4585,7.75,8.0413,8.3638,8.6507,8.8324,8.8324,8.8324,8.8324,8.8324,8.8324,8.7745,8.6763,8.5692,8.471,8.3773,8.2791,8.2176,8.2176,8.2176,8.2176,8.2176,8.2176,8.2176,5.4612,0.0,0.0,0.0,0.0,0.0,0.0,0.0,0.0,0.0,0.0,0.0,0.0,0.0,0.0,0.0,0.0,0.0,0.0,0.0,0.0,0.0,0.0,0.0,0.0,0.0,0.0,0.0,0.0,0.0,7.4071,7.9614,8.2803,8.2803,8.4208,8.4967,8.4967,8.4967,8.4967,8.4967,8.4967,8.4967,8.4967,8.4967,8.4967,8.4967,8.4967,8.4625,8.4018,8.36,8.2689,8.155,8.1095,8.0905,8.0829,8.0259,8.0032,8.0032,8.0032,8.0032,8.0032,8.0032,8.0032,8.0032,7.988,7.9691,7.9691,7.9691,7.9691,7.9691,7.9691,7.9691,7.92,7.7134,7.5723,7.447,7.2494,7.1265,7.0368,7.0368,7.0368,7.0368,7.0368,7.0368,7.0368,7.0368,7.0368,7.2201,7.7361,7.8753,8.1237,8.6507,8.7749,8.8324,8.8324,8.8324,8.8324,8.8324,8.8324,8.7745,8.6763,8.5692,8.471,8.3773,8.2791,8.2176,8.2176,8.2176,8.2176,8.2176,8.2176,8.2176,0.0,0.0,0.0,0.0,0.0,0.0,4.677,0.0,4.276,0.0,0.0,0.0,0.0,0.0,0.0,0.0,0.0,0.0,0.0,0.0,0.0,0.0,0.0,0.0,0.0,0.0,0.0,0.0,0.0,7.7754,7.7412,8.0943,8.3145,8.3486,8.4436,8.4967,8.4967,8.4967,8.4967,8.4967,8.4967,8.4967,8.4967,8.4967,8.4967,8.4967,8.4967,8.4701,8.4208,8.3866,8.3183,8.2309,8.2309,8.2082,8.1664,8.0829,8.0525,8.0487,8.0145,8.0032,8.0032,8.0032,8.0032,8.0032,8.0032,8.0032,8.0032,8.0032,8.0032,8.0032,8.0032,8.0032,7.9577,7.7323,7.6058,7.4655,7.2499,7.116,7.0368,7.0368,7.0368,7.0368,7.0368,7.0368,7.0368,7.0368,7.1484,7.4018,7.8753,8.0453,8.3053,8.7749,8.8324,8.8324,8.8324,8.8324,8.8324,8.8324,8.8324,8.7924,8.7343,8.6362,8.5335,8.4353,8.3416,8.2702,8.2176,8.2176,8.2176,8.2176,8.2176,8.2176,0.0,0.0,0.0,0.0,4.2796,0.0,0.0,0.0,0.0,0.0,0.0,0.0,0.0,0.0,0.0,0.0,0.0,0.0,0.0,0.0,0.0,0.0,0.0,0.0,0.0,0.0,7.7881,8.1095,8.2765,8.3259,8.2499,8.3297,8.4056,8.4777,8.4929,8.4967,8.4967,8.4967,8.4967,8.4967,8.4967,8.4967,8.4967,8.4967,8.4967,8.4967,8.4967,8.4967,8.4891,8.417,8.3828,8.3752,8.3752,8.3297,8.2499,8.1588,8.1246,8.1133,8.0335,8.0032,8.0032,8.0032,8.0032,8.0032,8.0032,8.0032,8.0032,8.0032,8.0032,8.0032,8.0032,8.0032,7.9614,7.7796,7.6351,7.4839,7.2928,7.1557,7.0513,7.0368,7.0368,7.0368,7.0368,7.0368,7.0368,7.0368,7.2879,7.5958,7.8892,8.1963,8.4855,8.7882,8.8324,8.8324,8.8324,8.8324,8.8324,8.8324,8.8324,8.8324,8.8324,8.7343,8.6406,8.5335,8.4308,8.3327,8.2479,8.2221,8.2176,8.2176,8.2176,8.23,0.0,0.0,0.0,0.0,0.0,4.3294,0.0,0.0,0.0,0.0,0.0,0.0,0.0,0.0,0.0,0.0,0.0,0.0,0.0,0.0,0.0,0.0,0.0,0.0,0.0,7.9721,8.0829,8.212,8.2537,8.2651,8.2461,8.3297,8.3828,8.398,8.4625,8.4967,8.4967,8.4967,8.4967,8.4967,8.4967,8.4967,8.4967,8.4967,8.4967,8.4967,8.4967,8.4967,8.4929,8.4777,8.4322,8.3752,8.3752,8.3638,8.3297,8.1816,8.1246,8.1133,8.0335,8.0032,8.0032,8.0032,8.0032,8.0032,8.0032,8.0032,8.0032,8.0032,8.0032,8.0032,8.0032,8.0032,7.9463,7.7168,7.6351,7.5426,7.2352,7.1557,7.1125,7.0513,7.0368,7.0368,7.0368,7.0368,7.0368,7.0368,7.2879,7.5958,7.8892,8.1963,8.4855,8.7882,8.8324,8.8324,8.8324,8.8324,8.8324,8.8324,8.8324,8.8324,8.8324,8.8013,8.7433,8.6451,8.4666,8.3684,8.346,8.2657,8.2176,8.2176,8.2176,8.2794,0.0,0.0,0.0,4.3294,0.0,0.0,0.0,0.0,0.0,0.0,0.0,0.0,0.0,0.0,0.0,0.0,0.0,0.0,0.0,0.0,0.0,0.0,0.0,0.0,0.0,8.2008,8.2044,8.2423,8.2879,8.3297,8.3676,8.4132,8.436,8.436,8.4739,8.4967,8.4967,8.4967,8.4967,8.4967,8.4967,8.4967,8.4967,8.4967,8.4967,8.4967,8.4967,8.4967,8.4967,8.4967,8.4701,8.436,8.436,8.436,8.4208,8.2955,8.2234,8.174,8.0943,8.0373,8.0032,8.0032,8.0032,8.0032,8.0032,8.0032,8.0032,8.0032,8.0032,8.0032,8.0032,8.0032,7.9614,7.7501,7.6351,7.5133,7.264,7.1557,7.0837,7.0368,7.0368,7.0368,7.0368,7.0368,7.0945,7.2344,7.5151,7.8197,8.1141,8.418,8.6641,8.8014,8.8324,8.8324,8.8324,8.8324,8.8324,8.8324,8.8324,8.8324,8.8324,8.8324,8.7924,8.7433,8.5469,8.3996,8.3014,8.2523,8.2176,8.2176,8.2176,8.2872,0.0,0.0,0.0,0.0,0.0,0.0,4.5927,4.7207,0.0,0.0,0.0,0.0,0.0,0.0,0.0,0.0,0.0,0.0,0.0,0.0,0.0,0.0,0.0,0.0,0.0,8.2461,8.2537,8.2689,8.3486,8.4322,8.5157,8.5043,8.4967,8.4967,8.4967,8.4967,8.4967,8.4967,8.4967,8.4967,8.4967,8.4967,8.4967,8.4967,8.4967,8.4967,8.4967,8.4967,8.4967,8.4967,8.4967,8.4967,8.4967,8.4967,8.4815,8.3866,8.3069,8.2309,8.136,8.0601,8.0032,8.0032,8.0032,8.0032,8.0032,8.0032,8.0032,8.0032,8.0032,8.0032,8.0032,8.0032,7.9652,7.8133,7.6611,7.5023,7.3256,7.1665,7.0513,7.0368,7.0368,7.0368,7.0368,7.0368,7.1233,7.3592,7.7081,8.0137,8.2645,8.5972,8.8324,8.8324,8.8324,8.8324,8.8324,8.8324,8.8324,8.8324,8.8324,8.8324,8.8324,8.8324,8.8324,8.8324,8.6406,8.4487,8.2568,8.2568,8.2355,8.2176,8.2176,8.2995,0.0,0.0,0.0,0.0,0.0,0.0,4.7554,5.2758,0.0,0.0,0.0,0.0,0.0,0.0,0.0,0.0,0.0,0.0,0.0,0.0,0.0,0.0,0.0,0.0,8.2423,8.2461,8.2765,8.3524,8.436,8.5195,8.6106,8.5385,8.4967,8.4967,8.4967,8.4967,8.4967,8.4967,8.4967,8.4967,8.4967,8.4967,8.4967,8.4967,8.4967,8.4967,8.4967,8.4967,8.4967,8.4967,8.4967,8.4967,8.4967,8.4967,8.4777,8.3183,8.2537,8.2234,8.0715,8.0107,8.0032,8.0032,8.0032,8.0032,8.0032,8.0032,8.0032,8.0032,8.0032,8.0032,8.0032,8.0032,7.9804,7.8855,7.7467,7.5796,7.4138,7.2498,7.1269,7.0548,7.0368,7.0368,7.0368,7.0368,7.0513,7.0801,7.5677,7.9446,7.9723,8.472,8.8324,8.8324,8.8324,8.8324,8.8324,8.8324,8.8324,8.8324,8.8324,8.8324,8.8324,8.8324,8.8324,8.8324,8.7076,8.5558,8.3594,8.3594,8.3148,8.2176,8.2176,8.3485,0.0,0.0,0.0,0.0,0.0,0.0,0.0,5.2224,0.0,0.0,0.0,0.0,0.0,0.0,0.0,0.0,0.0,0.0,0.0,0.0,0.0,0.0,0.0,0.0,0.0,8.3221,8.3562,8.4398,8.2993,8.3524,8.6827,8.622,8.5726,8.5726,8.5233,8.4967,8.4967,8.4967,8.4967,8.4967,8.4967,8.4967,8.4967,8.4967,8.4967,8.4967,8.4967,8.4967,8.4967,8.4967,8.4967,8.4967,8.4967,8.4967,8.4815,8.3638,8.2879,8.2309,8.1133,8.0449,8.0032,8.0032,8.0032,8.0032,8.0032,8.0032,8.0032,8.0032,8.0032,8.0032,8.0032,8.0032,7.9804,7.8969,7.7246,7.5355,7.4066,7.2245,7.0837,7.0368,7.0368,7.0368,7.0368,7.0368,7.1484,7.4972,7.7779,8.055,8.4002,8.6641,8.8324,8.8324,8.8324,8.8324,8.8324,8.8324,8.8324,8.8324,8.8324,8.8324,8.8324,8.8324,8.8324,8.8324,8.721,8.6004,8.4576,8.4041,8.355,8.3148,8.3265,8.4341,4.3828,0.0,0.0,0.0,0.0,0.0,0.0,0.0,0.0,0.0,0.0,0.0,0.0,0.0,0.0,0.0,0.0,0.0,0.0,0.0,0.0,0.0,0.0,0.0,0.0,0.0,0.0,0.0,8.341,8.3942,8.7359,8.7169,8.6789,8.6334,8.5688,8.5195,8.4967,8.4967,8.4967,8.4967,8.4967,8.4967,8.4967,8.4967,8.4967,8.4967,8.4967,8.4967,8.4967,8.4967,8.4967,8.4967,8.4967,8.4967,8.4853,8.4018,8.3183,8.2347,8.155,8.0715,8.0032,8.0032,8.0032,8.0032,8.0032,8.0032,8.0032,8.0032,8.0032,8.0032,8.0032,8.0032,7.988,7.9272,7.7099,7.5097,7.4361,7.2245,7.0368,7.0368,7.0368,7.0368,7.0368,7.0368,7.2058,7.7221,7.8753,8.11,8.6374,8.7749,8.8324,8.8324,8.8324,8.8324,8.8324,8.8324,8.8324,8.8324,8.8324,8.8324,8.8324,8.8324,8.819,8.779,8.7076,8.6183,8.5156,8.4755,8.4308,8.3728,8.4334,8.53,0.0,0.0,0.0,0.0,0.0,0.0,4.9223,0.0,0.0,0.0,0.0,0.0,0.0,0.0,0.0,0.0,0.0,0.0,0.0,0.0,0.0,0.0,0.0,0.0,0.0,0.0,0.0,0.0,8.7169,8.8232,8.7549,8.827,8.7966,8.6372,8.6296,8.584,8.4967,8.4967,8.4967,8.4967,8.4967,8.4967,8.4967,8.4967,8.4967,8.4967,8.4967,8.4967,8.4967,8.4967,8.4967,8.4967,8.4967,8.4967,8.4853,8.4018,8.3183,8.2347,8.155,8.0715,8.0032,8.0032,8.0032,8.0032,8.0032,8.0032,8.0032,8.0032,8.0032,8.0032,8.0032,8.0032,8.0032,7.9994,7.751,7.5282,7.5245,7.2644,7.0368,7.0368,7.0368,7.0368,7.0368,7.0368,7.1341,7.4585,7.75,8.0413,8.3503,8.6374,8.8324,8.8324,8.8324,8.8324,8.8324,8.8324,8.8324,8.8324,8.8324,8.8324,8.8324,8.8324,8.77,8.6763,8.6719,8.6183,8.5156,8.6138,8.5647,8.3773,8.506,8.6482,4.8837,4.816,4.7946,0.0,5.1653,4.9586,5.5075,0.0,0.0,0.0,0.0,0.0,0.0,0.0,0.0,0.0,0.0,0.0,0.0,0.0,0.0,0.0,0.0,0.0,0.0,0.0,0.0,0.0,0.0,0.0,8.8953,8.6258,8.5612,8.789,8.7397,8.641,8.4967,8.4967,8.4967,8.4967,8.4967,8.4967,8.4967,8.4967,8.4967,8.4967,8.4967,8.4967,8.4967,8.4967,8.4967,8.4967,8.4967,8.4967,8.4853,8.4018,8.3183,8.2347,8.155,8.0715,8.0032,8.0032,8.0032,8.0032,8.0032,8.0032,8.0032,8.0032,8.0032,8.0032,8.0032,8.0032,7.9729,7.871,7.6839,7.4986,7.3848,7.1881,7.0368,7.0368,7.0368,7.0368,7.0368,7.0368,7.2058,7.7081,7.8615,8.11,8.6106,8.7617,8.8324,8.8324,8.8324,8.8324,8.8324,8.8324,8.8324,8.8324,8.8324,8.8324,8.8324,8.8324,8.8145,8.77,8.7656,8.7165,8.6183,8.7447,8.7419,8.5932,8.6746,8.7334,5.062,5.0406,5.0652,5.6715,5.4434,5.2295,5.8462,6.0672,0.0,0.0,0.0,0.0,0.0,0.0,0.0,0.0,0.0,0.0,0.0,0.0,0.0,0.0,0.0,0.0,0.0,0.0,0.0,0.0,0.0,8.5043,8.9333,8.6751,8.641,8.9143,8.8118,8.6979,8.5878,8.5271,8.4967,8.4967,8.4967,8.4967,8.4967,8.4967,8.4967,8.4967,8.4967,8.4967,8.4967,8.4967,8.4967,8.4967,8.4967,8.4967,8.4891,8.436,8.3638,8.2803,8.1968,8.1171,8.0411,8.0145,8.0032,8.0032,8.0032,8.0032,8.0032,8.0032,8.0032,8.0032,8.0032,8.0032,7.9729,7.8748,7.7435,7.5761,7.3042,7.1411,7.0368,7.0368,7.0368,7.0657,7.1771,7.1915,7.4018,7.9999,8.0866,8.2645,8.7617,8.8324,8.8324,8.8324,8.8324,8.8324,8.8324,8.8324,8.8324,8.8324,8.8324,8.8324,8.8324,8.8324,8.8145,8.7656,8.8013,8.7879,8.7254,8.8643,8.856,8.7063,8.8293,8.856,5.0833,5.2402,5.3685,5.7214,5.6751,5.6323,0.0,0.0,0.0,0.0,0.0,0.0,0.0,0.0,0.0,0.0,0.0,0.0,0.0,0.0,0.0,0.0,0.0,0.0,0.0,0.0,0.0,0.0,8.7245,8.8688,8.8802,8.9523,8.9979,9.0016,8.8384,8.7511,8.7511,8.5802,8.4967,8.4967,8.4967,8.4967,8.4967,8.4967,8.4967,8.4967,8.4967,8.4967,8.4967,8.4967,8.4967,8.4967,8.4967,8.4967,8.4967,8.4929,8.436,8.3562,8.2689,8.1892,8.1057,8.0297,8.0032,8.0032,8.0032,8.0032,8.0032,8.0032,8.0032,8.0032,8.0032,8.0032,8.0032,8.0032,7.9351,7.728,7.2742,7.1046,7.0475,7.0404,7.0368,7.1233,7.416,7.4727,7.6801,8.2687,8.3638,8.4898,8.7882,8.8324,8.8324,8.8324,8.8324,8.8324,8.8324,8.8324,8.8324,8.8324,8.8324,8.8324,8.8324,8.8324,8.7745,8.6808,8.77,8.8324,8.8324,8.9596,8.92,8.7235,8.9863,9.0075,5.397,5.4469,5.5004,6.3987,6.2419,6.0244,0.0,0.0,6.6326,0.0,0.0,0.0,0.0,0.0,0.0,0.0,0.0,0.0,0.0,0.0,0.0,0.0,0.0,0.0,0.0,0.0,0.0,0.0,8.6182,8.7473,8.8726,8.8991,8.9371,8.9979,8.8384,8.7511,8.7511,8.5802,8.4967,8.4967,8.4967,8.4967,8.4967,8.4967,8.4967,8.4967,8.4967,8.4967,8.4967,8.4967,8.4967,8.4967,8.4967,8.4967,8.4891,8.4284,8.3524,8.2689,8.1854,8.1019,8.0297,8.0107,8.0032,8.0032,8.0032,8.0032,8.0032,8.0032,8.0032,8.0032,8.0032,8.0032,8.0032,8.0032,7.8446,7.6425,7.4653,7.3182,7.1794,7.0618,7.0368,7.0657,7.1377,7.3307,7.6099,7.9861,8.2372,8.4898,8.7882,8.8324,8.8324,8.8324,8.8324,8.8324,8.8324,8.8324,8.8324,8.8324,8.8324,8.8324,8.8324,8.8324,8.819,8.779,8.819,8.8324,8.8324,8.9596,8.9587,8.8571,9.0359,9.0607,5.3436,5.5182,5.7321,6.5235,6.3738,6.2205,6.9299,6.904,6.8752,7.3735,0.0,0.0,0.0,0.0,0.0,0.0,0.0,0.0,0.0,0.0,0.0,0.0,0.0,0.0,0.0,0.0,0.0,0.0,8.5575,8.6865,8.8156,8.8574,8.8991,8.9447,8.8194,8.7359,8.6979,8.565,8.4967,8.4967,8.4967,8.4967,8.4967,8.4967,8.4967,8.4967,8.4967,8.4967,8.4967,8.4967,8.4967,8.4929,8.4549,8.4436,8.4322,8.3486,8.3107,8.2841,8.1664,8.1171,8.0981,8.0259,8.0032,8.0032,8.0032,8.0032,8.0032,8.0032,8.0032,8.0032,8.0032,8.0032,8.0032,7.954,7.8105,7.6569,7.4946,7.3651,7.2258,7.0689,7.0368,7.1233,7.3876,7.5677,7.8197,8.2645,8.472,8.6374,8.8014,8.8324,8.8324,8.8324,8.8324,8.8324,8.8324,8.8324,8.8324,8.8324,8.8324,8.8324,8.8324,8.8324,8.8324,8.8324,8.8324,8.8324,8.8324,8.9664,8.9895,8.907,9.0622,9.0895,5.1261,5.4969,5.9353,6.3417,6.331,6.3904,6.9941,0.0,7.0985,0.0,7.7292,0.0,0.0,0.0,0.0,0.0,0.0,0.0,0.0,0.0,0.0,0.0,0.0,0.0,0.0,0.0,0.0,0.0,8.5119,8.6372,8.7321,8.8156,8.8688,8.8802,8.7966,8.7169,8.6486,8.5461,8.4967,8.4967,8.4967,8.4967,8.4967,8.4967,8.4967,8.4967,8.4967,8.4967,8.4967,8.4967,8.4967,8.4891,8.4056,8.3752,8.3638,8.2651,8.2841,8.3335,8.1664,8.1626,8.2044,8.0525,8.0032,8.0032,8.0032,8.0032,8.0032,8.0032,8.0032,8.0032,8.0032,8.0032,7.988,7.8896,7.8136,7.6818,7.4496,7.324,7.2258,7.0689,7.0368,7.2058,7.7221,7.8753,8.1237,8.6774,8.8014,8.8324,8.8324,8.8324,8.8324,8.8324,8.8324,8.8324,8.8324,8.8324,8.8324,8.8324,8.8324,8.8324,8.8324,8.8324,8.8324,8.8324,8.8324,8.8234,8.81,8.9587,8.9799,8.8837,9.0317,9.0622,5.1261,5.4149,5.7856,6.2419,6.6198,6.9008,6.964,7.1563,7.4492,7.908,8.0943,8.1833,0.0,0.0,0.0,0.0,0.0,0.0,0.0,0.0,0.0,0.0,0.0,0.0,0.0,0.0,0.0,0.0,0.0,8.4853,8.641,8.7283,8.808,8.8764,8.7966,8.7473,8.7321,8.5764,8.4967,8.4967,8.4967,8.4967,8.4967,8.4967,8.4967,8.4967,8.4967,8.4967,8.4967,8.4967,8.4967,8.4891,8.4056,8.3752,8.3562,8.2044,8.2006,8.2461,8.0829,8.0791,8.1322,8.0335,8.0032,8.0032,8.0032,8.0032,8.0032,8.0032,8.0032,8.0032,8.0032,8.0032,7.988,7.8896,7.8136,7.6666,7.3563,7.2757,7.2258,7.0689,7.0368,7.0657,7.1771,7.5958,8.055,8.4045,8.6641,8.8324,8.8324,8.8324,8.8324,8.8324,8.8324,8.8324,8.8324,8.8324,8.8324,8.8324,8.8324,8.8324,8.8324,8.8324,8.8324,8.8324,8.8324,8.779,8.6942,8.7283,8.7574,8.7857,8.816,8.8402,5.3222,5.4006,5.4541,5.7214,6.0173,6.4058,7.0357,7.263,7.484,8.0042,7.9255,7.809,7.9466,0.0,0.0,0.0,0.0,0.0,0.0,0.0,0.0,0.0,0.0,0.0,0.0,0.0,0.0,0.0,0.0,8.4474,8.622,8.7093,8.7511,8.7473,8.7511,8.7093,8.6182,8.5385,8.4967,8.4967,8.4967,8.4967,8.4967,8.4967,8.4967,8.4967,8.4967,8.4967,8.4967,8.4967,8.4967,8.4891,8.4056,8.3486,8.2917,8.1702,8.1512,8.1664,8.0449,8.0563,8.1133,8.0297,8.0032,8.0032,8.0032,8.0032,8.0032,8.0032,8.0032,8.0032,8.0032,8.0032,7.9729,7.8477,7.7536,7.6305,7.3939,7.2733,7.1794,7.0618,7.0368,7.0945,7.2842,7.6902,8.1374,8.5929,8.7617,8.8324,8.8324,8.8324,8.8324,8.8324,8.8324,8.8324,8.8324,8.8324,8.8324,8.8324,8.8324,8.8324,8.8324,8.8324,8.8324,8.8324,8.8324,8.77,8.6719,8.7555,8.7819,8.7699,8.7948,8.82,5.3828,5.3293,5.2152,5.4113,5.4755,5.7971,6.9638,7.2103,7.3648,7.954,7.76,7.5281,7.7064,7.6275,7.5172,0.0,0.0,0.0,0.0,0.0,0.0,0.0,0.0,0.0,0.0,0.0,0.0,0.0,0.0,0.0,8.565,8.6713,8.6979,8.6334,8.6941,8.66,8.5271,8.5043,8.4967,8.4967,8.4967,8.4967,8.4967,8.4967,8.4967,8.4967,8.4967,8.4967,8.4967,8.4967,8.4853,8.4625,8.379,8.2955,8.212,8.1284,8.1095,8.1133,8.0335,8.0563,8.1133,8.0297,8.0032,8.0032,8.0032,8.0032,8.0032,8.0032,8.0032,8.0032,8.0032,8.0032,7.9691,7.7951,7.6941,7.5904,7.406,7.2634,7.1366,7.0547,7.0368,7.1341,7.4085,7.784,8.188,8.642,8.7705,8.8324,8.8324,8.8324,8.8324,8.8324,8.8324,8.8324,8.8324,8.8324,8.8324,8.8324,8.8324,8.8324,8.8324,8.8324,8.8324,8.8324,8.8324,8.7698,8.675,8.798,8.82,8.7409,8.7773,8.7917,4.9938,5.0798,5.3044,5.8818,5.7143,5.6443,6.5394,6.8358,7.1052,7.8296,0.0,7.8932,7.7605,7.6734,7.5855,0.0,0.0,0.0,0.0,0.0,0.0,0.0,0.0,0.0,0.0,0.0,0.0,0.0,0.0,0.0,0.0,8.5537,8.6372,8.6296,8.6372,8.6334,8.6182,8.5385,8.4967,8.4967,8.4967,8.4967,8.4967,8.4967,8.4967,8.4967,8.4967,8.4967,8.4967,8.4967,8.4511,8.3752,8.2917,8.2082,8.1284,8.0449,8.0601,8.1133,8.0335,8.0563,8.1133,8.0297,8.0032,8.0032,8.0032,8.0032,8.0032,8.0032,8.0032,8.0032,8.0032,8.0032,7.9691,7.7997,7.6986,7.5721,7.3298,7.2056,7.1366,7.0547,7.0368,7.0513,7.0801,7.606,8.0234,8.0275,8.4855,8.8324,8.8324,8.8324,8.8324,8.8324,8.8324,8.8324,8.8324,8.8324,8.8324,8.8324,8.8324,8.8324,8.8324,8.8324,8.8324,8.8324,8.8324,8.7908,8.7119,8.7154,8.7009,8.6591,8.6634,8.6177,4.8802,4.9187,4.9866,5.3795,5.4377,5.5184,5.9147,6.3701,6.8575,0.0,7.4794,7.3435,7.0422,7.288,0.0,0.0,0.0,0.0,0.0,0.0,0.0,0.0,0.0,0.0,0.0,0.0,0.0,0.0,0.0,0.0,0.0,8.5385,8.6068,8.5499,8.603,8.603,8.5499,8.5119,8.4967,8.4967,8.4967,8.4967,8.4967,8.4967,8.4967,8.4967,8.4967,8.4967,8.4929,8.4436,8.4018,8.3638,8.2803,8.1968,8.1208,8.0905,8.0677,8.0487,8.0145,8.0259,8.0449,8.0145,8.0032,8.0032,8.0032,8.0032,8.0032,8.0032,8.0032,8.0032,8.0032,8.0032,7.969,7.7916,7.6131,7.4545,7.3592,7.2063,7.076,7.044,7.0368,7.1628,7.5639,7.8535,8.147,8.4769,8.7262,8.8675,8.8324,8.8324,8.8324,8.8324,8.8324,8.8324,8.8324,8.8324,8.8324,8.8324,8.8324,8.8324,8.8324,8.8324,8.8324,8.8324,8.8324,8.7818,8.7108,8.722,8.7045,8.6491,8.5888,8.5503,4.6948,4.6912,4.6948,4.9866,5.149,5.3603,5.7954,6.1585,6.5585,7.0746,7.2149,7.109,6.7212,0.0,0.0,0.0,0.0,0.0,0.0,0.0,0.0,0.0,0.0,0.0,0.0,0.0,0.0,0.0,0.0,0.0,0.0,8.4511,8.5005,8.4587,8.5195,8.5233,8.4587,8.4815,8.4967,8.4967,8.4967,8.4967,8.4967,8.4967,8.4967,8.4967,8.4967,8.4967,8.4929,8.4322,8.3828,8.3297,8.2423,8.1626,8.0905,8.0905,8.0525,8.0032,8.0032,8.0032,8.0032,8.0032,8.0032,8.0032,8.0032,8.0032,8.0032,8.0032,7.9842,7.9652,7.9652,7.9462,7.8931,7.7195,7.5383,7.37,7.3298,7.163,7.0368,7.0368,7.0368,7.2201,7.7979,7.9642,8.2016,8.7129,8.863,8.8939,8.8279,8.8324,8.8324,8.8324,8.8324,8.8324,8.8324,8.8324,8.8324,8.8324,8.8324,8.8324,8.8324,8.8324,8.8324,8.8324,8.8324,8.8078,8.7693,8.755,8.7206,8.6476,8.5551,8.4974,4.3454,4.3934,4.55,4.9479,4.9492,5.1683,6.3827,6.2999,6.1749,6.9076,7.3506,7.4933,7.0711,7.0692,0.0,0.0,0.0,0.0,0.0,0.0,0.0,0.0,0.0,0.0,0.0,0.0,0.0,0.0,0.0,0.0,0.0,8.2499,8.2879,8.3714,8.3752,8.3752,8.3752,8.4549,8.4967,8.4967,8.4967,8.4967,8.4967,8.4967,8.4967,8.4967,8.4967,8.4967,8.4967,8.4929,8.398,8.2423,8.1588,8.0753,8.0032,8.0032,8.0032,8.0032,8.0032,8.0032,8.0032,8.0032,8.0032,8.0032,8.0032,8.0032,8.0032,8.0032,7.9424,7.8779,7.8779,7.8171,7.719,7.5449,7.45,7.3408,7.1882,7.0981,7.0368,7.0368,7.0368,7.1484,7.5216,7.8257,8.1333,8.4407,8.7262,8.8939,8.8279,8.8324,8.8324,8.8324,8.8324,8.8324,8.8324,8.8324,8.8324,8.8324,8.8324,8.8324,8.8324,8.8324,8.8324,8.8324,8.8324,8.8468,8.8946,8.792,8.714,8.6618,8.5657,8.4584,4.3294,4.3899,4.6246,5.3395,5.1905,5.1877,6.433,6.306,6.1644,7.0541,6.8034,6.4012,6.3294,0.0,0.0,0.0,7.2287,0.0,7.5172,7.5855,0.0,0.0,0.0,0.0,0.0,0.0,0.0,0.0,0.0,0.0,0.0,8.2158,8.2613,8.2879,8.2879,8.3145,8.3752,8.398,8.4398,8.4929,8.4398,8.4398,8.4967,8.4967,8.4967,8.4967,8.4967,8.4967,8.4929,8.436,8.3486,8.2347,8.0943,8.0259,8.0032,8.0032,8.0032,8.0032,8.0032,8.0032,8.0032,8.0032,7.9652,7.9158,7.9158,7.8779,7.8323,7.8323,7.8133,7.7792,7.7184,7.6425,7.5598,7.4475,7.3684,7.2748,7.1737,7.0981,7.0368,7.0368,7.2451,7.5075,7.8257,8.1291,8.4322,8.7395,8.8279,8.8411,8.8279,8.8324,8.8324,8.8324,8.8324,8.8324,8.8324,8.8324,8.8324,8.8324,8.8324,8.8324,8.8324,8.8324,8.8324,8.8324,8.6808,8.7064,8.907,8.5896,8.5174,8.6682,8.4877,8.3852,4.3312,4.3685,4.5909,5.363,5.191,5.166,6.4798,6.1653,5.8666,6.8587,6.4871,6.0393,0.0,0.0,6.8338,7.0464,7.2097,7.3539,7.4792,7.5438,7.6045,7.6918,0.0,0.0,0.0,0.0,0.0,0.0,0.0,0.0,8.1246,8.1436,8.1702,8.2006,8.2006,8.2272,8.2803,8.3107,8.3524,8.4018,8.3486,8.3524,8.4018,8.436,8.4474,8.4511,8.4815,8.4777,8.4436,8.3942,8.3069,8.1892,8.0905,8.0297,8.0032,8.0032,7.9842,7.9538,7.9538,7.9348,7.9082,7.9082,7.8741,7.8285,7.8285,7.7943,7.7564,7.7564,7.7298,7.6842,7.5969,7.5219,7.4452,7.3598,7.2884,7.1988,7.1269,7.0657,7.0368,7.0368,7.3164,7.6482,7.9642,8.2561,8.5483,8.8762,8.8675,8.8324,8.8324,8.8324,8.8324,8.8324,8.8324,8.8324,8.8324,8.8324,8.8324,8.8324,8.8324,8.8324,8.8324,8.8324,8.8013,8.7611,8.6004,8.6249,8.851,8.5149,8.4721,8.6682,8.4974,8.39,4.3187,4.3365,4.4961,5.1545,5.0355,5.1086,6.5105,5.9219,5.3711,6.3939,6.3511,6.2084,0.0,6.4466,6.4693,6.8946,7.0123,7.1451,7.4223,0.0,7.4982,7.5741,7.6653,0.0,0.0,0.0,0.0,0.0,0.0,0.0,8.1133,8.0449,8.0373,8.1133,8.1171,8.1208,8.1246,8.2006,8.2196,8.1854,8.2196,8.2272,8.2044,8.3145,8.3638,8.3676,8.4132,8.4018,8.3524,8.3145,8.2234,8.1057,8.1019,8.0525,7.9842,7.9842,7.9348,7.8665,7.8665,7.8171,7.7564,7.7564,7.7526,7.745,7.745,7.7412,7.7374,7.7374,7.6766,7.5931,7.5172,7.4452,7.3598,7.2884,7.2131,7.1269,7.0548,7.0368,7.0368,7.0368,7.3022,7.638,7.978,8.2467,8.5258,8.8762,8.8675,8.8324,8.8324,8.8324,8.8324,8.8324,8.8324,8.8324,8.8324,8.8324,8.8324,8.8324,8.8324,8.8324,8.8324,8.8234,8.7656,8.6719,8.5469,8.575,8.7623,8.5455,8.5195,8.6731,8.5657,8.4584,4.3863,4.3792,4.5829,5.6172,5.3216,5.1426,6.5147,5.8693,5.3032,6.3821,5.898,5.4774,0.0,6.0517,0.0,6.5377,7.0996,7.3919,0.0,0.0,0.0,0.0,7.316,7.3995,7.483,0.0,0.0,0.0,0.0,0.0,8.0297,8.0145,8.0107,8.0297,8.0335,8.0639,8.1246,8.1436,7.9614,7.5817,7.969,8.0183,7.7792,8.1208,8.2765,8.2613,7.9576,7.9614,8.155,7.764,7.7374,7.9272,7.8665,7.8323,7.8133,7.8133,7.8019,7.783,7.783,7.7716,7.7564,7.7564,7.707,7.6501,7.6501,7.6083,7.559,7.559,7.5438,7.521,7.502,7.4452,7.3598,7.2884,7.2131,7.1269,7.0548,7.0368,7.0368,7.0368,7.5113,7.9504,8.088,8.4903,8.8366,8.9813,8.8939,8.8324,8.8324,8.8324,8.8324,8.8324,8.8324,8.8324,8.8324,8.8324,8.8324,8.8324,8.8324,8.8324,8.8324,8.7433,8.6942,8.6719,8.3505,8.3789,8.7746,8.4053,8.3819,8.6731,8.5657,8.4584,4.3721,4.4183,4.6442,5.4908,5.1915,4.9527,5.9492,5.5102,5.1602,6.0743,5.8345,5.5885,0.0,0.0,6.3327,6.177,0.0,7.0274,6.7996,6.9439,0.0,0.0,0.0,7.3919,7.3236,7.6994,7.9614,0.0,0.0,8.0032,8.0032,8.0032,8.0032,8.0032,7.9652,7.9652,8.0107,8.0487,7.8361,7.3767,7.8475,7.8703,7.521,7.9804,8.1892,8.1778,0.0,7.9348,8.0449,7.7336,7.688,7.8171,7.7716,7.7564,7.7564,7.7564,7.7564,7.7488,7.707,7.6691,7.6387,7.6387,7.6045,7.5628,7.5628,7.5324,7.4982,7.4982,7.4982,7.4982,7.4557,7.3883,7.317,7.2274,7.1557,7.0837,7.0548,7.0368,7.0368,7.0368,7.5779,8.0331,8.0509,8.5306,8.9202,8.9334,8.8675,8.8324,8.8324,8.8324,8.8324,8.8324,8.8324,8.8324,8.8324,8.8324,8.8324,8.8324,8.8324,8.81,8.7522,8.7638,8.6951,8.5553,8.3594,8.387,8.643,8.4279,8.4102,8.5999,8.5901,8.5023,4.3472,4.4468,4.6636,5.1529,4.9151,4.7046,5.2974,5.1208,5.0127,5.679,5.8733,5.9264,5.9264,6.4504,6.625,5.8543,6.0973,6.4086,0.0,0.0,0.0,6.5339,0.0,7.4223,7.2666,7.6425,7.9272,7.9994,8.0032,8.0032,8.0032,8.0032,8.0032,8.0032,7.9348,7.8893,7.8779,7.9462,7.7716,7.3577,7.7943,7.783,7.3881,7.8817,8.1057,8.1019,0.0,7.9994,7.9728,7.8247,7.7526,7.7336,7.7222,7.7146,7.7146,7.7146,7.7146,7.7032,7.6273,7.5552,7.4982,7.4982,7.4982,7.4982,7.4982,7.4982,7.4982,7.4982,7.4982,7.4699,7.4026,7.317,7.2274,7.17,7.0945,7.0368,7.0368,7.0368,7.0513,7.0945,7.606,8.0234,8.0137,8.5215,8.9071,8.8411,8.8279,8.8324,8.8324,8.8324,8.8324,8.8324,8.8324,8.8324,8.8324,8.8324,8.8324,8.8324,8.8324,8.7745,8.6763,8.797,8.7372,8.4737,8.444,8.4591,8.5201,8.501,8.5117,8.5413,8.6341,8.5755,4.4148,4.4229,4.5673,5.1769,4.9283,4.6991,5.3315,5.1622,4.9981,5.4595,5.5658,5.5772,5.5772,5.6721,5.7252,5.6531,5.767,6.01,6.4352,6.6022,6.6364,6.5111,0.0,0.0,7.2249,7.6956,7.988,8.0032,8.0032,8.0032,8.0032,8.0032,8.0032,8.0032,7.9918,7.95,7.8779,7.8893,7.6842,7.2742,7.7678,7.783,7.3881,7.8209,8.0221,8.0032,0.0,0.0,7.8627,7.4223,7.3995,7.6349,7.5665,7.5362,7.5362,7.5362,7.5362,7.5362,7.521,7.5096,7.4982,7.4982,7.4982,7.4982,7.4982,7.4982,7.4982,7.4982,7.4557,7.4026,7.3883,7.2741,7.17,7.1557,7.0945,7.0368,7.0368,7.0368,7.1089,7.3734,7.7461,8.1059,8.3554,8.6863,8.9202,8.9071,8.8543,8.8324,8.8324,8.8324,8.8324,8.8324,8.8324,8.8324,8.8324,8.8324,8.8324,8.8324,8.8324,8.7745,8.6763,8.797,8.8199,8.7192,8.4589,8.4262,8.63,8.5344,8.5502,8.6487,8.6682,8.6585,4.5035,4.5064,4.5637,4.8626,4.7675,4.7042,5.049,4.9974,4.9905,5.3569,5.4671,5.5012,5.5012,5.6493,5.7404,5.6379,5.8467,6.1163,6.3934,0.0,6.7465,6.5225,0.0,0.0,0.0,0.0,7.8361,7.9272,7.9348,7.9538,8.0032,8.0032,8.0032,8.0032,7.9576,7.9386,7.9462,7.9462,7.7336,7.3198,7.783,7.6615,7.054,7.707,7.8779,7.6615,7.6501,7.7336,7.8513,7.5286,7.483,7.6121,7.5324,7.4982,7.4982,7.4982,7.4982,7.4982,7.4982,7.4982,7.4982,7.4982,7.4982,7.4982,7.4982,7.4982,7.4982,7.4982,7.4452,7.3741,7.3313,7.2418,7.1413,7.0981,7.0657,7.0368,7.0368,7.0368,7.1341,7.4689,7.8396,8.1743,8.4272,8.7528,8.9465,8.8807,8.8411,8.8324,8.8324,8.8324,8.8324,8.8324,8.8324,8.8324,8.8324,8.8324,8.8324,8.8324,8.8444,8.8208,8.7712,8.7945,8.8309,8.8723,8.6305,8.4921,8.4972,8.5601,8.5875,8.5901,8.7073,8.7317,4.7007,0.0,4.7616,4.8503,4.842,4.8382,0.0,4.9291,4.9773,5.2355,5.4025,5.4746,5.3949,5.6569,5.7974,5.5202,5.8961,6.2226,6.2264,6.5908,0.0,6.5529,0.0,0.0,0.0,7.5058,7.707,7.8399,7.8665,7.9044,7.969,7.9918,8.0032,8.0032,7.9386,7.9386,8.0032,8.0032,7.8399,7.5248,7.8475,7.6121,6.9173,7.6653,7.7716,7.3919,7.7526,7.9082,7.8931,7.7222,7.6501,7.6425,7.54,7.4982,7.4982,7.4982,7.4982,7.4982,7.4982,7.4982,7.4982,7.4982,7.4982,7.4982,7.4982,7.4982,7.4982,7.484,7.4168,7.3456,7.2561,7.1844,7.1125,7.0513,7.0368,7.0368,7.0368,7.0368,7.1628,7.6022,7.9366,8.2425,8.5349,8.819,8.9682,8.8411,8.8324,8.8324,8.8324,8.8324,8.8324,8.8324,8.8324,8.8324,8.8324,8.8324,8.8322,8.8361,8.8507,8.8514,8.8439,8.8169,8.8459,8.919,8.8087,8.6438,8.4291,8.595,8.6341,8.556,8.7512,8.8098,0.0,5.2499,5.3474,5.6544,5.4596,5.2192,5.3241,5.1557,0.0,5.0171,5.281,5.4063,5.0854,5.3114,5.4291,5.0891,5.6607,6.0555,0.0,6.1542,0.0,0.0,0.0,0.0,0.0,7.7298,7.7526,7.764,7.8323,7.8779,7.8855,7.9614,8.0032,8.0032,7.9994,7.9994,8.0032,8.0032,7.988,7.9576,7.988,7.764,7.3426,7.7981,7.7716,0.0,7.8133,7.9956,7.9804,7.8133,7.745,7.7298,7.5628,7.4982,7.4982,7.4982,7.4982,7.4982,7.4982,7.4982,7.4982,7.4982,7.4982,7.4982,7.4982,7.4982,7.484,7.4168,7.3456,7.2561,7.1844,7.0981,7.0368,7.0368,7.0368,7.0368,7.0368,7.0368,7.2344,7.8674,8.0743,8.3105,8.8057,8.9551,8.9682,8.8411,8.8324,8.8324,8.8324,8.8324,8.8324,8.8324,8.8324,8.8324,8.8324,8.8324,8.8271,8.8622,8.8614,8.8382,8.778,8.8892,8.9095,8.8163,8.927,8.8732,8.6536,8.6682,8.6682,8.6682,8.7854,8.8928,5.1286,5.413,5.6792,5.803,5.7801,5.6668,5.4908,5.3797,5.2544,5.0361,5.0929,5.1519,5.0171,5.0967,5.2165,5.3,5.6379,6.0024,0.0,0.0,0.0,0.0,0.0,0.0,0.0,0.0,7.3919,7.6501,7.5096,7.5476,7.8589,7.9082,7.9234,7.9234,7.9766,8.0032,8.0032,8.0032,8.0032,8.0032,8.0032,7.783,7.3881,7.8095,7.745,7.3236,7.7981,7.8247,0.0,7.6956,7.6007,7.3729,7.464,7.4982,7.4982,7.4982,7.4982,7.4982,7.4982,7.4982,7.4982,7.4982,7.4982,7.4982,7.4982,7.4736,7.4168,7.3313,7.2561,7.1844,7.1557,7.0981,7.0368,7.0368,7.0368,7.0368,7.0368,7.1771,7.4547,7.9366,8.2016,8.4769,8.8498,8.9465,8.9334,8.8411,8.8324,8.8324,8.8324,8.8324,8.8324,8.8324,8.8324,8.8324,8.8324,8.8939,8.9273,8.866,8.9672,8.9816,8.8892,8.955,8.9685,8.9297,8.9134,8.8293,8.6731,8.6048,8.6097,8.678,8.8586,8.9269,5.4612,5.8159,6.1691,6.2433,6.2094,6.0745,5.7366,0.0,5.4063,5.0626,4.9944,4.9944,4.9944,4.9944,5.1043,5.4443,5.6151,0.0,0.0,0.0,0.0,0.0,0.0,0.0,0.0,0.0,7.278,7.559,7.3957,7.4337,7.7792,7.8475,7.8665,7.8399,7.8931,7.9386,7.9652,7.9652,7.9652,7.9652,7.9918,7.7564,7.3084,7.7602,7.7032,7.2742,7.7298,7.6842,7.3084,7.5969,7.483,7.1527,7.4033,7.4982,7.4982,7.4982,7.4982,7.4982,7.4982,7.4982,7.4982,7.4982,7.4982,7.4982,7.4699,7.4168,7.3456,7.2884,7.2131,7.1557,7.1269,7.1521,7.1771,7.1771,7.2487,7.3164,7.3164,7.4868,7.7321,8.1291,8.3554,8.5751,8.9025,8.9334,8.9071,8.8279,8.8324,8.8324,8.8324,8.8324,8.8324,8.8324,8.8324,8.8324,8.8324,8.9148,8.942,8.8796,8.9958,9.0388,8.9695,8.9921,9.0001,9.0001,8.9318,8.8195,8.6731,8.5999,8.5853,8.6292,8.8147,8.8816,6.1939,6.5578,6.8504,7.0803,6.8148,6.4162,0.0,0.0,5.4101,5.0626,4.9944,4.9944,4.9944,4.9944,5.1043,5.4481,0.0,0.0,6.196,0.0,0.0,0.0,0.0,0.0,0.0,0.0,7.4944,7.4944,7.5665,0.0,7.6197,7.783,7.8361,7.7564,7.7564,7.7943,7.8741,7.8741,7.8741,7.8779,7.9614,7.6956,7.1527,7.6501,7.6501,7.2742,7.6083,7.6045,0.0,7.5476,7.4223,7.1451,7.3995,7.4982,7.4982,7.4982,7.4982,7.4982,7.4982,7.4982,7.4982,7.4982,7.4982,7.484,7.4026,7.3313,7.2704,7.2741,7.2131,7.1413,7.0513,7.263,7.4868,7.4868,7.7081,7.9308,7.9308,7.9308,8.0647,8.5129,8.5306,8.5885,8.9551,8.9727,8.8939,8.8279,8.8324,8.8324,8.8324,8.8324,8.8324,8.8324,8.8324,8.8324,8.8279,8.8514,8.8796,8.8992,8.9365,8.9695,8.9933,9.0001,9.0001,9.0001,9.0001,8.8928,8.6731,8.6731,8.6194,8.5169,8.6243,8.7469,6.0831,6.5851,7.1137,7.1375,7.035,6.7769,0.0,0.0,5.6948,5.1119,4.9944,5.0134,5.0798,5.0418,5.1195,0.0,0.0,5.9188,6.5149,0.0,0.0,0.0,0.0,0.0,0.0,0.0,0.0,7.1489,7.1717,7.3122,7.6045,7.6691,7.6842,7.6615,7.7222,7.7678,7.7905,7.7905,7.7905,7.7905,7.8171,7.7374,7.5741,7.7222,7.688,7.521,7.6842,7.3767,0.0,7.3805,7.2514,6.7389,7.2856,7.4982,7.4982,7.4982,7.4982,7.4982,7.4982,7.4982,7.4982,7.4982,7.4736,7.4026,7.2561,7.1988,7.17,7.1269,7.0837,7.0657,7.0368,7.263,7.5395,7.75,7.8615,7.9308,7.9308,8.1004,8.3053,8.4726,8.6286,8.7705,8.9202,8.8939,8.8411,8.8279,8.8324,8.8324,8.8324,8.8324,8.8324,8.8324,8.8324,8.7879,8.721,8.9054,8.9533,8.8137,8.9957,9.0649,9.005,9.0001,9.0001,9.0001,8.9269,8.8195,8.6731,8.5999,8.5462,8.5169,8.6629,8.8055,6.3796,6.8107,7.2362,7.1907,7.1527,6.9667,6.3441,0.0,0.0,5.3114,5.0854,5.057,5.2431,5.2355,5.338,0.0,0.0,0.0,0.0,0.0,0.0,0.0,0.0,0.0,0.0,0.0,0.0,7.1907,7.1983,7.3084,7.559,7.5703,7.5703,7.5703,7.5985,7.6401,7.6994,7.6449,7.6449,7.7032,7.7081,7.6892,7.6539,7.688,7.6729,7.6235,7.6136,7.2669,0.0,7.2592,7.1291,6.6608,7.1928,7.413,7.413,7.4415,7.4415,7.413,7.4452,7.4415,7.413,7.413,7.3561,7.2704,7.1844,7.1269,7.0945,7.0548,7.0368,7.0368,7.0368,7.1628,7.416,7.8337,8.11,8.2917,8.2917,8.4315,8.5795,8.642,8.7439,8.8411,8.9071,8.8675,8.8324,8.8324,8.8324,8.8324,8.8324,8.8324,8.8324,8.8324,8.7834,8.7605,8.7498,8.8774,8.9179,8.8404,9.003,9.0685,9.005,9.0001,9.0001,9.0001,8.8976,8.7854,8.6731,8.6324,8.5975,8.5579,8.7711,8.9022,6.874,7.1366,7.2628,7.2628,7.1983,7.0198,6.5643,0.0,0.0,5.5278,5.2127,5.0891,5.4101,5.4671,0.0,0.0,0.0,5.9492,0.0,0.0,0.0,0.0,0.0,0.0,0.0,0.0,0.0,0.0,7.4527,7.464,7.4982,7.4982,7.4982,7.4982,7.431,7.4506,7.5795,7.4534,7.4496,7.5939,7.6045,7.5594,7.4878,7.5598,7.5795,7.5758,7.4325,7.2285,0.0,7.1955,7.0651,6.8005,7.1452,7.2741,7.2741,7.3456,7.3313,7.2847,7.3456,7.3313,7.2741,7.2741,7.2131,7.1413,7.1413,7.0981,7.0368,7.0368,7.0368,7.0368,7.0657,7.0945,7.263,7.8337,8.4137,8.8324,8.8324,8.8324,8.8411,8.9071,8.8675,8.8411,8.9071,8.8675,8.8324,8.8324,8.8324,8.8324,8.8324,8.8324,8.8279,8.819,8.7385,8.7278,8.834,8.8029,8.831,8.9429,8.983,9.0001,9.0001,9.0001,9.0001,9.0001,8.9061,8.8098,8.6957,8.7495,8.7313,8.6354,8.9063,9.0265,6.7658,7.0652,7.3463,7.3463,7.2856,7.0464,6.363,6.1011,0.0,0.0,0.0,5.0361,5.1823,0.0,5.4329,0.0,0.0,0.0,0.0,0.0,0.0,0.0,0.0,0.0,0.0,0.0,0.0,0.0,7.1072,7.2211,7.483,7.4982,7.4699,7.4168,7.3883,7.3673,7.3392,7.3105,7.3142,7.3392,7.3434,7.336,7.317,7.3318,7.3392,7.3392,7.3101,7.1114,6.8458,7.1452,7.0651,6.8005,7.1452,7.2741,7.2704,7.2884,7.2847,7.2704,7.2884,7.2847,7.2741,7.2741,7.17,7.0693,7.0693,7.0548,7.0368,7.0368,7.0368,7.0945,7.3307,7.5677,7.8337,8.1963,8.557,8.8324,8.8324,8.8324,8.8411,8.9071,8.8675,8.8411,8.9071,8.8675,8.8324,8.8324,8.8324,8.8324,8.8324,8.8324,8.7879,8.712,8.7718,8.772,8.6504,8.8102,8.8949,8.845,8.9394,9.0001,9.0001,9.0001,9.0001,9.0001,8.9754,8.9337,8.8694,8.8791,8.8604,8.7982,8.9895,9.0294,6.7143,6.9933,7.3046,7.2628,7.2249,7.0768,6.644,0.0,0.0,0.0,0.0,5.2544,5.3,0.0,0.0,0.0,0.0,0.0,0.0,0.0,0.0,0.0,0.0,0.0,0.0,0.0,0.0,0.0,7.24,7.3021,7.4339,7.484,7.4699,7.3883,7.317,7.2741,7.2741,7.1988,7.1988,7.2741,7.2274,7.2274,7.2741,7.2741,7.2741,7.2741,7.2274,7.1182,6.9582,7.1011,7.0542,6.9063,7.0905,7.1557,7.17,7.1988,7.1844,7.17,7.1988,7.1844,7.1557,7.1557,7.0981,7.0657,7.2058,7.2487,7.2736,7.4302,7.4727,7.4972,7.652,7.8197,7.9999,8.3095,8.4989,8.6507,8.7882,8.8324,8.8279,8.8675,8.8411,8.8324,8.8675,8.8411,8.8324,8.8324,8.8324,8.8324,8.8324,8.8402,8.7988,8.6996,8.76,8.7997,8.767,8.8324,8.888,8.8944,8.965,9.0468,9.1645,9.1645,9.222,9.3311,9.1964,9.1163,9.0946,9.0319,8.994,8.9735,9.0776,9.1304,6.7233,6.9667,7.2173,7.1641,7.1375,7.0958,6.9667,6.7085,0.0,0.0,0.0,5.5772,5.5468,5.5961,5.7822,6.2074,0.0,0.0,0.0,0.0,6.8984,0.0,0.0,0.0,0.0,0.0,0.0,0.0,0.0,7.3134,7.2472,7.2994,7.3473,7.3517,7.2092,7.1699,7.2274,7.0981,7.0981,7.2274,7.17,7.17,7.2274,7.2274,7.1982,7.1469,7.1303,0.0,7.0475,7.0442,7.0368,7.0368,7.0368,7.0368,7.0368,7.1125,7.0981,7.0548,7.1125,7.0981,7.0368,7.0945,7.1089,7.1628,7.4727,7.5536,7.6099,7.8615,7.9308,7.9446,7.9999,8.0137,8.0866,8.3774,8.4456,8.4951,8.7705,8.819,8.81,8.8279,8.8013,8.81,8.8279,8.8324,8.8324,8.8324,8.8324,8.8234,8.7924,8.8203,8.793,8.6926,8.7596,8.8385,8.9285,8.8784,8.8896,8.9884,9.0352,9.1364,9.312,9.352,9.4425,9.6202,9.4043,9.278,9.2674,9.197,9.1464,9.1411,9.1625,9.2199,6.9027,7.1034,7.1603,7.2211,7.1793,7.0502,6.7427,6.5832,6.4238,6.1618,0.0,0.0,5.755,0.0,5.8695,6.2909,0.0,6.5718,6.8338,6.9439,6.9857,6.9401,6.9743,7.1337,7.464,7.4602,7.4245,7.3988,6.965,6.6838,6.6838,6.6838,6.843,7.1807,7.0967,7.0583,7.0657,7.0513,7.0513,7.0657,7.0548,7.0548,7.0657,7.0657,6.9189,6.6755,6.9334,6.8977,6.669,6.9263,7.0368,7.0368,7.0368,7.0368,7.0368,7.0513,7.0548,7.0368,7.0513,7.0368,7.0801,7.3449,7.4302,7.4868,7.7779,7.8753,7.8753,7.9169,7.9308,7.9861,8.2509,8.3231,8.3909,8.6951,8.6951,8.6727,8.7968,8.7477,8.7165,8.8145,8.7477,8.7165,8.8145,8.8324,8.8324,8.8324,8.8324,8.7879,8.7031,8.7162,8.688,8.6001,8.8038,8.9022,8.8307,8.9228,8.9767,9.0001,9.1875,9.2628,9.1891,9.3453,9.4022,9.3138,9.3303,9.3183,9.2667,9.3514,9.3554,9.3115,9.2211,9.1271,6.4364,6.7731,7.0654,7.1034,7.0844,7.0198,6.868,6.8072,6.6933,6.3972,6.158,0.0,0.0,0.0,0.0,0.0,0.0,0.0,6.9287,6.8376,6.7883,0.0,7.0009,0.0,7.464,7.4283,7.2806,0.0,6.9566,6.8703,6.8333,6.8299,6.8986,7.0159,6.9953,6.9432,6.9085,6.9513,6.9727,6.9762,7.019,7.0368,7.0368,7.0368,6.962,6.8408,0.0,6.962,6.8443,6.9798,7.0368,7.0368,7.0368,7.0368,7.0368,7.0368,7.0368,7.0368,7.0368,7.0368,7.0513,7.1915,7.3449,7.5395,7.8337,8.0413,8.2099,8.3867,8.4272,8.4585,8.5972,8.624,8.6509,8.7214,8.7031,8.6808,8.7254,8.7031,8.7117,8.8496,8.7998,8.7019,8.6625,8.6495,8.6495,8.6495,8.6495,8.6138,8.5156,8.6435,8.6994,8.6053,8.8258,9.0205,9.1018,9.1595,9.2513,9.3877,9.4949,9.543,9.515,9.5956,9.6273,9.6027,9.5352,9.4856,9.4654,9.4111,9.3707,9.351,9.1653,9.0834,6.0396,6.4524,6.8815,6.9555,6.9744,6.9611,6.9479,6.9611,6.9101,6.6794,6.4344,6.1922,0.0,0.0,0.0,6.4352,6.3782,0.0,7.0464,6.9097,0.0,6.9515,0.0,7.0274,7.1679,7.1664,0.0,0.0,6.8827,6.9254,6.8599,6.8352,6.8525,6.8851,6.8671,6.8393,6.8087,6.8657,6.8942,6.8942,6.9513,6.9798,6.9798,6.9798,6.937,6.8622,6.9441,6.9335,6.8657,6.9691,7.0083,7.0119,7.0297,7.0368,7.0368,7.0368,7.0368,7.0333,6.9941,7.0191,7.1047,7.1721,7.3942,7.697,7.9855,8.2337,8.4567,8.6862,8.7388,8.7388,8.7388,8.7388,8.721,8.6495,8.6138,8.6004,8.6272,8.6138,8.6312,8.7548,8.7408,8.6475,8.5105,8.4978,8.5156,8.5156,8.5156,8.471,8.355,8.5731,8.7241,8.6996,8.9318,9.1875,9.4164,9.4389,9.5121,9.6891,9.7173,9.7291,9.7484,9.7526,9.7538,9.7538,9.6212,9.5473,9.5473,9.4199,9.3401,9.3073,9.0943,9.0287,6.0136,6.3658,6.5735,6.8425,6.9081,6.8815,6.8149,6.8549,6.9268,6.9733,6.963,6.9249,0.0,0.0,6.7351,6.9363,6.9591,7.073,7.4223,7.4564,7.3084,0.0,0.0,0.0,0.0,0.0,0.0,6.6929,0.0,6.3797,6.3797,6.3047,6.4369,6.798,6.7338,6.7303,6.8087,6.8122,6.8158,6.8158,6.8194,6.8194,6.8194,6.8194,6.659,6.388,6.691,6.6518,6.4023,6.7766,6.9299,6.937,7.0083,7.0368,7.0368,7.0368,7.0368,7.019,6.8729,6.9969,7.2613,7.5428,7.8283,8.1099,8.4005,8.4906,8.5034,8.529,8.529,8.529,8.529,8.529,8.529,8.5246,8.4576,8.413,8.5023,8.4532,8.3907,8.4077,8.4666,8.4933,8.3996,8.4576,8.5156,8.5156,8.5156,8.4487,8.2612,8.4508,8.7068,8.9241,9.1725,9.4277,9.6561,9.6834,9.6891,9.7,9.7559,9.738,9.6239,9.6225,9.5727,9.4557,9.3915,9.3619,9.3619,9.3565,9.2964,9.1817,9.0561,8.9359,5.5509,5.9635,6.3733,6.4685,6.6578,6.8282,6.8549,6.8415,6.849,6.9188,6.7582,6.6225,6.6451,6.4742,6.4542,6.7845,6.6592,6.7186,7.2757,6.9744,6.8026,7.0954,6.7582,6.6352,0.0,0.0,0.0,6.2365,6.5267,6.7124,6.7124,6.6411,6.6625,6.8051,6.7303,6.7017,6.7303,6.6804,6.6804,6.7303,6.7837,6.8087,6.8087,6.8087,6.7481,6.6483,6.7588,6.7445,6.6518,6.7909,6.8515,6.8515,6.88,6.8907,6.8907,6.8907,6.8907,6.9223,7.2316,7.2909,7.2772,7.5579,7.8425,8.1103,8.2146,8.37,8.5156,8.5156,8.5156,8.5156,8.5156,8.5412,8.566,8.503,8.5002,8.4991,8.4931,8.458,8.4535,8.5336,8.4822,8.4301,8.4401,8.3756,8.3327,8.3327,8.4932,8.596,8.5266,8.8467,9.1265,9.254,9.4174,9.6341,9.9061,9.9276,9.9864,10.14,10.0664,9.9653,9.8279,9.7273,9.6055,9.4781,9.4295,9.4197,9.449,9.333,9.2821,9.2558,9.0345,8.9005,0.0,0.0,6.0078,6.1654,6.3958,6.6245,6.7653,6.7875,6.7949,6.8511,6.7061,6.5919,6.6704,6.5347,6.5357,6.8642,6.7313,6.7489,7.2079,6.8725,6.7074,7.0208,6.6746,0.0,0.0,0.0,0.0,6.3675,6.7256,6.962,6.962,6.8907,6.8479,6.8479,6.7695,6.716,6.6875,6.6376,6.6233,6.6483,6.7053,6.7303,6.7303,6.7303,6.7303,6.7303,6.7303,6.7303,6.7338,6.7588,6.7695,6.7695,6.798,6.8609,6.9407,6.9407,6.9769,7.0617,7.4307,7.4972,7.4573,7.6427,7.8957,8.137,8.137,8.2651,8.4219,8.4219,8.4219,8.4175,8.4427,8.485,8.4921,8.4369,8.4482,8.4651,8.3985,8.3861,8.4086,8.4841,8.4105,8.3407,8.3861,8.295,8.2176,8.2176,8.4006,8.5969,8.7829,9.0919,9.3436,9.5018,9.6289,9.8307,10.1345,10.1714,10.2173,10.3331,10.1744,10.0208,9.8921,9.7255,9.5905,9.5072,9.4242,9.4117,9.4405,9.2668,9.1746,9.1625,8.9465,8.8401,0.0,0.0,5.5497,5.9777,6.1479,6.2802,6.5224,6.6704,6.7545,6.7794,6.8341,6.9135,6.9957,6.9995,7.0527,7.215,7.2362,7.2362,7.2438,7.2468,7.1116,6.6894,6.6486,6.3324,0.0,6.151,6.7364,7.1015,7.0765,7.0368,7.0368,6.9691,6.9263,6.9263,6.8515,6.773,6.691,6.6875,6.6483,6.5734,6.5734,6.5734,6.5734,6.5734,6.5734,6.5734,6.5869,6.5869,6.5905,6.6791,6.7077,6.7185,6.7972,6.9888,7.2249,7.2423,7.3232,7.4255,7.4255,7.5924,7.8169,7.8253,8.0098,8.2176,8.23,8.23,8.23,8.23,8.23,8.2424,8.2995,8.324,8.324,8.324,8.324,8.3118,8.2424,8.23,8.23,8.2176,8.2176,8.2176,8.2176,8.2176,8.23,8.2424,8.2424,8.4492,8.9942,9.143,9.326,9.6838,9.8145,10.0289,10.3633,10.394,10.3432,10.2291,10.0396,9.8865,9.7787,9.5918,9.4961,9.5057,9.3739,9.3073,9.3073,9.1344,8.9998,8.8842,8.8233,8.7447,5.4311,0.0,0.0,5.9564,6.1762,6.4139,6.547,6.5519,6.5542,6.6058,6.6375,6.6764,6.7447,6.6186,6.6136,6.9364,6.8125,6.7658,7.0452,7.0816,7.0459,6.9355,6.7322,6.4781,6.2068,6.619,6.8301,6.6612,6.8941,7.0368,7.0368,7.019,7.0083,7.0083,6.9335,6.855,6.7766,6.716,6.6483,6.5734,6.5734,6.5734,6.5734,6.5734,6.5734,6.5869,6.7808,6.8703,6.8873,7.1141,7.2008,7.2047,7.2281,7.2886,7.3806,7.5762,7.6764,7.7367,7.9303,7.9178,7.8548,8.0473,8.1637,8.23,8.2794,8.2872,8.2995,8.3485,8.3608,8.373,8.3853,8.4219,8.4462,8.3975,8.4341,8.4341,8.3118,8.2872,8.2794,8.23,8.2176,8.2176,8.2176,8.2176,8.2995,8.5294,8.6807,8.9055,9.2868,9.4225,9.6561,10.0979,10.1034,10.1229,10.2654,10.2699,10.2191,10.095,9.8319,9.6875,9.6921,9.4425,9.3117,9.3526,9.2726,9.2373,9.241,9.0685,8.978,8.93,8.7961,8.7668,5.3695,0.0,0.0,0.0,5.8675,6.1382,6.1666,6.3441,6.4709,6.3695,6.4333,6.5231,6.5507,6.4216,6.4112,0.0,6.567,6.5414,6.8363,6.906,6.94,6.9818,6.7697,6.6067,6.6019,6.8372,6.9085,6.716,6.9121,7.0368,7.0368,7.0368,7.0368,7.0368,6.9941,6.9192,6.8122,6.7623,6.6804,6.5734,6.5734,6.5734,6.5734,6.5734,6.6371,6.7541,7.0384,7.1565,7.1696,7.335,7.3997,7.3997,7.3997,7.477,7.6052,7.88,7.9848,8.0098,8.1637,8.114,8.0098,8.1637,8.2176,8.23,8.2995,8.324,8.324,8.3608,8.373,8.373,8.373,8.4219,8.4538,8.3975,8.4341,8.4462,8.3118,8.2794,8.2625,8.23,8.2176,8.2625,8.3884,8.3929,8.5219,8.9358,9.1034,9.2805,9.5611,9.6996,9.8577,10.1194,10.172,10.1799,10.1597,10.0678,9.9517,9.8179,9.5985,9.4834,9.5025,9.3209,9.2239,9.2606,9.1552,9.1368,9.1814,8.9594,8.9165,9.0424,8.9247,8.9426,5.3155,0.0,0.0,5.1116,5.4126,5.6504,0.0,0.0,6.3596,6.0822,6.1971,6.3531,6.3251,6.2781,6.2854,6.4497,6.4157,6.4331,6.6225,6.7249,6.7978,6.8737,6.7609,6.7089,6.8016,6.8622,6.9299,7.0083,7.019,7.0261,7.0261,7.0333,7.019,6.9762,7.0154,6.9441,6.7445,6.7873,6.7303,6.5734,6.5734,6.5734,6.5734,6.5968,6.7541,6.9895,7.2831,7.4255,7.4513,7.4899,7.5027,7.5027,7.5027,7.6476,7.8926,8.1264,8.2176,8.23,8.23,8.23,8.23,8.2424,8.2424,8.2547,8.324,8.3046,8.2684,8.273,8.2413,8.2142,8.2594,8.317,8.3549,8.3395,8.373,8.373,8.2547,8.2176,8.2176,8.2176,8.2424,8.3563,8.6329,8.6615,8.8397,9.4103,9.4777,9.5611,9.7812,9.9007,9.9492,9.9061,10.0983,10.1902,10.0783,9.8519,9.6388,9.4794,9.3612,9.2912,9.262,9.203,9.1699,9.1607,9.0363,9.0181,9.1184,8.8797,8.9045,9.1565,9.1244,9.2178,0.0,0.0,0.0,0.0,0.0,0.0,0.0,0.0,5.7238,5.6873,5.7167,5.7531,5.7699,5.6639,5.7002,6.1016,6.0638,6.1216,6.514,6.6013,6.6155,6.6298,6.6055,6.6518,6.7944,6.7623,6.7659,6.8479,6.9121,6.9441,6.9441,7.0047,6.8942,6.5805,6.8729,6.8122,6.3417,6.6518,6.7303,6.5734,6.5734,6.5734,6.5734,6.7941,6.9233,6.9895,7.2831,7.5284,7.7494,7.968,8.0598,8.0598,8.0598,8.1016,8.1513,8.2053,8.2176,8.23,8.2749,8.2995,8.3118,8.3608,8.3853,8.3975,8.4584,8.2171,7.9375,7.9948,7.7379,7.5417,7.912,7.9834,8.0268,8.3321,8.373,8.3118,8.2424,8.2176,8.2176,8.2176,8.3975,8.5507,8.6183,8.7806,9.0919,9.6661,9.6992,9.6881,9.7321,9.8412,9.9061,9.8953,10.0928,10.1847,10.0625,9.8164,9.545,9.2278,9.1699,9.1278,9.0929,8.9829,8.9001,8.8498,8.9639,9.0194,9.0129,9.0858,9.1424,9.1713,9.1628,9.3919,0.0,0.0,0.0,0.0,0.0,0.0,0.0,0.0,0.0,0.0,0.0,5.4928,0.0,0.0,5.6231,5.874,5.9229,6.0348,6.3477,6.4202,6.4237,6.3453,6.3738,6.4451,6.5627,6.5734,6.6198,6.7374,6.7837,6.8229,6.8657,6.7516,6.5984,6.4023,6.5841,6.5378,6.2241,6.5734,6.691,6.5734,6.5734,6.5734,6.5734,6.7176,6.9233,7.1919,7.3479,7.6349,8.0223,8.1637,8.2176,8.23,8.2547,8.2872,8.2892,8.0668,8.1163,8.2969,8.0982,8.1809,8.373,8.4097,8.4219,8.4341,8.4902,8.3473,8.1789,8.1672,8.0132,7.8689,8.0349,8.0732,8.1113,8.2789,8.324,8.2995,8.2424,8.2176,8.267,8.3975,8.5145,8.7021,8.9806,9.212,9.444,9.7211,9.7431,9.7211,9.7211,9.8195,9.8953,9.8953,9.8377,9.7993,9.7983,9.4099,9.0926,8.924,8.8064,8.7941,8.899,8.8587,8.8693,8.9392,9.0457,9.1257,9.1691,9.1851,9.269,9.4002,9.4254,9.566,0.0,0.0,0.0,0.0,0.0,0.0,0.0,0.0,0.0,0.0,0.0,0.0,0.0,0.0,0.0,5.6448,5.8079,5.9817,6.1706,6.2526,6.249,6.1349,6.167,6.2348,6.3274,6.3809,6.47,6.6091,6.634,6.6732,6.7374,6.5128,6.3453,6.2704,6.356,6.331,6.1777,6.5164,6.6483,6.5734,0.0,0.0,6.6506,6.7541,7.0171,7.3794,7.5125,7.7745,8.1107,8.1864,8.2176,8.2255,8.2815,8.3214,8.3291,7.9888,8.0959,8.3641,8.0122,8.1241,8.4341,8.4462,8.4584,8.4706,8.5191,8.4756,0.0,8.3151,8.2363,8.1714,8.1325,8.1626,8.1927,8.2368,8.267,8.2995,8.2995,8.2287,8.2701,8.6162,8.6478,8.7903,9.3334,9.5215,9.5576,9.468,9.4521,9.4521,9.4521,9.5957,9.6916,9.6913,9.4885,9.3785,9.459,8.9419,8.6403,8.6841,8.4943,8.4794,8.6927,8.7308,8.7834,8.8668,8.9354,9.044,9.2039,9.1776,9.309,9.5821,9.4136,9.3961,0.0,0.0,0.0,0.0,0.0,0.0,0.0,0.0,0.0,0.0,0.0,0.0,0.0,0.0,0.0,0.0,5.5522,5.7749,6.0708,6.1207,6.1456,6.2027,6.1528,6.1706,6.3203,6.2847,6.2847,6.3702,6.4415,6.4879,6.4986,0.0,0.0,0.0,0.0,6.4415,6.0173,6.4593,6.6483,6.5734,6.8208,6.9366,6.9498,7.4513,7.5187,7.2854,7.8743,7.9688,7.7346,8.0706,8.2176,8.2211,8.2049,8.2051,8.2217,8.3109,8.3686,8.4127,8.4275,0.0,0.0,8.5721,8.5842,8.5962,8.5962,8.3164,7.9829,7.9214,7.6092,7.3792,7.7053,7.7495,7.816,8.2184,8.267,8.2872,8.5145,8.2442,8.1487,8.8096,8.7804,8.8057,9.2775,9.2237,8.9721,8.5554,8.4922,8.4922,8.4922,8.7763,8.9743,8.9665,0.0,0.0,9.1734,8.7257,8.5082,8.651,8.4568,8.3776,8.452,8.4603,8.3176,7.9998,8.1624,8.3822,8.6543,8.9574,9.2276,9.4456,8.4766,8.2877,0.0,0.0,0.0,0.0,0.0,0.0,0.0,0.0,0.0,0.0,0.0,0.0,0.0,0.0,0.0,0.0,5.4451,5.7136,5.8427,5.8917,5.9725,6.1852,6.1458,6.1655,6.2934,6.2212,6.1975,6.3146,6.3283,6.3417,6.3845,6.2455,6.0886,5.9246,6.11,6.1171,5.9211,6.2918,6.4665,6.4344,6.7024,6.8323,6.8452,7.2594,7.4517,7.4743,7.7464,7.8739,7.8708,8.001,8.0604,0.0,0.0,0.0,0.0,0.0,8.2437,8.2117,7.9786,8.0704,8.2913,8.3197,8.3316,8.3316,8.3316,8.1999,8.027,7.9737,7.805,7.6917,7.8124,7.8787,7.9473,8.1415,8.1977,8.2917,8.5507,8.4517,8.4941,9.0803,9.118,0.0,9.3265,9.2936,9.1673,8.9721,8.8576,8.8002,8.8002,8.8483,8.8797,8.8676,8.7367,8.6789,8.7704,8.4487,0.0,0.0,0.0,8.5527,8.5786,8.6559,0.0,0.0,0.0,0.0,0.0,0.0,0.0,0.0,8.0653,7.94,0.0,0.0,0.0,0.0,0.0,0.0,0.0,0.0,0.0,0.0,0.0,0.0,0.0,0.0,0.0,0.0,0.0,5.5067,5.5253,5.6425,5.8319,6.0999,6.1277,6.1654,6.265,6.2028,6.1923,6.2786,6.2536,6.2643,6.2961,6.0814,5.9597,5.9318,5.9567,5.9674,5.9674,6.2134,6.3346,6.3346,6.6751,6.8405,6.8532,7.2211,7.453,7.547,7.663,7.7618,7.8491,7.9027,7.9354,7.931,7.9752,7.9717,7.9609,8.074,8.132,8.0792,7.7483,7.8507,8.132,8.132,8.132,8.132,8.132,8.132,8.1085,8.0496,8.0259,8.0141,7.9473,7.989,8.0622,8.1223,8.1885,8.323,8.6524,8.6204,8.6942,9.243,9.3115,9.2215,9.0892,9.0889,9.0626,8.9161,8.8067,0.0,8.7343,8.6833,8.6573,8.6707,8.4412,8.3672,8.5616,8.3313,8.2802,8.5024,8.61,8.6871,8.743,8.7941,8.8643,8.9436,8.6552,8.4977,0.0,0.0,0.0,0.0,0.0,0.0,0.0,0.0,0.0,0.0,0.0,0.0,0.0,0.0,0.0,0.0,0.0,0.0,0.0,0.0,0.0,0.0,0.0,0.0,5.083,5.4456,5.7665,5.9325,6.0999,6.2028,6.2028,6.2526,6.2605,6.1955,6.2494,6.2687,6.2137,6.1903,6.1582,6.0922,6.1706,6.2098,6.2098,6.2954,6.3346,6.3476,6.8619,7.1132,7.1381,7.6624,7.7025,7.3709,7.7586,7.7052,7.3909,7.7748,7.9354,7.9265,7.9032,7.8387,7.7709,8.0355,8.132,8.1275,8.1066,8.1066,8.132,8.132,8.132,8.132,8.132,8.132,8.1085,8.0496,8.0259,8.0141,7.9473,7.9354,7.9949,8.2211,8.2839,8.4064,8.8805,8.6303,8.5206,9.2359,9.1991,8.8887,8.3829,8.389,8.301,7.7885,7.7069,0.0,7.7069,7.8931,8.0649,8.1433,8.3995,8.5866,8.6808,8.4585,8.3972,8.5918,8.6161,8.6975,8.8961,8.718,8.5659,8.4594,8.0891,8.0689,8.4013,0.0,0.0,0.0,0.0,0.0,0.0,0.0,0.0,0.0,0.0,0.0,0.0,0.0,0.0,0.0,0.0,0.0,0.0,0.0,0.0,0.0,0.0,0.0,0.0,0.0,5.5734,5.8872,5.9218,5.9886,6.1388,6.095,6.0601,6.0735,6.2077,6.2898,6.265,6.265,6.2146,6.0985,6.1618,6.1547,6.0637,6.1421,6.1777,6.1904,6.5346,6.708,6.7203,7.1142,7.2671,7.2532,7.4562,7.4915,7.4238,7.6434,7.7391,7.7346,7.7265,7.7021,7.6797,7.7701,7.8086,7.8086,7.8086,7.8086,7.8086,7.8086,7.8086,7.8086,7.8086,7.8086,7.797,7.7739,7.7739,7.7623,7.7391,7.8503,7.9718,8.0628,8.1774,8.3777,8.6935,8.6413,8.6536,9.0733,8.835,8.5238,8.3466,8.5122,8.5039,8.0162,8.0173,8.1199,8.2466,8.2373,8.2721,8.436,8.539,8.6116,8.6372,8.6759,8.7374,8.7996,8.9479,9.0673,9.1366,8.9833,8.9036,8.9003,8.5461,8.1425,7.6999,0.0,0.0,0.0,0.0,0.0,0.0,0.0,0.0,0.0,0.0,0.0,0.0,0.0,0.0,0.0,0.0,0.0,0.0,0.0,0.0,0.0,0.0,0.0,0.0,0.0,0.0,5.8515,5.94,0.0,5.9984,5.9712,5.9149,5.8028,5.9336,6.0401,6.1053,6.109,6.1145,6.1162,6.1709,6.1644,6.1021,6.149,6.1742,6.1742,6.5128,6.6713,6.6835,7.0593,7.2924,7.3947,7.4746,7.5264,7.5562,7.6101,7.6071,7.5442,7.4844,7.4465,7.4151,7.2977,7.3353,7.4622,7.4396,7.5067,7.5918,7.5918,7.4711,7.3154,7.2461,7.1996,7.1888,7.2105,7.2972,7.3775,7.3775,7.5649,7.7823,7.9428,8.0687,8.2512,8.5922,8.5514,8.5199,8.7472,8.4256,8.1032,8.1216,8.3044,8.3071,7.8717,7.9914,8.1856,8.3596,8.3649,8.4394,8.6949,8.7128,8.7486,8.8108,8.9392,9.0085,9.0085,9.1593,9.2231,9.168,9.0968,9.0252,8.9532,8.5934,8.1162,0.0,0.0,0.0,0.0,0.0,0.0,0.0,0.0,0.0,0.0,0.0,0.0,0.0,0.0,0.0,0.0,0.0,0.0,0.0,0.0,0.0,0.0,0.0,0.0,0.0,0.0,0.0,5.7993,6.0797,0.0,0.0,0.0,0.0,5.3835,5.4302,5.5644,5.7358,5.7507,5.8735,6.1256,6.1513,6.1955,6.2531,6.2838,6.2949,6.3196,6.7561,6.9604,6.9962,7.475,7.6981,7.705,7.762,7.7574,7.7119,7.6255,7.5062,7.3279,7.174,7.0621,6.9597,6.6497,6.7716,7.0834,7.0293,7.2203,7.4713,7.4601,7.1473,6.7373,6.5401,6.3989,0.0,0.0,6.649,6.8673,6.9,7.1311,7.468,7.9161,7.9788,8.0825,8.5678,8.3539,8.1148,0.0,7.9447,7.6509,7.6849,0.0,7.6811,7.3259,7.5931,7.8847,8.0364,8.2675,8.5407,8.8812,8.9161,8.9913,9.1793,9.1962,9.1962,9.1962,9.2264,9.168,8.9984,9.0278,8.9014,8.5738,8.2131,0.0,0.0,0.0,0.0,0.0,0.0,0.0,0.0,0.0,0.0,0.0,0.0,0.0,0.0,0.0,0.0,0.0,0.0,0.0,0.0,0.0,0.0,0.0,0.0,0.0,0.0,4.9152,5.1892,5.3077,5.4323,5.4123,0.0,0.0,0.0,0.0,0.0,0.0,5.3791,5.4317,5.4692,5.4592,5.7284,5.8244,5.693,6.0391,6.3077,6.4937,6.628,6.7884,6.9642,7.0516,7.1598,7.2741,7.3664,7.4105,7.4199,7.1521,6.9467,6.8103,6.8276,6.6639,6.3996,6.3164,6.358,6.4488,6.4994,6.7153,6.9649,6.9392,6.8145,6.6509,6.5153,0.0,0.0,0.0,0.0,6.4804,6.9318,7.1923,7.465,8.0004,8.1499,8.2261,8.3854,8.1216,7.823,0.0,7.4519,7.165,7.0119,0.0,0.0,0.0,0.0,7.8094,8.1049,8.4149,8.7397,9.0829,9.1227,9.1397,9.1877,9.1962,9.2046,9.2323,9.1553,9.0604,8.9612,8.9393,8.6187,7.9611,0.0,0.0,0.0,0.0,0.0,0.0,0.0,0.0,0.0,0.0,0.0,0.0,0.0,0.0,0.0,0.0,0.0,0.0,0.0,0.0,0.0,0.0,0.0,0.0,0.0,0.0,0.0,4.4852,4.8066,4.9478,5.0371,4.9739,0.0,0.0,0.0,0.0,0.0,0.0,0.0,0.0,0.0,5.1131,5.3236,5.4087,5.3731,5.7788,6.0572,6.193,6.4446,6.6771,6.8968,6.971,7.0733,7.1819,7.1377,7.1057,7.0578,6.8233,6.7158,6.647,0.0,0.0,0.0,0.0,5.7178,5.8666,5.8948,6.0963,6.3432,6.319,0.0,0.0,0.0,0.0,0.0,0.0,0.0,0.0,0.0,0.0,7.35,7.7809,7.7852,7.7625,8.0661,7.6172,7.1741,0.0,6.9693,6.6932,6.6159,0.0,0.0,0.0,0.0,7.5593,7.9176,8.4113,8.8509,9.1651,9.1962,9.1962,9.1962,9.1962,9.1813,9.148,9.0441,8.8258,8.4815,8.6264,8.2905,0.0,0.0,0.0,0.0,0.0,0.0,0.0,0.0,0.0,0.0,0.0,0.0,0.0,0.0,0.0,0.0,0.0,0.0,0.0,0.0,0.0,0.0,0.0,0.0,0.0,0.0,0.0,0.0,0.0,4.3255,4.637,0.0,0.0,0.0,0.0,0.0,0.0,0.0,0.0,0.0,0.0,0.0,0.0,0.0,4.9762,5.1066,5.4598,5.6543,5.691,6.1725,6.495,6.6913,6.9144,7.0511,7.0972,6.8645,0.0,6.5598,6.4521,0.0,0.0,0.0,0.0,0.0,0.0,0.0,0.0,0.0,0.0,0.0,0.0,0.0,0.0,0.0,0.0,0.0,0.0,0.0,0.0,0.0,0.0,7.0318,7.3566,7.1744,7.0527,0.0,6.9271,6.3892,6.6947,6.4663,0.0,0.0,0.0,0.0,0.0,0.0,0.0,7.6546,8.3417,8.8884,9.1703,9.1962,9.1962,9.1962,9.1787,9.1205,9.01,8.8466,8.4745,7.8669,8.1863,0.0,0.0,0.0,0.0,0.0,0.0,0.0,0.0,0.0,0.0,0.0,0.0,0.0,0.0,0.0,0.0,0.0,0.0,0.0,0.0,0.0,0.0,0.0,0.0,0.0,0.0,0.0,0.0,0.0,0.0,0.0,0.0,0.0,0.0,0.0,0.0,0.0,0.0,0.0,0.0,0.0,0.0,0.0,0.0,0.0,0.0,0.0,0.0,0.0,0.0,5.6007,5.8115,6.0506,6.1616,6.217,6.211,5.8885,5.7518,5.7108,5.4763,0.0,0.0,0.0,0.0,0.0,0.0,0.0,0.0,0.0,0.0,0.0,0.0,0.0,0.0,0.0,0.0,0.0,0.0,0.0,0.0,0.0,0.0,0.0,0.0,6.9006,6.7736,6.4983,0.0,0.0,0.0,0.0,0.0,0.0,0.0,0.0,0.0,0.0,0.0,7.6987,8.3577,8.9054,9.2122,9.213,9.1962,9.1962,9.0973,9.044,9.0418,8.4124,7.9382,0.0,0.0,0.0,0.0,0.0,0.0,0.0,0.0,0.0,0.0,0.0,0.0,0.0,0.0,0.0,0.0,0.0,0.0,0.0,0.0,0.0,0.0,0.0,0.0,0.0,0.0,0.0,0.0,0.0,0.0,0.0,0.0,0.0,0.0,0.0,0.0,0.0,0.0,0.0,0.0,0.0,0.0,0.0,0.0,0.0,0.0,0.0,0.0,0.0,0.0,0.0,0.0,0.0,0.0,0.0,0.0,0.0,0.0,0.0,5.0618,0.0,0.0,0.0,0.0,0.0,0.0,0.0,0.0,0.0,0.0,0.0,0.0,0.0,0.0,0.0,0.0,0.0,0.0,0.0,0.0,0.0,0.0,0.0,0.0,0.0,0.0,0.0,0.0,0.0,0.0,0.0,0.0,0.0,0.0,0.0,0.0,0.0,0.0,0.0,0.0,7.5554,8.2988,8.8744,9.0964,9.1638,9.1671,9.1031,9.0391,8.8588,8.5234,8.027,0.0,0.0,0.0,0.0,0.0,0.0,0.0,0.0,0.0,0.0,0.0,0.0,0.0,0.0,0.0,0.0,0.0,0.0,0.0,0.0,0.0,0.0,0.0,0.0,0.0,0.0,0.0,0.0,0.0,0.0,0.0,0.0,0.0,0.0,0.0,0.0,0.0,0.0,0.0,0.0,0.0,0.0,0.0,0.0,0.0,0.0,0.0,0.0,0.0,0.0,0.0,0.0,0.0,0.0,0.0,0.0,0.0,0.0,0.0,4.9282,0.0,0.0,0.0,0.0,0.0,0.0,0.0,0.0,0.0,0.0,0.0,0.0,0.0,0.0,0.0,0.0,0.0,0.0,0.0,0.0,0.0,0.0,0.0,0.0,0.0,0.0,0.0,0.0,0.0,0.0,0.0,0.0,0.0,0.0,0.0,0.0,0.0,0.0,0.0,0.0,0.0,7.4385,8.2556,8.853,8.995,9.1205,9.1438,9.0076,8.9809,8.6684,7.9869,7.6485,0.0,0.0,0.0,0.0,0.0,0.0,0.0,0.0,0.0,0.0,0.0,0.0,0.0,0.0,0.0,0.0,0.0,0.0,0.0,0.0,0.0,0.0,0.0,0.0,0.0,0.0,0.0,0.0,0.0,0.0,0.0,0.0,0.0,0.0,0.0,0.0,0.0,0.0,0.0,0.0,0.0,0.0,0.0,0.0,0.0,0.0,0.0,0.0,0.0,0.0,0.0,0.0,0.0,0.0,0.0,0.0,0.0,0.0,0.0,0.0,0.0,0.0,0.0,0.0,0.0,0.0,0.0,0.0,0.0,0.0,0.0,0.0,0.0,0.0,0.0,0.0,0.0,0.0,0.0,0.0,0.0,0.0,0.0,0.0,0.0,0.0,0.0,0.0,0.0,0.0,0.0,0.0,0.0,0.0,0.0,0.0,0.0,0.0,0.0,0.0,0.0,7.4811,8.2782,8.8692,9.0382,9.1397,9.1438,9.0076,8.8937,8.527,7.8436,0.0,0.0,0.0,0.0,0.0,0.0,0.0,0.0,0.0,0.0,0.0,0.0,0.0,0.0,0.0,0.0,0.0,0.0,0.0,0.0,0.0,0.0,0.0,0.0,0.0,0.0,0.0,0.0,0.0,0.0,0.0,0.0,0.0,0.0,0.0,0.0,0.0,0.0,0.0,0.0,0.0,0.0,0.0,0.0,0.0,0.0,0.0,0.0,0.0,0.0,0.0,0.0,0.0,0.0,0.0,0.0,0.0,0.0,0.0,0.0,0.0,0.0,0.0,0.0,0.0,0.0,0.0,0.0,0.0,0.0,0.0,0.0,0.0,0.0,0.0,0.0,0.0,0.0,0.0,0.0,0.0,0.0,0.0,0.0,0.0,0.0,0.0,0.0,0.0,0.0,0.0,0.0,0.0,0.0,0.0,0.0,0.0,0.0,0.0,0.0,0.0,0.0,7.3357,8.1391,8.7446,8.8889,8.9368,8.9402,8.8879,8.7416,8.2277,7.2194,0.0,0.0,0.0,0.0,0.0,0.0,0.0,0.0,0.0,0.0,0.0,0.0,0.0,0.0,0.0,0.0,0.0,0.0,0.0,0.0,0.0,0.0,0.0,0.0,0.0,0.0,0.0,0.0,0.0,0.0,0.0,0.0,0.0,0.0,0.0,0.0,0.0,0.0,0.0,0.0,0.0,0.0,0.0,0.0,0.0,0.0,0.0,0.0,0.0,0.0,0.0,0.0,0.0,0.0,0.0,0.0,0.0,0.0,0.0,0.0,0.0,0.0,0.0,0.0,0.0,0.0,0.0,0.0,0.0,0.0,0.0,0.0,0.0,0.0,0.0,0.0,0.0,0.0,0.0,0.0,0.0,0.0,0.0,0.0,0.0,0.0,0.0,0.0,0.0,0.0,0.0,0.0,0.0,0.0,0.0,0.0,0.0,0.0,0.0,0.0,0.0,0.0,7.2076,7.9975,8.606,8.8413,8.8054,8.7915,8.8181,8.6066,7.9351,6.7177,0.0,0.0,0.0,0.0,0.0,0.0,0.0,0.0,0.0,0.0,0.0,0.0,0.0,0.0,0.0,0.0,0.0,0.0,0.0,0.0,0.0,0.0,0.0,0.0,0.0,0.0,0.0,0.0,0.0,0.0,0.0,0.0,0.0,0.0,0.0,0.0,0.0,0.0,0.0,0.0,0.0,0.0,0.0,0.0,0.0,0.0,0.0,0.0,0.0,0.0,0.0,0.0,0.0,0.0,0.0,0.0,0.0,0.0,0.0,0.0,0.0,0.0,0.0,0.0,0.0,0.0,0.0,0.0,0.0,0.0,0.0,0.0,0.0,0.0,0.0,0.0,0.0,0.0,0.0,0.0,0.0,0.0,0.0,0.0,0.0,0.0,0.0,0.0,0.0,0.0,0.0,0.0,0.0,0.0,0.0,0.0,0.0,0.0,0.0,0.0,0.0,0.0,7.1443,7.8428,8.4868,8.9413,8.8142,8.7417,8.8564,8.4776,7.7137,0.0,0.0,0.0,0.0,0.0,0.0,0.0,0.0,0.0,0.0,0.0,0.0,0.0,0.0,0.0,0.0,0.0,0.0,0.0,0.0,0.0,0.0,0.0,0.0,0.0,0.0,0.0,0.0,0.0,0.0,0.0,0.0,0.0,0.0,0.0,0.0,0.0,0.0,0.0,0.0,0.0,0.0,0.0,0.0,0.0,0.0,0.0,0.0,0.0,0.0,0.0,0.0,0.0,0.0,0.0,0.0,0.0,0.0,0.0,0.0,0.0,0.0,0.0,0.0,0.0,0.0,0.0,0.0,0.0,0.0,0.0,0.0,0.0,0.0,0.0,0.0,0.0,0.0,0.0,0.0,0.0,0.0,0.0,0.0,0.0,0.0,0.0,0.0,0.0,0.0,0.0,0.0,0.0,0.0,0.0,0.0,0.0,0.0,0.0,0.0,0.0,0.0,0.0,7.0096,7.659,8.2097,0.0,8.4199,8.3833,8.5056,8.2183,7.5166,6.3104,0.0,0.0,0.0,0.0,0.0,0.0,0.0,0.0,0.0,0.0,0.0,0.0,0.0,0.0,0.0,0.0,0.0,0.0,0.0,0.0,0.0,0.0,0.0,0.0,0.0,0.0,0.0,0.0,0.0,0.0,0.0,0.0,0.0,0.0,0.0,0.0,0.0,0.0,0.0,0.0,0.0,0.0,0.0,0.0,0.0,0.0,0.0,0.0,0.0,0.0,0.0,0.0,0.0,0.0,0.0,0.0,0.0,0.0,0.0,0.0,0.0,0.0,0.0,0.0,0.0,0.0,0.0,0.0,0.0,0.0,0.0,0.0,0.0,0.0,0.0,0.0,0.0,0.0,0.0,0.0,0.0,0.0,0.0,0.0,0.0,0.0,0.0,0.0,0.0,0.0,0.0,0.0,0.0,0.0,0.0,0.0,0.0,0.0,0.0,0.0,0.0,0.0,0.0,7.3915,7.8991,0.0,8.2198,8.1648,8.2798,7.9901,7.3059,6.1786,0.0,0.0,0.0,0.0,0.0,0.0,0.0,0.0,0.0,0.0,0.0,0.0,0.0,0.0,0.0,0.0,0.0,0.0,0.0,0.0,0.0,0.0,0.0,0.0,0.0,0.0,0.0,0.0,0.0,0.0,0.0,0.0,0.0,0.0,0.0,0.0,0.0,0.0,0.0,0.0,0.0,0.0,0.0,0.0,0.0,0.0,0.0,0.0,0.0,0.0,0.0,0.0,0.0,0.0,0.0,0.0,0.0,0.0,0.0,0.0,0.0,0.0,0.0,0.0,0.0,0.0,0.0,0.0,0.0,0.0,0.0,0.0,0.0,0.0,0.0,0.0,0.0,0.0,0.0,0.0,0.0,0.0,0.0,0.0,0.0,0.0,0.0,0.0,0.0,0.0,0.0,0.0,0.0,0.0,0.0,0.0,0.0,0.0,0.0,0.0,0.0,0.0,0.0,7.0843,7.581,8.2586,8.1515,8.0635,8.1409,7.7858,7.1108,6.0738,6.0069,0.0,0.0,0.0,0.0,0.0,0.0,0.0,0.0,0.0,0.0,0.0,0.0,0.0,0.0,0.0,0.0,0.0,0.0,0.0,0.0,0.0,0.0,0.0,0.0,0.0,0.0,0.0,0.0,0.0,0.0,0.0,0.0,0.0,0.0,0.0,0.0,0.0,0.0,0.0,0.0,0.0,0.0,0.0,0.0,0.0,0.0,0.0,0.0,0.0,0.0,0.0,0.0,0.0,0.0,0.0,0.0,0.0,0.0,0.0,0.0,0.0,0.0,0.0,0.0,0.0,0.0,0.0,0.0,0.0,0.0,0.0,0.0,0.0,0.0,0.0,0.0,0.0,0.0,0.0,0.0,0.0,0.0,0.0,0.0,0.0,0.0,0.0,0.0,0.0,0.0,0.0,0.0,0.0,0.0,0.0,0.0,0.0,0.0,0.0,0.0,0.0,0.0,7.0808,7.5992,7.8597,7.8434,7.8053,7.7997,7.6523,7.1163,6.0738,6.1403,0.0,0.0,0.0,0.0,0.0,0.0,0.0,0.0,0.0,0.0,0.0,0.0,0.0,0.0,0.0,0.0,0.0,0.0,0.0,0.0,0.0,0.0,0.0,0.0,0.0,0.0,0.0,0.0,0.0,0.0,0.0,0.0,0.0,0.0,0.0,0.0,0.0,0.0,0.0,0.0,0.0,0.0,0.0,0.0,0.0,0.0,0.0,0.0,0.0,0.0,0.0,0.0,0.0,0.0,0.0,0.0,0.0,0.0,0.0,0.0,0.0,0.0,0.0,0.0,0.0,0.0,0.0,0.0,0.0,0.0,0.0,0.0,0.0,0.0,0.0,0.0,0.0,0.0,0.0,0.0,0.0,0.0,0.0,0.0,0.0,0.0,0.0,0.0,0.0,0.0,0.0,0.0,0.0,0.0,0.0,0.0,0.0,0.0,0.0,0.0,0.0,0.0,6.5183,7.1423,7.6032,7.6604,7.6362,7.5713,7.4898,7.0264,6.0552,6.1187,0.0,0.0,0.0,0.0,0.0,0.0,0.0,0.0,0.0,0.0,0.0,0.0,0.0,0.0,0.0,0.0,0.0,0.0,0.0,0.0,0.0,0.0,0.0,0.0,0.0,0.0,0.0,0.0,0.0,0.0,0.0,0.0,0.0,0.0,0.0,0.0,0.0,0.0,0.0,0.0,0.0,0.0,0.0,0.0,0.0,0.0,0.0,0.0,0.0,0.0,0.0,0.0,0.0,0.0,0.0,0.0,0.0,0.0,0.0,0.0,0.0,0.0,0.0,0.0,0.0,0.0,0.0,0.0,0.0,0.0,0.0,0.0,0.0,0.0,0.0,0.0,0.0,0.0,0.0,0.0,0.0,0.0,0.0,0.0,0.0,0.0,0.0,0.0,0.0,0.0,0.0,0.0,0.0,0.0,0.0,0.0,0.0,0.0,0.0,0.0,0.0,0.0,0.0,6.5035,7.3847,7.5127,7.4949,7.3987,7.3256,6.9119,6.0432,0.0,0.0,0.0,0.0,0.0,0.0,0.0,0.0,0.0,0.0,0.0,0.0,0.0,0.0,0.0,0.0,0.0,0.0,0.0,0.0,0.0,0.0,0.0,0.0,0.0,0.0,0.0,0.0,0.0,0.0,0.0,0.0,0.0,0.0,0.0,0.0,0.0,0.0,0.0,0.0,0.0,0.0,0.0,0.0,0.0,0.0,0.0,0.0,0.0,0.0,0.0,0.0,0.0,0.0,0.0,0.0,0.0,0.0,0.0,0.0,0.0,0.0,0.0,0.0,0.0,0.0,0.0,0.0,0.0,0.0,0.0,0.0,0.0,0.0,0.0,0.0,0.0,0.0,0.0,0.0,0.0,0.0,0.0,0.0,0.0,0.0,0.0,0.0,0.0,0.0,0.0,0.0,0.0,0.0,0.0,0.0,0.0,0.0,0.0,0.0,0.0,0.0,0.0,0.0,0.0,7.0078,7.2754,7.3487,7.2354,7.1858,6.8255,6.0378,0.0,0.0,0.0,0.0,0.0,0.0,0.0,0.0,0.0,0.0,0.0,0.0,0.0,0.0]}]]]